[[{"header":{"parameterUnit":"m.s-1","parameterCategory":1,"la1":31.0,"la2":29.5877,"lo1":-88.7671,"lo2":-86.6584,"dy":0.0162,"dx":0.0185,"nx":115,"ny":88,"refTime":"2026-03-31T00:00:00:Z","depth":0,"parameterNumber":2,"parameterNumberName":"U-component_of_WINDS"},"data":[0.0,0.0,0.0,0.0,0.0,0.0,0.0,0.0,0.0,0.0,0.0,0.0,0.0,0.0,0.0,0.0,0.0,0.0,0.0,0.0,0.0,0.0,0.0,0.0,0.0,0.0,0.0,0.0,0.0,0.0,0.0,0.0,0.0,0.0,0.0,0.0,0.0,0.0,0.0,0.0,0.0,0.0,0.0,0.0,0.0,0.0,0.0,0.0,0.0,0.0,0.0,0.0,0.0,0.0,0.0,0.0,0.0,0.0,0.0,0.0,0.0,0.0,0.0,0.0,0.0,0.0,0.0,0.0,0.0,0.0,0.0,0.0,0.0,0.0,0.0,0.0,0.0,0.0,0.0,0.0,0.0,0.0,0.0,0.0,0.0,0.0,0.0,0.0,0.0,0.0,0.0,0.0,0.0,0.0,0.0,0.0,0.0,0.0,0.0,0.0,0.0,0.0,0.0,0.0,0.0,0.0,0.0,0.0,0.0,0.0,0.0,0.0,0.0,0.0,0.0,0.0,0.0,0.0,0.0,0.0,0.0,0.0,0.0,0.0,0.0,0.0,0.0,0.0,0.0,0.0,0.0,0.0,0.0,0.0,0.0,0.0,0.0,0.0,0.0,0.0,0.0,0.0,0.0,0.0,0.0,0.0,0.0,0.0,0.0,0.0,0.0,0.0,0.0,0.0,0.0,0.0,0.0,0.0,0.0,0.0,0.0,0.0,0.0,0.0,0.0,0.0,0.0,0.0,0.0,0.0,0.0,0.0,0.0,0.0,0.0,0.0,0.0,0.0,0.0,0.0,0.0,0.0,0.0,0.0,0.0,0.0,0.0,0.0,0.0,0.0,0.0,0.0,0.0,0.0,0.0,0.0,0.0,0.0,0.0,0.0,0.0,0.0,0.0,0.0,0.0,0.0,0.0,0.0,0.0,0.0,0.0,0.0,0.0,0.0,0.0,0.0,0.0,0.0,0.0,0.0,0.0,0.0,0.0,0.0,0.0,0.0,0.0,0.0,0.0,0.0,0.0,0.0,0.0,0.0,0.0,0.0,0.0,0.0,0.0,0.0,0.0,0.0,0.0,0.0,0.0,0.0,0.0,0.0,0.0,0.0,0.0,0.0,0.0,0.0,0.0,0.0,0.0,0.0,0.0,0.0,0.0,0.0,0.0,0.0,0.0,0.0,0.0,0.0,0.0,0.0,0.0,0.0,0.0,0.0,0.0,0.0,0.0,0.0,0.0,0.0,0.0,0.0,0.0,0.0,0.0,0.0,0.0,0.0,0.0,0.0,0.0,0.0,0.0,0.0,0.0,0.0,0.0,0.0,0.0,0.0,0.0,0.0,0.0,0.0,0.0,0.0,0.0,0.0,0.0,0.0,0.0,0.0,0.0,0.0,0.0,0.0,0.0,0.0,0.0,0.0,0.0,0.0,0.0,0.0,0.0,0.0,0.0,0.0,0.0,0.0,0.0,0.0,0.0,0.0,0.0,0.0,0.0,0.0,0.0,0.0,0.0,0.0,0.0,0.0,0.0,0.0,0.0,0.0,0.0,0.0,0.0,0.0,0.0,0.0,0.0,0.0,0.0,0.0,0.0,0.0,0.0,0.0,0.0,0.0,0.0,0.0,0.0,0.0,0.0,0.0,0.0,0.0,0.0,0.0,0.0,0.0,0.0,0.0,0.0,0.0,0.0,0.0,0.0,0.0,0.0,0.0,0.0,0.0,0.0,0.0,0.0,0.0,0.0,0.0,0.0,0.0,0.0,0.0,0.0,0.0,0.0,0.0,0.0,0.0,0.0,0.0,0.0,0.0,0.0,0.0,0.0,0.0,0.0,0.0,0.0,0.0,0.0,0.0,0.0,0.0,0.0,0.0,0.0,0.0,0.0,0.0,0.0,0.0,0.0,0.0,0.0,0.0,0.0,0.0,0.0,0.0,0.0,0.0,0.0,0.0,0.0,0.0,0.0,0.0,0.0,0.0,0.0,0.0,0.0,0.0,0.0,0.0,0.0,0.0,0.0,0.0,0.0,0.0,0.0,0.0,0.0,0.0,0.0,0.0,0.0,0.0,0.0,0.0,0.0,0.0,0.0,0.0,0.0,0.0,0.0,0.0,0.0,0.0,0.0,0.0,0.0,0.0,0.0,0.0,0.0,0.0,0.0,0.0,0.0,0.0,0.0,0.0,0.0,0.0,0.0,0.0,0.0,0.0,0.0,0.0,0.0,0.0,0.0,0.0,0.0,0.0,0.0,0.0,0.0,0.0,0.0,0.0,0.0,0.0,0.0,0.0,0.0,0.0,0.0,0.0,0.0,0.0,0.0,0.0,0.0,0.0,0.0,0.0,0.0,0.0,0.0,0.0,0.0,0.0,0.0,0.0,0.0,0.0,0.0,0.0,0.0,0.0,0.0,0.0,0.0,0.0,0.0,0.0,0.0,0.0,0.0,0.0,0.0,0.0,0.0,0.0,0.0,0.0,0.0,0.0,0.0,0.0,0.0,0.0,0.0,0.0,0.0,0.0,0.0,0.0,0.0,0.0,0.0,0.0,0.0,0.0,0.0,0.0,0.0,0.0,0.0,0.0,0.0,0.0,0.0,0.0,0.0,0.0,0.0,0.0,0.0,0.0,0.0,0.0,0.0,0.0,0.0,0.0,0.0,0.0,0.0,0.0,0.0,0.0,0.0,0.0,0.0,0.0,0.0,0.0,0.0,0.0,0.0,0.0,0.0,0.0,0.0,0.0,0.0,0.0,0.0,0.0,0.0,0.0,0.0,0.0,0.0,0.0,0.0,0.0,0.0,0.0,0.0,0.0,0.0,0.0,0.0,0.0,0.0,0.0,0.0,0.0,0.0,0.0,0.0,0.0,0.0,0.0,0.0,0.0,0.0,0.0,0.0,0.0,0.0,0.0,0.0,0.0,0.0,0.0,0.0,0.0,0.0,0.0,0.0,0.0,0.0,0.0,0.0,0.0,0.0,0.0,0.0,0.0,0.0,0.0,0.0,0.0,0.0,0.0,0.0,0.0,0.0,0.0,0.0,0.0,0.0,0.0,0.0,0.0,0.0,0.0,0.0,0.0,0.0,0.0,0.0,0.0,0.0,0.0,0.0,0.0,0.0,0.0,0.0,0.0,0.0,0.0,0.0,0.0,0.0,0.0,0.0,0.0,0.0,0.0,0.0,0.0,0.0,0.0,0.0,0.0,0.0,0.0,0.0,0.0,0.0,0.0,0.0,0.0,0.0,0.0,0.0,0.0,0.0,0.0,0.0,0.0,0.0,0.0,0.0,0.0,0.0,0.0,0.0,0.0,0.0,0.0,0.0,0.0,0.0,0.0,0.0,0.0,0.0,0.0,0.0,0.0,0.0,0.0,0.0,0.0,0.0,0.0,0.0,0.0,0.0,0.0,0.0,0.0,0.0,0.0,0.0,0.0,0.0,0.0,0.0,0.0,0.0,0.0,0.0,0.0,0.0,0.0,0.0,0.0,0.0,0.0,0.0,0.0,0.0,0.0,0.0,0.0,0.0,0.0,0.0,0.0,0.0,0.0,0.0,0.0,0.0,0.0,0.0,0.0,0.0,0.0,0.0,0.0,0.0,0.0,0.0,0.0,0.0,0.0,0.0,0.0,0.0,0.0,0.0,0.0,0.0,0.0,0.0,0.0,0.0,0.0,0.0,0.0,0.0,0.0,0.0,0.0,0.0,0.0,0.0,0.0,0.0,0.0,0.0,0.0,0.0,0.0,0.0,0.0,0.0,0.0,0.0,0.0,0.0,0.0,0.0,0.0,0.0,0.0,0.0,0.0,0.0,0.0,0.0,0.0,0.0,0.0,0.0,0.0,0.0,0.0,0.0,0.0,0.0,0.0,0.0,0.0,0.0,0.0,0.0,0.0,0.0,0.0,0.0,0.0,0.0,0.0,0.0,0.0,0.0,0.0,0.0,0.0,0.0,0.0,0.0,0.0,0.0,0.0,0.0,0.0,0.0,0.0,0.0,0.0,0.0,0.0,0.0,0.0,0.0,0.0,0.0,0.0,0.0,0.0,0.0,0.0,0.0,0.0,0.0,0.0,0.0,0.0,0.0,0.0,0.0,0.0,0.0,0.0,0.0,0.0,0.0,0.0,0.0,0.0,0.0,0.0,0.0,0.0,0.0,0.0,0.0,0.0,0.0,0.0,0.0,0.0,0.0,0.0,0.0,0.0,0.0,0.0,0.0,0.0,0.0,0.0,0.0,0.0,0.0,0.0,0.0,0.0,0.0,0.0,0.0,0.0,0.0,0.0,-1.1865,0.0,0.0,0.0,0.0,0.0,0.0,0.0,0.0,0.0,0.0,0.0,0.0,0.0,0.0,0.0,0.0,0.0,0.0,0.0,0.0,0.0,0.0,0.0,0.0,0.0,0.0,0.0,0.0,0.0,0.0,0.0,0.0,0.0,0.0,0.0,0.0,0.0,0.0,0.0,0.0,0.0,0.0,0.0,0.0,0.0,0.0,0.0,0.0,0.0,0.0,0.0,0.0,0.0,0.0,0.0,0.0,0.0,0.0,0.0,0.0,0.0,0.0,0.0,0.0,0.0,0.0,0.0,0.0,0.0,0.0,0.0,0.0,0.0,0.0,0.0,0.0,0.0,0.0,0.0,0.0,0.0,0.0,0.0,0.0,0.0,0.0,0.0,0.0,0.0,0.0,0.0,0.0,0.0,0.0,0.0,0.0,0.0,0.0,0.0,0.0,0.0,0.0,0.0,0.0,0.0,0.0,0.0,0.0,0.0,0.0,-1.4796,-1.3855,-1.3797,-1.3169,-1.1891,0.0,0.0,0.0,0.0,0.0,0.0,0.0,0.0,0.0,0.0,0.0,0.0,0.0,0.0,0.0,0.0,0.0,0.0,0.0,0.0,0.0,0.0,0.0,0.0,0.0,0.0,0.0,0.0,0.0,0.0,0.0,0.0,0.0,0.0,0.0,0.0,0.0,0.0,0.0,0.0,0.0,0.0,0.0,0.0,0.0,0.0,0.0,0.0,0.0,0.0,0.0,0.0,0.0,0.0,0.0,0.0,0.0,0.0,0.0,0.0,0.0,0.0,0.0,0.0,0.0,0.0,0.0,0.0,0.0,0.0,0.0,0.0,0.0,0.0,0.0,0.0,0.0,0.0,0.0,0.0,0.0,0.0,0.0,0.0,0.0,0.0,0.0,0.0,0.0,0.0,0.0,0.0,0.0,0.0,0.0,0.0,0.0,0.0,0.0,0.0,0.0,0.0,0.0,0.0,0.0,0.0,0.0,0.0,0.0,0.0,0.0,0.0,-1.4184,-1.3615,-1.2343,0.0,0.0,0.0,0.0,0.0,0.0,0.0,0.0,0.0,0.0,0.0,0.0,0.0,0.0,0.0,0.0,0.0,0.0,0.0,0.0,0.0,0.0,0.0,0.0,0.0,0.0,0.0,0.0,0.0,0.0,0.0,0.0,0.0,0.0,0.0,0.0,0.0,0.0,0.0,0.0,0.0,0.0,0.0,0.0,0.0,0.0,0.0,0.0,0.0,0.0,0.0,0.0,0.0,0.0,0.0,0.0,0.0,0.0,0.0,0.0,0.0,0.0,0.0,0.0,0.0,0.0,0.0,0.0,0.0,0.0,0.0,0.0,0.0,0.0,0.0,0.0,0.0,0.0,0.0,0.0,0.0,0.0,0.0,0.0,0.0,0.0,0.0,0.0,0.0,0.0,0.0,0.0,0.0,0.0,0.0,0.0,0.0,0.0,0.0,0.0,0.0,0.0,0.0,0.0,0.0,0.0,0.0,0.0,0.0,0.0,-1.4752,-1.4721,-1.5275,0.0,-1.378,0.0,0.0,0.0,0.0,0.0,0.0,0.0,0.0,0.0,0.0,0.0,0.0,0.0,0.0,0.0,0.0,0.0,0.0,0.0,0.0,0.0,0.0,0.0,0.0,0.0,0.0,0.0,0.0,0.0,0.0,0.0,0.0,0.0,0.0,0.0,0.0,0.0,0.0,0.0,0.0,0.0,0.0,0.0,0.0,0.0,0.0,0.0,0.0,0.0,0.0,0.0,0.0,0.0,0.0,0.0,0.0,0.0,0.0,0.0,0.0,0.0,0.0,0.0,0.0,0.0,0.0,0.0,0.0,0.0,0.0,0.0,0.0,0.0,0.0,0.0,0.0,0.0,0.0,0.0,0.0,0.0,0.0,0.0,0.0,0.0,0.0,0.0,0.0,0.0,0.0,0.0,0.0,0.0,0.0,0.0,0.0,0.0,0.0,0.0,0.0,0.0,0.0,0.0,0.0,0.0,0.0,0.0,0.0,0.0,0.0,-1.4796,-1.4796,-1.4676,-1.4363,0.0,0.0,0.0,0.0,0.0,0.0,0.0,0.0,0.0,0.0,0.0,0.0,0.0,0.0,0.0,0.0,0.0,0.0,0.0,0.0,0.0,0.0,0.0,0.0,0.0,0.0,0.0,0.0,0.0,0.0,0.0,0.0,0.0,0.0,0.0,0.0,0.0,0.0,0.0,0.0,0.0,0.0,0.0,0.0,0.0,0.0,0.0,0.0,0.0,0.0,0.0,0.0,0.0,0.0,0.0,0.0,0.0,0.0,0.0,0.0,0.0,0.0,0.0,0.0,0.0,0.0,0.0,0.0,0.0,0.0,0.0,0.0,0.0,0.0,0.0,0.0,0.0,0.0,0.0,0.0,0.0,0.0,0.0,0.0,0.0,0.0,0.0,0.0,0.0,0.0,0.0,0.0,0.0,0.0,0.0,0.0,0.0,0.0,0.0,0.0,0.0,0.0,0.0,0.0,0.0,0.0,0.0,0.0,0.0,0.0,-1.4737,0.0,-1.5262,-1.4692,-1.413,-1.368,0.0,0.0,0.0,0.0,0.0,0.0,0.0,0.0,0.0,0.0,0.0,0.0,0.0,0.0,0.0,0.0,0.0,0.0,0.0,0.0,0.0,0.0,0.0,0.0,0.0,0.0,0.0,0.0,0.0,0.0,0.0,0.0,0.0,0.0,0.0,0.0,0.0,0.0,0.0,0.0,0.0,0.0,0.0,0.0,0.0,0.0,0.0,0.0,0.0,0.0,0.0,0.0,0.0,0.0,0.0,0.0,0.0,0.0,0.0,0.0,0.0,0.0,0.0,0.0,0.0,0.0,0.0,0.0,0.0,0.0,0.0,0.0,0.0,0.0,0.0,0.0,0.0,0.0,0.0,0.0,0.0,0.0,0.0,0.0,0.0,0.0,0.0,0.0,0.0,0.0,0.0,0.0,0.0,0.0,0.0,0.0,0.0,0.0,0.0,0.0,0.0,0.0,0.0,0.0,0.0,0.0,0.0,0.0,0.0,-1.5352,-1.5367,-1.6532,-1.6009,-1.4956,0.0,0.0,0.0,0.0,0.0,0.0,0.0,0.0,0.0,0.0,0.0,0.0,0.0,0.0,0.0,0.0,0.0,0.0,0.0,0.0,0.0,0.0,0.0,0.0,0.0,0.0,0.0,0.0,0.0,0.0,0.0,0.0,0.0,0.0,0.0,0.0,0.0,0.0,0.0,0.0,0.0,0.0,0.0,0.0,0.0,0.0,0.0,0.0,0.0,0.0,0.0,0.0,0.0,0.0,0.0,0.0,0.0,0.0,0.0,0.0,0.0,0.0,0.0,0.0,0.0,0.0,0.0,0.0,0.0,0.0,0.0,0.0,0.0,0.0,0.0,0.0,0.0,0.0,0.0,0.0,0.0,0.0,0.0,0.0,0.0,0.0,0.0,0.0,0.0,0.0,0.0,0.0,0.0,0.0,0.0,0.0,0.0,0.0,0.0,0.0,0.0,0.0,0.0,0.0,0.0,0.0,0.0,0.0,0.0,-1.3558,-1.3944,-1.5017,-1.6681,-1.5125,-1.4153,0.0,0.0,0.0,0.0,0.0,0.0,0.0,0.0,0.0,0.0,0.0,0.0,0.0,0.0,0.0,0.0,0.0,0.0,0.0,0.0,0.0,0.0,0.0,0.0,0.0,0.0,0.0,0.0,0.0,0.0,0.0,0.0,0.0,0.0,0.0,0.0,0.0,0.0,0.0,0.0,0.0,0.0,0.0,0.0,0.0,0.0,0.0,0.0,0.0,0.0,0.0,0.0,0.0,0.0,0.0,0.0,0.0,0.0,0.0,0.0,0.0,0.0,0.0,0.0,0.0,0.0,0.0,0.0,0.0,0.0,0.0,0.0,0.0,0.0,0.0,0.0,0.0,0.0,0.0,0.0,0.0,0.0,0.0,0.0,0.0,0.0,0.0,0.0,0.0,0.0,0.0,0.0,0.0,0.0,0.0,0.0,0.0,0.0,0.0,0.0,0.0,0.0,0.0,0.0,0.0,0.0,0.0,0.0,0.0,-1.3121,0.0,-1.533,0.0,-1.476,-1.3657,0.0,0.0,0.0,0.0,0.0,0.0,0.0,0.0,0.0,0.0,0.0,0.0,0.0,0.0,0.0,0.0,0.0,0.0,0.0,0.0,0.0,0.0,0.0,0.0,0.0,0.0,0.0,0.0,0.0,0.0,0.0,0.0,0.0,0.0,0.0,0.0,0.0,0.0,0.0,0.0,0.0,0.0,0.0,0.0,0.0,0.0,0.0,0.0,0.0,0.0,0.0,0.0,0.0,0.0,0.0,0.0,0.0,0.0,0.0,0.0,0.0,0.0,0.0,0.0,0.0,0.0,0.0,0.0,0.0,0.0,0.0,0.0,0.0,0.0,0.0,0.0,0.0,0.0,0.0,0.0,0.0,0.0,0.0,0.0,0.0,0.0,0.0,0.0,0.0,0.0,0.0,0.0,0.0,0.0,0.0,0.0,0.0,0.0,0.0,0.0,0.0,0.0,0.0,0.0,0.0,0.0,0.0,0.0,-1.444,-1.5666,-1.6372,-1.6235,-1.5371,-1.5044,-1.3543,0.0,0.0,0.0,0.0,0.0,0.0,0.0,0.0,0.0,0.0,0.0,0.0,0.0,0.0,0.0,0.0,0.0,0.0,0.0,0.0,0.0,0.0,0.0,0.0,0.0,0.0,0.0,0.0,0.0,0.0,0.0,0.0,0.0,0.0,0.0,0.0,0.0,0.0,0.0,0.0,0.0,0.0,0.0,0.0,0.0,0.0,0.0,0.0,0.0,0.0,0.0,0.0,0.0,0.0,0.0,0.0,0.0,0.0,0.0,0.0,0.0,0.0,0.0,0.0,0.0,0.0,0.0,0.0,0.0,0.0,0.0,0.0,0.0,0.0,0.0,0.0,0.0,0.0,0.0,0.0,0.0,0.0,0.0,0.0,0.0,0.0,0.0,0.0,0.0,0.0,0.0,0.0,0.0,0.0,0.0,0.0,0.0,0.0,0.0,0.0,0.0,0.0,0.0,0.0,0.0,0.0,0.0,0.0,0.0,-1.4573,-1.4875,-1.5312,-1.5824,-1.4392,-1.3364,0.0,0.0,0.0,0.0,0.0,0.0,0.0,0.0,0.0,0.0,0.0,0.0,0.0,0.0,0.0,0.0,0.0,0.0,0.0,0.0,0.0,0.0,0.0,0.0,0.0,0.0,0.0,0.0,0.0,0.0,0.0,0.0,0.0,0.0,0.0,0.0,0.0,0.0,0.0,0.0,0.0,0.0,0.0,0.0,0.0,0.0,0.0,0.0,0.0,0.0,0.0,0.0,0.0,0.0,0.0,0.0,0.0,0.0,0.0,0.0,0.0,0.0,0.0,0.0,0.0,0.0,0.0,0.0,0.0,0.0,0.0,0.0,0.0,0.0,0.0,0.0,0.0,0.0,0.0,0.0,0.0,0.0,0.0,0.0,0.0,0.0,0.0,0.0,0.0,0.0,0.0,0.0,0.0,0.0,0.0,0.0,0.0,0.0,0.0,0.0,0.0,0.0,0.0,0.0,0.0,0.0,0.0,0.0,0.0,-1.551,-1.5618,-1.5875,-1.6284,-1.4716,-1.3723,-1.3435,0.0,0.0,0.0,0.0,0.0,0.0,0.0,0.0,0.0,0.0,0.0,0.0,0.0,0.0,0.0,0.0,0.0,0.0,0.0,0.0,0.0,0.0,0.0,0.0,0.0,0.0,0.0,0.0,0.0,0.0,0.0,0.0,0.0,0.0,0.0,0.0,0.0,0.0,0.0,0.0,0.0,0.0,0.0,0.0,0.0,0.0,0.0,0.0,0.0,0.0,0.0,0.0,0.0,0.0,0.0,0.0,0.0,0.0,0.0,0.0,0.0,0.0,0.0,0.0,0.0,0.0,0.0,0.0,0.0,0.0,0.0,0.0,0.0,0.0,0.0,0.0,0.0,0.0,0.0,0.0,0.0,0.0,0.0,0.0,0.0,0.0,0.0,0.0,0.0,0.0,0.0,0.0,0.0,0.0,0.0,0.0,0.0,0.0,0.0,0.0,0.0,0.0,0.0,0.0,0.0,0.0,0.0,0.0,-1.8083,-1.8249,-1.7789,-1.6698,-1.5918,-1.458,0.0,0.0,0.0,0.0,0.0,0.0,0.0,0.0,0.0,0.0,0.0,0.0,0.0,0.0,0.0,0.0,0.0,0.0,0.0,0.0,0.0,0.0,0.0,0.0,0.0,0.0,0.0,0.0,0.0,0.0,0.0,0.0,0.0,0.0,0.0,0.0,0.0,0.0,0.0,0.0,0.0,0.0,0.0,0.0,0.0,0.0,0.0,0.0,0.0,0.0,0.0,0.0,0.0,0.0,0.0,0.0,0.0,0.0,0.0,0.0,0.0,0.0,0.0,0.0,0.0,0.0,0.0,0.0,0.0,0.0,0.0,0.0,0.0,0.0,0.0,0.0,0.0,0.0,0.0,0.0,0.0,0.0,0.0,0.0,0.0,0.0,0.0,0.0,0.0,0.0,0.0,0.0,0.0,0.0,0.0,0.0,0.0,0.0,0.0,0.0,0.0,0.0,0.0,0.0,0.0,0.0,0.0,0.0,0.0,-1.9274,-1.9783,-1.9496,-1.8391,-1.7381,-1.6068,0.0,0.0,0.0,0.0,0.0,0.0,0.0,0.0,0.0,0.0,0.0,0.0,0.0,0.0,0.0,0.0,0.0,0.0,0.0,0.0,0.0,0.0,0.0,0.0,0.0,0.0,0.0,0.0,0.0,0.0,0.0,0.0,0.0,0.0,0.0,0.0,0.0,0.0,0.0,0.0,0.0,0.0,0.0,0.0,0.0,0.0,0.0,0.0,0.0,0.0,0.0,0.0,0.0,0.0,0.0,0.0,0.0,0.0,0.0,0.0,0.0,0.0,0.0,0.0,0.0,0.0,0.0,0.0,0.0,0.0,0.0,0.0,0.0,0.0,0.0,0.0,0.0,0.0,0.0,0.0,0.0,0.0,0.0,0.0,0.0,0.0,0.0,0.0,0.0,0.0,0.0,0.0,0.0,0.0,0.0,0.0,0.0,0.0,0.0,0.0,0.0,0.0,0.0,0.0,0.0,0.0,0.0,0.0,-1.885,-2.0167,-2.0966,-2.0941,-2.0087,-1.8982,-1.7423,0.0,0.0,0.0,0.0,0.0,0.0,0.0,0.0,0.0,0.0,0.0,0.0,0.0,0.0,0.0,0.0,0.0,0.0,0.0,0.0,0.0,0.0,0.0,0.0,0.0,0.0,0.0,0.0,0.0,0.0,0.0,0.0,0.0,0.0,0.0,0.0,0.0,0.0,0.0,0.0,0.0,0.0,0.0,0.0,0.0,0.0,0.0,0.0,0.0,0.0,0.0,0.0,0.0,0.0,0.0,0.0,0.0,0.0,0.0,0.0,0.0,0.0,0.0,0.0,0.0,0.0,0.0,0.0,0.0,0.0,0.0,0.0,0.0,0.0,0.0,0.0,0.0,0.0,0.0,0.0,0.0,0.0,0.0,0.0,0.0,0.0,0.0,0.0,0.0,0.0,0.0,0.0,0.0,0.0,0.0,0.0,0.0,0.0,0.0,0.0,0.0,0.0,0.0,0.0,0.0,0.0,0.0,0.0,-1.9486,-2.0742,-2.182,-2.2133,-2.1568,-2.0426,-1.8581,0.0,0.0,0.0,0.0,0.0,0.0,0.0,0.0,0.0,0.0,0.0,0.0,0.0,0.0,0.0,0.0,0.0,0.0,0.0,0.0,0.0,0.0,0.0,0.0,0.0,0.0,0.0,0.0,0.0,0.0,0.0,0.0,0.0,0.0,0.0,0.0,0.0,0.0,0.0,0.0,0.0,0.0,0.0,0.0,0.0,0.0,0.0,0.0,0.0,0.0,0.0,0.0,0.0,0.0,0.0,0.0,0.0,0.0,0.0,0.0,0.0,0.0,0.0,0.0,0.0,0.0,0.0,0.0,0.0,0.0,0.0,0.0,0.0,0.0,0.0,0.0,0.0,0.0,0.0,0.0,0.0,0.0,0.0,0.0,0.0,0.0,0.0,0.0,0.0,0.0,0.0,0.0,0.0,0.0,0.0,0.0,0.0,0.0,0.0,0.0,0.0,0.0,0.0,0.0,0.0,0.0,0.0,0.0,-2.0039,-2.1307,-2.2385,-2.2669,-2.2146,-2.0627,-1.892,0.0,0.0,0.0,0.0,0.0,0.0,0.0,0.0,0.0,0.0,0.0,0.0,0.0,0.0,0.0,0.0,0.0,0.0,0.0,0.0,0.0,0.0,0.0,0.0,0.0,0.0,0.0,0.0,0.0,0.0,0.0,0.0,0.0,0.0,0.0,0.0,0.0,0.0,0.0,0.0,0.0,0.0,0.0,0.0,0.0,0.0,0.0,0.0,-0.6133,0.0,0.0,0.0,0.0,0.0,0.0,0.0,0.0,0.0,0.0,0.0,0.0,0.0,0.0,0.0,0.0,0.0,0.0,0.0,0.0,0.0,0.0,0.0,0.0,0.0,0.0,0.0,0.0,0.0,0.0,0.0,0.0,0.0,0.0,0.0,0.0,0.0,0.0,0.0,0.0,0.0,0.0,0.0,0.0,0.0,0.0,0.0,0.0,0.0,0.0,0.0,0.0,0.0,0.0,0.0,0.0,0.0,0.0,0.0,-2.0804,-2.2209,-2.2794,-2.3095,-2.305,-2.1217,-1.9447,0.0,0.0,0.0,0.0,0.0,0.0,0.0,0.0,0.0,0.0,0.0,0.0,0.0,0.0,0.0,0.0,0.0,0.0,0.0,0.0,0.0,0.0,0.0,0.0,0.0,0.0,0.0,0.0,0.0,0.0,0.0,0.0,0.0,0.0,0.0,0.0,0.0,0.0,0.0,0.0,0.0,0.0,0.0,0.0,0.0,0.0,0.0,0.0,0.0,0.0,0.0,0.0,0.0,0.0,0.0,0.0,0.0,0.0,0.0,0.0,0.0,0.0,0.0,0.0,0.0,0.0,0.0,0.0,0.0,0.0,0.0,0.0,0.0,0.0,0.0,0.0,0.0,0.0,0.0,0.0,0.0,0.0,0.0,0.0,0.0,0.0,0.0,0.0,0.0,0.0,0.0,0.0,0.0,0.0,0.0,0.0,0.0,0.0,0.0,0.0,0.0,0.0,0.0,0.0,0.0,0.0,0.0,-1.9623,-2.1506,-2.3145,-2.3233,-2.3502,-2.3954,-2.1948,-2.0088,-1.8505,0.0,0.0,0.0,0.0,0.0,0.0,0.0,0.0,0.0,0.0,0.0,0.0,0.0,0.0,0.0,0.0,0.0,0.0,0.0,0.0,0.0,0.0,0.0,0.0,0.0,0.0,0.0,0.0,0.0,0.0,0.0,0.0,0.0,0.0,0.0,0.0,0.0,0.0,-0.6947,-0.7664,0.0,0.0,0.0,0.0,0.0,0.0,0.0,0.0,-0.7187,0.0,0.0,0.0,0.0,0.0,0.0,0.0,0.0,0.0,0.0,0.0,0.0,0.0,0.0,0.0,0.0,0.0,0.0,0.0,0.0,0.0,0.0,0.0,0.0,0.0,0.0,0.0,0.0,0.0,0.0,0.0,0.0,0.0,0.0,0.0,0.0,0.0,0.0,0.0,0.0,0.0,0.0,0.0,0.0,0.0,0.0,0.0,0.0,0.0,0.0,0.0,0.0,0.0,0.0,0.0,0.0,-1.9874,-2.0423,-2.1735,-2.376,-2.3853,-2.3904,-2.3941,-2.2284,-2.0817,-1.951,0.0,0.0,0.0,0.0,0.0,0.0,0.0,0.0,0.0,0.0,0.0,0.0,0.0,0.0,0.0,0.0,0.0,0.0,0.0,0.0,0.0,0.0,0.0,0.0,0.0,0.0,0.0,0.0,0.0,0.0,0.0,0.0,0.0,0.0,0.0,0.0,0.0,0.0,0.0,-0.9798,-1.062,0.0,0.0,0.0,0.0,0.0,0.0,0.0,0.0,-0.7344,0.0,0.0,0.0,0.0,0.0,0.0,0.0,0.0,0.0,0.0,0.0,0.0,0.0,0.0,0.0,0.0,0.0,0.0,0.0,0.0,0.0,0.0,0.0,0.0,0.0,0.0,0.0,0.0,0.0,0.0,0.0,0.0,0.0,0.0,0.0,0.0,0.0,0.0,0.0,0.0,0.0,0.0,0.0,0.0,0.0,0.0,0.0,0.0,0.0,0.0,0.0,0.0,0.0,0.0,0.0,-1.962,-2.0911,-2.246,-2.433,-2.4142,-2.413,-2.4368,-2.2234,-2.0691,0.0,0.0,0.0,0.0,0.0,0.0,0.0,0.0,0.0,0.0,0.0,0.0,0.0,0.0,0.0,0.0,0.0,0.0,0.0,0.0,0.0,0.0,0.0,0.0,0.0,0.0,0.0,0.0,0.0,0.0,0.0,0.0,0.0,0.0,0.0,0.0,0.0,0.0,0.0,0.0,-1.0284,-1.0714,-1.0311,0.0,0.0,0.0,0.0,0.0,0.0,-0.811,-0.7622,0.0,0.0,0.0,0.0,0.0,0.0,0.0,0.0,0.0,0.0,0.0,0.0,0.0,0.0,0.0,0.0,0.0,0.0,0.0,0.0,0.0,0.0,0.0,0.0,0.0,0.0,0.0,0.0,0.0,0.0,0.0,0.0,0.0,0.0,0.0,0.0,0.0,0.0,0.0,0.0,0.0,0.0,0.0,0.0,0.0,0.0,0.0,0.0,0.0,0.0,0.0,0.0,0.0,0.0,0.0,-1.9118,-2.1219,-2.3095,-2.4687,-2.4393,-2.4368,-2.4713,-2.2221,-2.0541,0.0,0.0,0.0,0.0,0.0,0.0,0.0,0.0,0.0,0.0,0.0,0.0,0.0,0.0,0.0,0.0,0.0,0.0,0.0,0.0,0.0,0.0,0.0,0.0,0.0,0.0,0.0,0.0,0.0,0.0,0.0,0.0,0.0,0.0,0.0,0.0,0.0,0.0,0.0,0.0,0.0,-1.0733,-1.0469,-1.0478,0.0,0.0,0.0,0.0,-0.9825,-0.8999,0.0,0.0,0.0,0.0,0.0,0.0,0.0,0.0,0.0,0.0,0.0,0.0,0.0,0.0,0.0,0.0,0.0,0.0,0.0,0.0,0.0,0.0,0.0,0.0,0.0,0.0,0.0,0.0,0.0,0.0,0.0,0.0,0.0,0.0,0.0,0.0,0.0,0.0,0.0,0.0,0.0,0.0,0.0,0.0,0.0,0.0,0.0,0.0,0.0,0.0,0.0,0.0,0.0,0.0,0.0,0.0,-1.9492,-2.1371,-2.3125,-2.4687,-2.4725,-2.4725,-2.4763,-2.2585,-2.0891,0.0,0.0,0.0,0.0,0.0,0.0,0.0,0.0,0.0,0.0,0.0,0.0,0.0,0.0,0.0,0.0,0.0,0.0,0.0,0.0,0.0,0.0,0.0,0.0,0.0,0.0,0.0,0.0,0.0,0.0,0.0,0.0,0.0,0.0,0.0,0.0,0.0,0.0,0.0,0.0,0.0,-1.2181,-1.0975,-1.1183,-1.1261,0.0,0.0,-1.0683,-1.0741,-1.0615,0.0,0.0,0.0,0.0,0.0,0.0,0.0,0.0,0.0,0.0,0.0,0.0,0.0,0.0,0.0,0.0,0.0,0.0,0.0,0.0,0.0,0.0,0.0,0.0,0.0,0.0,0.0,0.0,0.0,0.0,0.0,0.0,0.0,0.0,0.0,0.0,0.0,0.0,0.0,0.0,0.0,0.0,0.0,0.0,0.0,0.0,0.0,0.0,0.0,0.0,0.0,0.0,0.0,0.0,0.0,-1.7491,-2.0169,-2.2248,-2.3904,-2.5197,-2.5259,-2.5089,-2.4788,-2.2661,-2.0815,0.0,0.0,0.0,0.0,0.0,0.0,0.0,0.0,0.0,0.0,0.0,0.0,0.0,0.0,0.0,0.0,0.0,0.0,0.0,0.0,0.0,0.0,0.0,0.0,0.0,0.0,0.0,0.0,0.0,0.0,0.0,0.0,0.0,0.0,0.0,0.0,0.0,0.0,0.0,0.0,0.0,0.0,-1.1677,-1.1816,0.0,0.0,0.0,-1.1572,-1.1318,0.0,0.0,0.0,0.0,0.0,0.0,0.0,0.0,0.0,0.0,0.0,0.0,0.0,0.0,0.0,0.0,0.0,0.0,0.0,0.0,0.0,0.0,0.0,0.0,0.0,0.0,0.0,0.0,0.0,0.0,0.0,0.0,0.0,0.0,0.0,0.0,0.0,0.0,0.0,0.0,0.0,0.0,0.0,0.0,0.0,0.0,0.0,0.0,0.0,0.0,0.0,0.0,0.0,0.0,0.0,0.0,0.0,-2.0654,-2.2874,-2.4519,-2.5548,-2.5586,-2.5347,-2.4775,-2.2786,0.0,0.0,0.0,0.0,0.0,0.0,0.0,0.0,0.0,0.0,0.0,0.0,0.0,0.0,0.0,0.0,0.0,0.0,0.0,0.0,0.0,0.0,0.0,0.0,0.0,0.0,0.0,-0.5919,0.0,0.0,0.0,0.0,0.0,0.0,0.0,0.0,0.0,0.0,0.0,0.0,0.0,0.0,-1.2034,-1.2344,-1.2467,-1.2471,0.0,0.0,-1.2418,-1.2113,-1.18,-1.1191,0.0,0.0,0.0,0.0,0.0,0.0,0.0,0.0,0.0,0.0,0.0,0.0,0.0,0.0,0.0,0.0,0.0,0.0,0.0,0.0,0.0,0.0,0.0,0.0,0.0,0.0,0.0,0.0,0.0,0.0,0.0,0.0,0.0,0.0,0.0,0.0,0.0,0.0,0.0,0.0,0.0,0.0,0.0,0.0,0.0,0.0,0.0,0.0,0.0,0.0,0.0,0.0,0.0,0.0,0.0,-2.0654,-2.2891,-2.4519,-2.5548,-2.5586,-2.5347,-2.4775,-2.3163,-2.1214,0.0,0.0,0.0,0.0,0.0,0.0,0.0,0.0,0.0,0.0,0.0,0.0,0.0,0.0,0.0,0.0,0.0,0.0,0.0,0.0,0.0,0.0,0.0,0.0,0.0,0.0,0.0,0.0,0.0,0.0,0.0,0.0,0.0,0.0,0.0,0.0,0.0,0.0,0.0,0.0,0.0,-1.2827,-1.2856,-1.3174,-1.3519,0.0,0.0,-1.3398,-1.3379,-1.3315,-1.2764,-1.1063,0.0,0.0,0.0,0.0,0.0,0.0,0.0,0.0,0.0,0.0,0.0,0.0,0.0,0.0,0.0,0.0,0.0,0.0,0.0,0.0,0.0,0.0,0.0,0.0,0.0,0.0,0.0,0.0,0.0,0.0,0.0,0.0,0.0,0.0,0.0,0.0,0.0,0.0,0.0,0.0,0.0,0.0,0.0,0.0,0.0,0.0,0.0,0.0,0.0,0.0,0.0,0.0,0.0,-1.8417,-2.1169,-2.3376,-2.5034,-2.6097,-2.616,-2.5711,-2.4813,-2.3484,-2.1603,0.0,0.0,0.0,0.0,0.0,0.0,0.0,0.0,0.0,0.0,0.0,0.0,0.0,0.0,0.0,0.0,0.0,0.0,0.0,0.0,0.0,0.0,0.0,0.0,0.0,0.0,0.0,0.0,-0.7108,-0.6929,-0.6455,0.0,0.0,0.0,0.0,0.0,0.0,0.0,0.0,0.0,0.0,-1.2978,-1.3232,-1.3607,0.0,0.0,-1.4228,-1.4111,-1.3584,-1.348,-1.291,-1.1182,-1.0577,0.0,0.0,0.0,0.0,0.0,0.0,0.0,0.0,0.0,0.0,0.0,0.0,0.0,0.0,0.0,0.0,0.0,0.0,0.0,0.0,0.0,0.0,0.0,0.0,0.0,0.0,0.0,0.0,0.0,0.0,0.0,0.0,0.0,0.0,0.0,0.0,0.0,0.0,0.0,0.0,0.0,0.0,0.0,0.0,0.0,0.0,0.0,0.0,0.0,0.0,0.0,0.0,-1.8768,-2.1455,-2.369,-2.5347,-2.6474,-2.6487,-2.6047,-2.5071,-2.3948,-2.2142,0.0,0.0,0.0,0.0,0.0,0.0,0.0,0.0,0.0,0.0,0.0,0.0,0.0,0.0,0.0,0.0,0.0,0.0,0.0,0.0,0.0,0.0,0.0,0.0,0.0,0.0,0.0,0.0,-0.8168,-0.7667,-0.6774,0.0,0.0,0.0,0.0,0.0,0.0,0.0,0.0,0.0,0.0,-1.3271,-1.3818,-1.415,-1.4338,-1.4465,-1.4561,-1.4385,-1.3763,-1.3691,-1.3129,-1.1541,0.0,0.0,0.0,0.0,0.0,0.0,0.0,0.0,0.0,0.0,0.0,0.0,0.0,0.0,0.0,0.0,0.0,0.0,0.0,0.0,0.0,0.0,0.0,0.0,0.0,0.0,0.0,-1.6488,0.0,0.0,-1.5706,0.0,0.0,0.0,0.0,0.0,0.0,0.0,0.0,0.0,0.0,0.0,0.0,0.0,0.0,0.0,0.0,0.0,0.0,0.0,0.0,0.0,0.0,-1.8781,-2.1496,-2.3659,-2.536,-2.6449,-2.6487,-2.621,-2.5561,-2.4544,-2.2912,-2.0666,0.0,0.0,0.0,0.0,0.0,0.0,0.0,0.0,0.0,0.0,0.0,0.0,0.0,0.0,0.0,0.0,0.0,0.0,0.0,0.0,0.0,0.0,0.0,0.0,0.0,0.0,-1.0002,-0.9308,-0.8381,0.0,0.0,0.0,0.0,0.0,0.0,0.0,0.0,0.0,0.0,-1.2949,-1.3799,-1.4619,-1.4793,-1.4912,-1.5303,-1.466,-1.4124,-1.4104,-1.4094,-1.3656,0.0,0.0,0.0,0.0,0.0,0.0,0.0,0.0,0.0,0.0,0.0,0.0,0.0,0.0,0.0,0.0,0.0,0.0,0.0,0.0,0.0,0.0,0.0,0.0,0.0,0.0,0.0,-1.9409,-1.8694,0.0,0.0,0.0,0.0,0.0,0.0,0.0,0.0,0.0,0.0,0.0,-2.1227,-2.213,0.0,0.0,0.0,0.0,0.0,0.0,0.0,0.0,0.0,0.0,0.0,0.0,-1.9472,-2.1481,-2.369,-2.5347,-2.6449,-2.6487,-2.621,-2.5598,-2.4556,-2.2611,-1.966,0.0,0.0,0.0,0.0,0.0,0.0,0.0,0.0,0.0,0.0,0.0,0.0,0.0,0.0,0.0,0.0,0.0,0.0,0.0,0.0,0.0,0.0,0.0,0.0,0.0,-0.9666,0.0,0.0,0.0,0.0,0.0,0.0,0.0,0.0,0.0,0.0,0.0,-1.1883,-1.2577,-1.3643,-1.4463,-1.4756,-1.5019,-1.5254,0.0,0.0,0.0,0.0,0.0,0.0,0.0,0.0,0.0,0.0,0.0,0.0,0.0,0.0,-1.1843,-0.9453,-0.8887,-0.8877,-0.916,0.0,0.0,0.0,0.0,0.0,0.0,0.0,0.0,0.0,0.0,0.0,0.0,0.0,0.0,-2.1958,0.0,-2.1026,0.0,0.0,0.0,0.0,0.0,0.0,0.0,0.0,-2.2648,-2.3602,-2.3778,-2.4506,-2.4368,0.0,-2.3113,-2.1343,0.0,0.0,0.0,0.0,0.0,0.0,0.0,0.0,-2.0112,-2.1782,-2.3966,-2.5536,-2.6436,-2.6487,-2.6311,-2.5921,-2.4657,-2.2711,-1.9974,-1.8418,-1.7039,0.0,0.0,0.0,0.0,0.0,0.0,0.0,0.0,0.0,0.0,0.0,0.0,0.0,0.0,0.0,0.0,0.0,0.0,0.0,0.0,0.0,0.0,0.0,-1.0633,0.0,0.0,0.0,0.0,0.0,0.0,0.0,0.0,0.0,-1.0931,-1.1867,-1.2806,-1.3655,-1.4355,-1.4921,-1.5214,0.0,0.0,0.0,0.0,0.0,0.0,0.0,-1.4658,-1.4211,-1.4072,-1.3864,-1.3389,-1.3662,-1.3857,-1.3555,0.0,0.0,-1.117,-1.0674,-1.0634,-1.0907,-1.0956,-1.1044,-1.1338,-1.1535,-1.1621,0.0,0.0,0.0,0.0,0.0,0.0,0.0,0.0,-2.423,-2.4205,0.0,-2.3496,0.0,0.0,0.0,0.0,0.0,-2.2661,0.0,0.0,-2.6189,-2.7005,-2.6562,-2.6587,-2.6298,-2.582,-2.6763,-2.5812,-2.3058,-1.9484,0.0,0.0,0.0,0.0,0.0,0.0,-2.0702,-2.2372,-2.4494,-2.5908,-2.6461,-2.6487,-2.6474,-2.6411,-2.4858,-2.3251,-2.1606,-2.0426,-1.8606,-1.5982,-1.5731,0.0,0.0,0.0,0.0,0.0,0.0,0.0,0.0,0.0,0.0,0.0,0.0,0.0,0.0,0.0,0.0,0.0,0.0,0.0,0.0,-1.1748,0.0,0.0,0.0,0.0,0.0,0.0,0.0,0.0,0.0,0.0,-1.2586,-1.2791,-1.357,-1.5166,0.0,0.0,0.0,0.0,-1.5605,-1.6056,-1.5732,-1.5615,-1.6046,-1.6085,-1.5908,-1.5508,0.0,0.0,-1.4406,-1.457,-1.46,-1.3779,-1.3987,-1.4172,-1.4124,-1.3646,-1.3383,-1.3428,-1.3379,-1.3461,-1.3525,-1.3623,-1.3909,-2.9277,0.0,0.0,0.0,0.0,-2.6201,-2.7105,-2.8699,-2.8298,-2.7682,-2.6892,-2.6352,0.0,0.0,0.0,0.0,0.0,0.0,-2.4632,-2.582,-2.6851,-2.7607,-2.8235,-2.8649,-2.8536,-2.7947,-2.7908,-2.7055,-2.5519,-2.3979,-2.1217,-1.735,0.0,0.0,0.0,0.0,-2.2234,-2.3514,-2.4895,-2.5908,-2.6474,-2.6487,-2.6298,-2.585,-2.5034,-2.3979,-2.2669,-2.1594,-2.0275,-1.8694,-1.7124,0.0,0.0,0.0,0.0,0.0,0.0,0.0,0.0,0.0,0.0,0.0,0.0,0.0,0.0,0.0,0.0,0.0,0.0,0.0,-1.1786,-1.22,-1.2325,0.0,0.0,0.0,0.0,0.0,0.0,0.0,0.0,0.0,-1.61,-1.5358,-1.4911,0.0,0.0,-1.6152,-1.6105,-1.623,-1.6365,-1.6523,-1.6404,0.0,-1.6523,-1.63,-1.6153,-1.6318,-1.6434,-1.6406,-1.6024,-1.6063,-1.6063,-1.58,-1.5654,-1.5537,-1.5459,-1.4648,-1.3987,-1.3938,-1.3929,-1.3929,-1.3938,-1.4036,-1.4114,-3.3382,-3.0444,-2.9051,-2.8925,-2.9704,-2.9628,-3.047,-3.1876,-3.1336,-3.0721,-3.003,-2.9252,-2.7821,-2.59,-2.4908,0.0,0.0,0.0,-2.6728,-2.8158,-2.8662,-2.9151,-2.9603,-2.9955,-2.9817,-2.9226,-2.8925,-2.831,-2.7431,-2.7092,-2.4971,-2.1255,0.0,0.0,-2.0224,-2.223,-2.3753,-2.4632,-2.5711,-2.6327,-2.6487,-2.6487,-2.6336,-2.5971,-2.541,-2.4675,-2.3797,-2.2706,-2.1619,-2.0501,-1.8744,-1.7024,0.0,0.0,0.0,0.0,0.0,0.0,0.0,0.0,0.0,0.0,0.0,-0.8451,-0.7385,0.0,0.0,0.0,-1.0444,-1.1814,-1.3257,-1.3396,0.0,0.0,0.0,0.0,0.0,0.0,0.0,-1.6178,-1.6917,-1.7621,-1.8278,-1.7435,-1.6731,-1.6668,-1.6681,-1.6689,-1.6633,0.0,-1.6765,-1.6963,-1.696,-1.7019,-1.7174,-1.7012,-1.6934,-1.7187,-1.7204,-1.7135,-1.7012,-1.7002,-1.6924,-1.6716,-1.6514,-1.6328,-1.6359,-1.5674,-1.5001,-1.4689,-1.4611,-1.4611,-1.4611,-1.4621,-1.4611,-3.6697,-3.547,-3.298,-3.2114,-3.2466,-3.298,-3.3495,-3.3909,-3.342,-3.3206,-3.3162,-3.2014,-3.0633,-2.9001,-2.7532,0.0,-2.7657,-2.8662,-2.9654,-3.0696,-3.1173,-3.1135,-3.0643,-3.0633,-3.0357,-2.9854,-2.9817,-2.9515,-2.8963,-2.8938,-2.7897,-2.5875,-2.4311,-2.3484,-2.3371,-2.4412,-2.5247,-2.5737,-2.6753,-2.7042,-2.6575,-2.6524,-2.6512,-2.6549,-2.5887,-2.5297,-2.482,-2.3697,-2.2623,-2.1531,-2.0451,-1.8656,-1.607,0.0,0.0,0.0,0.0,0.0,0.0,0.0,0.0,0.0,0.0,0.0,0.0,0.0,0.0,0.0,-1.2484,0.0,-1.4934,-1.5022,0.0,0.0,0.0,-1.5205,-1.5273,-1.6694,-1.7641,-1.7569,0.0,0.0,-1.9625,-1.9199,-1.8956,-1.8977,-1.7742,-1.6973,-1.7324,-1.707,-1.6982,-1.7537,-1.7497,-1.7602,-1.802,-1.7968,-1.79,-1.792,-1.8008,-1.7832,-1.751,-1.7465,-1.7266,-1.6931,-1.6785,-1.6755,-1.6755,-1.6658,-1.6443,-1.5615,-1.5518,-1.5498,-1.5439,-1.54,-1.541,-3.8052,-3.7362,-3.6709,-3.5542,-3.4148,-3.4274,-3.4412,-3.4525,-3.4387,-3.4324,-3.4248,-3.3169,-3.1989,-3.0783,-3.0394,-3.0294,-3.0432,-3.0683,-3.0947,-3.121,-3.1323,-3.1323,-3.1185,-3.0809,-3.0545,-3.0394,-2.9993,-2.9729,-2.9591,-2.9591,-2.9089,-2.8135,-2.7709,-2.6669,-2.5109,-2.6138,-2.6766,-2.6914,-2.7143,-2.7253,-2.7115,-2.6713,-2.67,-2.7102,-2.5737,-2.4946,-2.4775,-2.3697,-2.2594,-2.1543,-2.0855,-1.9623,-1.7689,-1.5889,0.0,0.0,0.0,0.0,0.0,0.0,0.0,0.0,0.0,-1.1585,-0.9667,0.0,-1.3456,0.0,-1.477,-1.5823,-1.6095,-1.6111,0.0,0.0,-1.7589,-1.7739,-1.8543,-1.9397,-1.991,-1.9893,-2.0921,-2.1803,-2.2156,-2.1917,-2.1878,-2.2182,-1.9644,-1.7637,-1.7432,-1.7588,-1.7968,-1.8614,-1.8322,-1.816,-1.8744,-1.8428,-1.8008,-1.8008,-1.8008,-1.7978,-1.7871,-1.7861,-1.7822,-1.7705,-1.7432,-1.7256,-1.7236,-1.6941,-1.6668,-1.6434,-1.6385,-1.6309,-1.6016,-1.5938,-1.584,-3.8919,-3.8391,-3.8391,-3.7525,-3.6169,-3.5918,-3.5818,-3.578,-3.5257,-3.5044,-3.4994,-3.4186,-3.3319,-3.2503,-3.2252,-3.2139,-3.2127,-3.1876,-3.1888,-3.2139,-3.2139,-3.2001,-3.175,-3.1461,-3.1198,-3.0947,-3.0419,-3.0156,-3.0143,-2.9917,-2.9628,-2.9315,-2.9315,-2.8699,-2.7532,-2.7833,-2.8021,-2.8009,-2.7532,-2.7329,-2.7316,-2.6776,-2.6637,-2.6901,-2.5787,-2.4933,-2.4469,-2.3572,-2.2706,-2.1895,-2.1131,-2.0063,-1.8643,-1.7174,-1.5881,0.0,0.0,0.0,0.0,0.0,0.0,0.0,0.0,0.0,0.0,0.0,-1.4765,-1.5512,-1.6597,-1.7463,-1.794,-1.8204,-1.8643,-1.9284,-1.9547,-1.9798,-2.0162,-2.1129,-2.1769,-2.1769,-2.2749,-2.3521,-2.3791,-2.3401,-2.3168,-2.3466,-2.1385,-1.9789,-1.959,-1.9727,-1.9918,-1.9952,-1.9552,-1.9101,-1.909,-1.8456,-1.8008,-1.8008,-1.8008,-1.8008,-1.8008,-1.8008,-1.8008,-1.7988,-1.7822,-1.7666,-1.7656,-1.748,-1.7305,-1.7295,-1.7295,-1.7061,-1.6494,-1.6367,-1.6269,-3.9484,-3.9032,-3.8981,-3.8693,-3.8165,-3.7638,-3.7362,-3.7224,-3.6194,-3.5621,-3.547,-3.4994,-3.448,-3.3972,-3.3508,-3.3282,-3.3244,-3.2679,-3.2704,-3.3169,-3.3149,-3.2805,-3.2328,-3.2252,-3.1964,-3.1486,-3.0959,-3.0683,-3.0595,-3.0131,-2.9854,-2.9792,-2.9779,-2.9779,-2.9767,-2.9289,-2.8925,-2.8775,-2.7795,-2.7318,-2.7381,-2.6952,-2.67,-2.6675,-2.5975,-2.5096,-2.4042,-2.3409,-2.2819,-2.2221,-2.1355,-2.0402,-1.9271,-1.8619,-1.7589,0.0,-1.5844,0.0,0.0,0.0,0.0,0.0,0.0,0.0,0.0,-1.5205,-1.6216,-1.7586,-1.8329,-1.9083,-1.9936,-2.0629,-2.0842,-2.0426,-2.1217,-2.1659,-2.1345,-2.2472,-2.3321,-2.3321,-2.4186,-2.4833,-2.4818,-2.423,-2.3787,-2.3908,-2.3369,-2.2754,-2.2708,-2.2332,-2.1774,-2.1177,-2.1026,-2.0387,-1.9203,-1.8459,-1.8086,-1.8037,-1.8008,-1.8008,-1.8008,-1.8008,-1.8008,-1.8008,-1.7998,-1.7988,-1.8008,-1.7988,-1.7988,-1.7949,-1.7939,-1.7695,-1.6999,-1.6785,-1.6765,-4.0036,-3.9546,-3.9534,-3.9471,-3.9333,-3.8781,-3.8291,-3.7801,-3.7149,-3.637,-3.5508,-3.5395,-3.5031,-3.4575,-3.4449,-3.4399,-3.4387,-3.3834,-3.3633,-3.3721,-3.3294,-3.3061,-3.2893,-3.2441,-3.2164,-3.2026,-3.1512,-3.1022,-3.062,-3.052,-3.0231,-2.9792,-2.9779,-2.9779,-2.9779,0.0,0.0,0.0,-2.7607,-2.7494,-2.7921,-2.7846,-2.7795,-2.7758,-2.6364,0.0,-2.4054,-2.3409,-2.2644,-2.1719,-2.187,0.0,0.0,0.0,0.0,0.0,0.0,0.0,0.0,0.0,0.0,0.0,-1.8681,-1.8041,-1.6945,-1.8504,-1.9522,-1.9397,-2.0677,-2.143,-2.1232,-2.2083,-2.2782,-2.3175,-2.3389,-2.3653,-2.396,-2.4286,-2.4462,-2.4474,-2.4662,-2.4963,-2.5352,-2.527,-2.5377,-2.5716,-2.5785,-2.5716,-2.5598,-2.3685,-2.2514,-2.2774,-2.2286,-2.1306,-2.002,-1.9088,-1.8478,-1.8091,-1.8008,-1.8018,-1.8027,-1.8018,-1.8008,-1.8008,-1.8008,-1.8008,-1.8008,-1.8008,-1.8008,-1.8008,-1.8008,-1.7861,-1.7373,-1.7256,-1.7158,-4.0601,0.0,-4.0099,-3.9948,0.0,-3.9396,-3.912,-3.8781,-3.7952,-3.7123,-3.6345,-3.6069,-3.5793,-3.5529,-3.524,-3.5082,-3.5056,-3.455,-3.4161,-3.3897,-3.3608,-3.3332,-3.3111,-3.278,-3.2629,-3.2616,-3.2064,-3.1662,-3.1386,-3.0871,-3.047,-3.0193,-2.993,-2.9779,-2.9779,-2.9515,-2.9089,-2.8474,-2.8235,-2.8235,-2.8449,-2.8247,-2.7984,-2.7682,-2.6615,0.0,0.0,0.0,0.0,0.0,0.0,0.0,0.0,0.0,0.0,-1.9849,-1.9798,-1.9635,-1.9409,-2.0136,-2.0752,-2.1029,-2.1556,-2.1167,-1.956,-2.069,-2.1594,-2.187,-2.2661,-2.3138,-2.3163,-2.3609,-2.4048,-2.4356,-2.4406,-2.4487,-2.4763,-2.5059,-2.5209,-2.5247,-2.546,-2.5737,-2.6009,-2.6047,-2.6172,-2.6436,-2.6487,-2.6487,-2.638,-2.5316,-2.4379,-2.423,-2.319,-2.2059,-2.0952,-2.0172,-1.9409,-1.8838,-1.8457,-1.834,-1.832,-1.8144,-1.8008,-1.8008,-1.8008,-1.8008,-1.8008,-1.8008,-1.8008,-1.8008,-1.8008,-1.7959,-1.7725,-1.7695,-1.7637,-4.1112,-4.0664,-4.0551,-4.0262,-3.9835,-3.9735,-3.9697,-3.9622,0.0,0.0,0.0,-3.6795,-3.6543,-3.6505,-3.5931,-3.5646,-3.5608,-3.5069,-3.458,-3.4186,-3.4085,-3.3746,-3.3275,-3.3219,-3.3212,-3.3099,-3.2591,-3.2315,-3.2177,-3.1323,-3.0796,-3.0595,-3.0168,-2.9892,-2.9767,-2.9327,-2.9038,-2.9038,-2.895,-2.8888,-2.8888,-2.8574,-2.8134,-2.7582,-2.7065,-2.6059,-2.4494,-2.3879,-2.3283,-2.2786,-2.2322,-2.2033,-2.1986,-2.2359,-2.256,-2.2456,-2.2857,-2.2957,-2.2648,-2.3007,-2.3108,-2.2786,-2.3791,-2.3728,-2.2058,-2.2435,-2.3138,-2.4067,-2.423,-2.4469,-2.4908,-2.5026,-2.5109,-2.5109,-2.5109,-2.5109,-2.5146,-2.5473,-2.5749,-2.5799,-2.6172,-2.6487,-2.6461,-2.6461,-2.6487,-2.6487,-2.6487,-2.6487,-2.6487,-2.6368,-2.5983,-2.5308,-2.4214,-2.3005,-2.2124,-2.1482,-2.0824,-2.0063,-1.9566,-1.9234,-1.9164,-1.8968,-1.8737,-1.8816,-1.8514,-1.8393,-1.8255,-1.8144,-1.8008,-1.8008,-1.8008,-1.8008,-1.8008,-1.8008,-1.7978,-4.1718,-4.1125,-4.0714,-4.0463,-4.0362,-3.9885,-3.9697,-3.9647,-3.9019,-3.8429,-3.7864,-3.7312,-3.7061,-3.7036,-3.6543,-3.6292,-3.6207,-3.5633,-3.5345,-3.5245,-3.4781,-3.4311,-3.3796,-3.3784,-3.3533,-3.3093,-3.2993,-3.2692,-3.224,-3.2051,-3.1537,-3.0708,-3.0532,-3.0269,-2.9817,-2.9716,-2.9679,-2.9654,-2.9189,-2.8888,-2.8888,-2.934,-2.9289,-2.8712,-2.8147,-2.7331,-2.6185,-2.5536,-2.5008,-2.4506,-2.4362,-2.413,-2.369,-2.374,-2.3509,-2.3032,-2.307,-2.3271,-2.374,-2.3841,-2.4054,-2.4481,-2.5485,-2.5456,-2.3841,-2.4155,-2.4512,-2.4732,-2.5126,-2.5398,-2.5511,-2.5984,-2.626,-2.626,-2.626,-2.6273,-2.626,-2.6336,-2.6424,-2.6424,-2.6424,-2.6524,-2.6587,-2.6549,-2.6537,-2.6512,-2.6512,-2.6487,-2.6487,-2.6487,-2.6452,-2.6198,-2.5392,-2.4555,-2.3805,-2.3141,-2.2375,-2.1872,-2.1587,-2.1292,-2.1188,-2.1069,-2.0908,-2.0852,-2.0033,-1.9557,-1.9111,-1.8462,-1.812,-1.8027,-1.8008,-1.8008,-1.8008,-1.8008,-1.8008,-4.2283,-4.1781,-4.1517,-4.1053,-4.0475,-3.9923,-3.9697,-3.9672,-3.9433,-3.8994,-3.8442,-3.7877,-3.7462,-3.7174,-3.6971,-3.6646,-3.6405,-3.6107,-3.583,-3.5483,-3.5232,-3.4876,-3.4349,-3.4048,-3.3771,-3.3508,-3.325,-3.2943,-3.2667,-3.2378,-3.1964,-3.1461,-3.0922,-3.0482,-3.0244,-2.9942,-2.9779,-2.9779,-2.9528,-2.9364,-2.9402,-2.9654,-2.9515,-2.89,-2.8674,-2.8034,-2.6977,-2.6688,-2.6264,-2.5724,-2.5711,-2.5632,-2.5393,-2.5611,-2.5661,-2.5423,-2.5674,-2.595,-2.6201,-2.6226,-2.6327,-2.6603,-2.7055,-2.7042,-2.6302,-2.6452,-2.6603,-2.6581,-2.6829,-2.6954,-2.6954,-2.7193,-2.7356,-2.7379,-2.7356,-2.7356,-2.7356,-2.7344,-2.7356,-2.7354,-2.7128,-2.7052,-2.7354,-2.7128,-2.6952,-2.6927,-2.6713,-2.6499,-2.6487,-2.6487,-2.6487,-2.6452,-2.6082,-2.5496,-2.4811,-2.4343,-2.353,-2.2327,-2.1908,-2.1553,-2.1117,-2.0883,-2.061,-2.0317,-1.9914,-1.9494,-1.9031,-1.8641,-1.8296,-1.8037,-1.8008,-1.8008,-1.8008,-1.8008,-1.8008,-4.2723,-4.2401,-4.2263,-4.153,-4.0488,-4.0061,-3.981,-3.9697,-3.9697,-3.9459,-3.9007,-3.8454,-3.7965,-3.7563,-3.7312,-3.6996,-3.6619,-3.6455,-3.6132,-3.5708,-3.5683,-3.5441,-3.4868,-3.4462,-3.4148,-3.3884,-3.3458,-3.3206,-3.3031,-3.2616,-3.2328,-3.2127,-3.126,-3.0733,-3.0568,-3.0193,-2.9917,-2.9792,-2.9779,-2.9779,-2.9779,-2.9779,-2.9578,-2.9176,-2.9126,-2.8725,-2.7896,-2.772,-2.7457,-2.7055,-2.6939,-2.6864,-2.6889,-2.7231,-2.7469,-2.7542,-2.7871,-2.8109,-2.8109,-2.8109,-2.8109,-2.8109,-2.8222,-2.8285,-2.8298,-2.8411,-2.836,-2.816,-2.8034,-2.8059,-2.8021,-2.8059,-2.8109,-2.8109,-2.8109,-2.8059,-2.8097,-2.8109,-2.8109,-2.8059,-2.772,-2.7632,-2.7883,-2.762,-2.7218,-2.704,-2.6751,-2.6512,-2.6487,-2.6487,-2.6487,-2.6487,-2.6487,-2.6198,-2.5441,-2.5346,-2.4696,-2.3161,-2.29,-2.252,-2.1743,-2.0954,-2.0462,-2.0499,-2.0024,-1.9771,-1.9242,-1.8886,-1.8648,-1.8311,-1.8169,-1.8144,-1.8027,-1.8008,-1.8008,-4.2949,-4.2823,-4.2426,-4.1517,-4.0588,-4.0463,-4.0149,-3.9735,-3.9697,-3.9672,-3.9534,-3.9044,-3.8755,-3.858,-3.7712,-3.7199,-3.7073,-3.6631,-3.6392,-3.6342,-3.6342,-3.6006,-3.5445,-3.5357,-3.4864,-3.4035,-3.3847,-3.3545,-3.3174,-3.3018,-3.2717,-3.2202,-3.1612,-3.1097,-3.0683,-3.057,-3.0306,-2.9804,-2.9779,-2.9779,-2.9779,-2.9779,-2.9767,-2.9729,-2.9704,-2.9679,-2.944,-2.9063,-2.8712,-2.8624,-2.821,-2.7946,-2.7959,-2.8009,-2.8047,-2.8034,-2.8097,-2.8109,-2.8134,-2.8109,-2.816,-2.8147,-2.8562,-2.8813,-2.8838,-2.9327,-2.9176,-2.8436,-2.8147,-2.8197,-2.8122,-2.8172,-2.8222,-2.8273,-2.8222,-2.8109,-2.8185,-2.8109,-2.8109,-2.8109,-2.8084,-2.8059,-2.8084,-2.7657,-2.7118,-2.6788,-2.6612,-2.6487,-2.6487,-2.6487,-2.6487,-2.6487,-2.6487,-2.6452,-2.628,-2.6349,-2.5978,-2.5779,-2.5906,-2.5003,-2.3996,-2.3697,-2.3963,-2.1455,-2.1402,-2.0736,-2.0226,-1.9838,-1.9072,-1.8666,-1.85,-1.8422,-1.8135,-1.8008,-1.8018,-4.2986,-4.2961,-4.2791,-4.2263,-4.1455,-4.0802,-4.0388,-4.0162,-3.9835,-3.9697,-3.9672,-3.9459,-3.917,-3.8906,-3.8429,-3.8002,-3.7638,-3.7147,-3.6847,-3.6857,-3.6556,-3.6292,-3.6019,-3.5646,-3.5232,-3.4826,-3.4223,-3.3784,-3.3545,-3.3244,-3.2943,-3.2692,-3.2164,-3.1763,-3.1549,-3.1235,-3.0809,-3.0294,-3.0281,-3.0131,-2.9829,-2.9779,-2.9779,-2.9779,-2.9779,-2.9779,-2.9767,-2.9553,-2.944,-2.9428,-2.9214,-2.9101,-2.9101,-2.9114,-2.9101,-2.9101,-2.9101,-2.9114,-2.9114,-2.9101,-2.9101,-2.9101,-2.9302,-2.944,-2.9453,-2.9666,-2.9578,-2.9214,-2.9101,-2.9101,-2.9089,-2.9101,-2.9101,-2.9101,-2.9101,-2.9089,-2.9101,-2.9089,-2.9101,-2.9063,-2.8511,-2.8247,-2.8349,-2.7821,-2.7243,-2.6964,-2.6738,-2.6499,-2.6487,-2.6487,-2.6487,-2.6487,-2.6487,-2.6487,-2.6487,-2.6487,-2.628,-2.5804,-2.5616,-2.5182,-2.377,-2.3257,-2.2763,-2.169,-2.1268,-2.0805,-2.0199,-1.9999,-1.9521,-1.9141,-1.8705,-1.8529,-1.8364,-1.8174,-1.8047,-4.2986,-4.2986,-4.2986,-4.2715,-4.215,-4.1317,-4.0789,-4.0475,-4.0086,-3.9848,-3.9697,-3.9697,-3.9471,-3.9107,-3.8994,-3.863,-3.8203,-3.7663,-3.7324,-3.7161,-3.6807,-3.6556,-3.6367,-3.5981,-3.5633,-3.5395,-3.4751,-3.4198,-3.3909,-3.352,-3.3232,-3.3031,-3.2641,-3.2365,-3.2177,-3.1788,-3.1348,-3.0884,-3.0834,-3.062,-3.0281,-3.008,-2.9942,-2.9817,-2.9779,-2.9779,-2.9779,-2.9779,-2.9779,-2.9779,-2.9779,-2.9779,-2.9779,-2.9779,-2.9779,-2.9779,-2.9779,-2.9779,-2.9779,-2.9779,-2.9779,-2.9779,-2.9779,-2.9779,-2.9779,-2.9779,-2.9779,-2.9754,-2.9779,-2.9754,-2.9779,-2.9779,-2.9779,-2.9779,-2.9779,-2.9779,-2.9754,-2.9779,-2.9741,-2.9704,-2.8925,-2.831,-2.8335,-2.7758,-2.7218,-2.7014,-2.6725,-2.6487,-2.6487,-2.6487,-2.6487,-2.6487,-2.6487,-2.6487,-2.6487,-2.6487,-2.6094,-2.5769,-2.5558,-2.4921,-2.2914,-2.2515,-2.1849,-2.148,-2.0914,-2.0575,-2.0376,-2.0144,-1.9941,-1.9531,-1.9141,-1.8754,-1.8568,-1.8325,-1.8164,-4.2986,-4.2986,-4.2986,-4.2672,-4.22,-4.2125,-4.148,-4.0614,-4.0488,-4.0187,-3.976,-3.9697,-3.9685,-3.9597,-3.9132,-3.8868,-3.8755,-3.8241,-3.7726,-3.7312,-3.7161,-3.686,-3.643,-3.638,-3.6056,-3.5596,-3.5382,-3.4818,-3.3985,-3.3859,-3.3596,-3.3106,-3.3018,-3.2754,-3.2328,-3.2215,-3.1901,-3.1411,-3.1361,-3.1323,-3.1223,-3.0809,-3.0331,-2.9942,-2.9792,-2.9779,-2.9779,-2.9779,-2.9779,-2.9779,-2.9779,-2.9779,-2.9779,-2.9779,-2.9779,-2.9779,-2.9779,-2.9779,-2.9779,-2.9779,-2.9779,-2.9779,-2.9779,-2.9779,-2.9779,-2.9779,-2.9779,-2.9779,-2.9779,-2.9779,-2.9779,-2.9779,-2.9779,-2.9779,-2.9779,-2.9779,-2.9779,-2.9779,-2.9779,-2.9666,-2.9089,-2.8323,-2.7555,-2.7366,-2.7052,-2.6725,-2.6512,-2.6487,-2.6487,-2.6487,-2.6487,-2.6487,-2.6487,-2.6487,-2.6487,-2.6487,-2.6487,-2.6245,-2.5943,-2.5721,-2.4469,-2.3257,-2.2264,-2.1385,-2.1049,-2.0818,-2.0653,-2.0488,-2.0273,-1.9951,-1.9541,-1.9209,-1.8968,-1.8695,-1.8471,-4.2986,-4.2986,-4.2986,-4.2848,-4.2703,-4.2376,-4.1919,-4.1505,-4.0802,-4.0413,-4.0174,-3.986,-3.9697,-3.9697,-3.9496,-3.9396,-3.9333,-3.8806,-3.8442,-3.8178,-3.7538,-3.7073,-3.6933,-3.6581,-3.6329,-3.6044,-3.5671,-3.5119,-3.4462,-3.4085,-3.3809,-3.3583,-3.3244,-3.2955,-3.2792,-3.2767,-3.2491,-3.1976,-3.1913,-3.175,-3.1436,-3.1198,-3.1009,-3.0796,-3.0143,-2.9779,-2.9779,-2.9779,-2.9779,-2.9779,-2.9779,-2.9779,-2.9779,-2.9779,-2.9779,-2.9779,-2.9779,-2.9779,-2.9779,-2.9779,-2.9779,-2.9779,-2.9779,-2.9779,-2.9779,-2.9779,-2.9779,-2.9779,-2.9779,-2.9779,-2.9779,-2.9779,-2.9779,-2.9779,-2.9779,-2.9779,-2.9779,-2.9779,-2.9654,-2.9214,-2.8473,-2.757,-2.709,-2.6801,-2.6713,-2.6537,-2.6487,-2.6487,-2.6487,-2.6487,-2.6487,-2.6487,-2.6487,-2.6487,-2.6487,-2.6487,-2.6487,-2.6487,-2.6302,-2.5804,-2.485,-2.4409,-2.3599,-2.2563,-2.1935,-2.1517,-2.1507,-2.1125,-2.0889,-2.0476,-2.0072,-1.9834,-1.9455,-1.9163,-1.8867,-4.2986,-4.2986,-4.2986,-4.2986,-4.2936,-4.264,-4.2376,-4.215,-4.1367,-4.0852,-4.0501,-4.0111,-3.9873,-3.971,-3.9697,-3.9697,-3.9659,-3.9295,-3.9095,-3.8818,-3.8065,-3.7538,-3.7161,-3.6845,-3.6581,-3.638,-3.5994,-3.547,-3.5014,-3.4613,-3.4336,-3.4148,-3.3608,-3.3345,-3.335,-3.3169,-3.2867,-3.2541,-3.2491,-3.2303,-3.1951,-3.175,-3.165,-3.1524,-3.0771,-3.0218,-3.0068,-2.9892,-2.9779,-2.9779,-2.9779,-2.9779,-2.9779,-2.9779,-2.9779,-2.9779,-2.9779,-2.9779,-2.9779,-2.9779,-2.9779,-2.9779,-2.9779,-2.9779,-2.9779,-2.9779,-2.9779,-2.9779,-2.9779,-2.9779,-2.9779,-2.9779,-2.9779,-2.9779,-2.9779,-2.9704,-2.9541,-2.9503,-2.9126,-2.8461,-2.7808,-2.714,-2.6625,-2.6524,-2.6499,-2.6487,-2.6487,-2.6487,-2.6487,-2.6487,-2.6487,-2.6487,-2.6487,-2.6487,-2.6487,-2.6487,-2.6487,-2.6487,-2.6487,-2.5978,-2.5511,-2.5217,-2.4743,-2.3781,-2.3147,-2.2691,-2.2253,-2.1849,-2.1479,-2.1135,-2.0905,-2.0707,-2.0227,-1.9658,-1.9199,-4.2986,-4.2986,-4.2986,-4.2986,-4.2974,-4.2924,-4.2703,-4.2301,-4.2162,-4.1492,-4.0777,-4.0551,-4.0249,-3.9823,-3.9798,-3.9735,-3.9685,-3.9622,-3.9371,-3.9007,-3.8844,-3.8216,-3.7362,-3.7249,-3.691,-3.6505,-3.6417,-3.6069,-3.552,-3.537,-3.5107,-3.4713,-3.4186,-3.3859,-3.3872,-3.3395,-3.3149,-3.3018,-3.3036,-3.3036,-3.3048,-3.2478,-3.2215,-3.2164,-3.1637,-3.1135,-3.0683,-3.0168,-2.9917,-2.9854,-2.9842,-2.9804,-2.9792,-2.9779,-2.9779,-2.9779,-2.9779,-2.9779,-2.9779,-2.9779,-2.9779,-2.9779,-2.9779,-2.9779,-2.9779,-2.9779,-2.9779,-2.9779,-2.9779,-2.9779,-2.9779,-2.9779,-2.9779,-2.9779,-2.9779,-2.9591,-2.9164,-2.8913,-2.8536,-2.7695,-2.7344,-2.709,-2.6663,-2.6575,-2.6587,-2.6512,-2.6487,-2.6487,-2.6487,-2.6487,-2.6487,-2.6487,-2.6487,-2.6487,-2.6487,-2.6487,-2.6487,-2.6487,-2.6487,-2.6233,-2.5769,-2.5406,-2.5252,-2.4469,-2.3963,-2.3514,-2.3036,-2.2664,-2.2515,-2.2194,-2.1939,-2.1408,-2.0731,-2.0085,-1.9462,-4.2986,-4.2986,-4.2986,-4.2986,-4.2986,-4.2986,-4.2861,-4.2672,-4.2389,-4.1957,-4.1618,-4.1241,-4.0724,-4.0362,-4.0262,-4.0049,-3.971,-3.9685,-3.9597,-3.9396,-3.9057,-3.8756,-3.8366,-3.7927,-3.745,-3.6983,-3.6581,-3.6329,-3.6056,-3.5683,-3.5395,-3.5157,-3.4738,-3.4261,-3.396,-3.3721,-3.3483,-3.3162,-3.3124,-3.3124,-3.3068,-3.2905,-3.2805,-3.2742,-3.2252,-3.1863,-3.1659,-3.1185,-3.0733,-3.0382,-3.0357,-3.0193,-2.988,-2.9779,-2.9779,-2.9779,-2.9779,-2.9779,-2.9779,-2.9779,-2.9779,-2.9779,-2.9779,-2.9779,-2.9779,-2.9779,-2.9779,-2.9779,-2.9779,-2.9779,-2.9779,-2.9779,-2.9779,-2.9779,-2.9779,-2.9729,-2.9402,-2.8812,-2.8285,-2.7908,-2.7519,-2.709,-2.6738,-2.6763,-2.6927,-2.6637,-2.6562,-2.6562,-2.6537,-2.6575,-2.6487,-2.6487,-2.6487,-2.6499,-2.6487,-2.6487,-2.6487,-2.6487,-2.6487,-2.6452,-2.6025,-2.5769,-2.5569,-2.5358,-2.485,-2.4362,-2.3857,-2.3458,-2.3267,-2.2948,-2.2506,-2.1833,-2.1109,-2.0372,-1.9601,-4.2986,-4.2986,-4.2986,-4.2986,-4.2986,-4.2986,-4.2986,-4.2924,-4.2665,-4.2401,-4.215,-4.1794,-4.1342,-4.0877,-4.0614,-4.0325,-3.9998,-3.9798,-3.9697,-3.9659,-3.9371,-3.9094,-3.8881,-3.8278,-3.7713,-3.7224,-3.6835,-3.6606,-3.6392,-3.6031,-3.5855,-3.5768,-3.5257,-3.4831,-3.4512,-3.4274,-3.3935,-3.347,-3.3395,-3.3325,-3.3162,-3.3124,-3.3124,-3.3074,-3.2729,-3.2554,-3.2503,-3.2202,-3.1675,-3.106,-3.0909,-3.0721,-3.0407,-3.0231,-3.0093,-3.0055,-2.9905,-2.9779,-2.9779,-2.9779,-2.9779,-2.9779,-2.9779,-2.9779,-2.9779,-2.9779,-2.9779,-2.9779,-2.9779,-2.9779,-2.9779,-2.9779,-2.9779,-2.9779,-2.9779,-2.9691,-2.9428,-2.8674,-2.8185,-2.8009,-2.7808,-2.7444,-2.7281,-2.7293,-2.7469,-2.7178,-2.7102,-2.7102,-2.7065,-2.6939,-2.6864,-2.6713,-2.6587,-2.6562,-2.6499,-2.6487,-2.6487,-2.6487,-2.6487,-2.6487,-2.6302,-2.6233,-2.6117,-2.6047,-2.5687,-2.5303,-2.4824,-2.4108,-2.3755,-2.3357,-2.2971,-2.1697,-2.0736,-2.024,-1.9541,-4.2986,-4.2986,-4.2986,-4.2986,-4.2986,-4.2986,-4.2986,-4.2974,-4.2949,-4.2728,-4.2351,-4.2275,-4.1894,-4.1354,-4.0965,-4.0676,-4.0425,-4.0036,-3.976,-3.9722,-3.9609,-3.9396,-3.8969,-3.8442,-3.7927,-3.7487,-3.7299,-3.6948,-3.6556,-3.648,-3.6443,-3.6292,-3.583,-3.5508,-3.5295,-3.4931,-3.45,-3.4022,-3.3947,-3.3709,-3.3338,-3.3212,-3.3212,-3.3212,-3.3111,-3.3036,-3.3023,-3.296,-3.2478,-3.1599,-3.1386,-3.1286,-3.1248,-3.0909,-3.0658,-3.0645,-3.0156,-3.003,-2.993,-2.9955,-2.9967,-3.0043,-2.9892,-2.9817,-2.9892,-2.9854,-2.9779,-2.9779,-2.9779,-2.9779,-2.9779,-2.9779,-2.9779,-2.9779,-2.9779,-2.9578,-2.9013,-2.8536,-2.8298,-2.8222,-2.816,-2.8109,-2.7996,-2.8047,-2.8097,-2.7984,-2.7921,-2.7883,-2.7833,-2.7557,-2.7381,-2.7193,-2.7017,-2.6889,-2.6889,-2.6801,-2.6751,-2.6487,-2.6499,-2.6499,-2.6487,-2.6487,-2.6487,-2.6452,-2.638,-2.607,-2.5729,-2.504,-2.4538,-2.4325,-2.3248,-2.1482,-2.0726,-2.0575,-1.9833,-4.2986,-4.2986,-4.2986,-4.2986,-4.2986,-4.2986,-4.2986,-4.2986,-4.2986,-4.2886,-4.276,-4.276,-4.2434,-4.1957,-4.1769,-4.1304,-4.0689,-4.0388,-4.0036,-3.9735,-3.9697,-3.9634,-3.9383,-3.8919,-3.8555,-3.8391,-3.7952,-3.75,-3.6998,-3.6948,-3.6807,-3.6417,-3.6267,-3.5918,-3.552,-3.5357,-3.4994,-3.4587,-3.45,-3.4449,-3.4236,-3.3847,-3.3684,-3.3646,-3.3319,-3.3174,-3.3136,-3.3124,-3.2767,-3.2051,-3.1587,-3.1386,-3.1436,-3.1286,-3.1198,-3.1148,-3.1047,-3.0947,-3.0871,-3.0595,-3.0583,-3.0846,-3.0269,-2.9967,-3.0357,-3.0018,-2.9829,-2.9779,-2.9779,-2.9829,-2.9817,-2.9829,-2.9829,-2.9779,-2.9842,-2.9754,-2.949,-2.9076,-2.8675,-2.8675,-2.8675,-2.8549,-2.8386,-2.8473,-2.8586,-2.831,-2.8222,-2.8222,-2.8273,-2.8109,-2.7883,-2.7883,-2.7733,-2.7457,-2.7268,-2.719,-2.6977,-2.6587,-2.6499,-2.6524,-2.6512,-2.6487,-2.6487,-2.6487,-2.6452,-2.623,-2.6255,-2.598,-2.5639,-2.4924,-2.4246,-2.2926,-2.2278,-2.1879,-2.0651,-4.2986,-4.2986,-4.2986,-4.2986,-4.2986,-4.2986,-4.2986,-4.2986,-4.2986,-4.2986,-4.2986,-4.2986,-4.2866,-4.2552,-4.2301,-4.1886,-4.1241,-4.0953,-4.0563,-4.0074,-3.981,-3.9697,-3.9597,-3.932,-3.9107,-3.8894,-3.8542,-3.8078,-3.7563,-3.7312,-3.701,-3.6734,-3.6518,-3.6241,-3.5943,-3.5881,-3.5571,-3.5132,-3.5019,-3.4931,-3.4655,-3.4424,-3.4286,-3.4198,-3.3897,-3.3696,-3.347,-3.325,-3.2948,-3.2579,-3.2277,-3.2102,-3.2064,-3.1838,-3.1738,-3.1725,-3.1537,-3.1373,-3.1336,-3.1085,-3.1085,-3.1235,-3.0721,-3.0683,-3.0821,-3.062,-3.0457,-3.0495,-3.0457,-3.0457,-3.047,-3.047,-3.0357,-3.0218,-3.0131,-3.0043,-2.9842,-2.949,-2.9315,-2.9289,-2.9264,-2.9202,-2.8837,-2.9101,-2.9076,-2.895,-2.8938,-2.8913,-2.8888,-2.8624,-2.8448,-2.8448,-2.8273,-2.7946,-2.777,-2.767,-2.7557,-2.7178,-2.6864,-2.6826,-2.6663,-2.66,-2.6487,-2.6487,-2.6487,-2.6449,-2.6386,-2.6108,-2.5333,-2.4823,-2.474,-2.423,-2.3213,-2.2289,-2.115,-4.2986,-4.2986,-4.2986,-4.2986,-4.2986,-4.2986,-4.2986,-4.2986,-4.2986,-4.2986,-4.2986,-4.2986,-4.2949,-4.2992,-4.2552,-4.2263,-4.2125,-4.1593,-4.104,-4.0513,-4.0074,-3.981,-3.9685,-3.9647,-3.9396,-3.9082,-3.902,-3.8617,-3.8153,-3.7626,-3.7374,-3.7186,-3.6795,-3.6543,-3.6408,-3.6417,-3.6081,-3.5683,-3.5583,-3.5441,-3.5115,-3.4914,-3.4768,-3.4731,-3.4555,-3.4349,-3.3972,-3.3596,-3.3282,-3.3212,-3.3119,-3.2968,-3.2986,-3.2528,-3.234,-3.2252,-3.1964,-3.1712,-3.1587,-3.1599,-3.1549,-3.1612,-3.1512,-3.1449,-3.1411,-3.1311,-3.1198,-3.1185,-3.1361,-3.1235,-3.1235,-3.1311,-3.1097,-3.0771,-3.0696,-3.0444,-3.008,-2.9867,-2.9779,-2.9779,-2.9767,-2.9779,-2.9779,-2.9779,-2.9741,-2.939,-2.9415,-2.939,-2.934,-2.9189,-2.9063,-2.9026,-2.875,-2.8373,-2.826,-2.8185,-2.8084,-2.7871,-2.7507,-2.7329,-2.7002,-2.6839,-2.66,-2.6487,-2.6487,-2.6336,-2.6076,-2.5619,-2.5126,-2.4718,-2.4635,-2.3891,-2.2983,-2.2166,-2.1136,-4.2986,-4.2986,-4.2986,-4.2986,-4.2986,-4.2986,-4.2986,-4.2986,-4.2986,-4.2986,-4.2986,-4.2986,-4.2986,-4.303,-4.2798,-4.264,-4.2288,-4.2024,-4.1467,-4.0563,-4.0438,-4.0061,-3.9798,-3.9697,-3.9622,-3.9484,-3.9496,-3.9207,-3.873,-3.8479,-3.8316,-3.7789,-3.7312,-3.6998,-3.6935,-3.6631,-3.638,-3.6194,-3.6169,-3.6081,-3.5881,-3.5542,-3.532,-3.5282,-3.4931,-3.4655,-3.4587,-3.4437,-3.4161,-3.3746,-3.337,-3.325,-3.3068,-3.2943,-3.2842,-3.2805,-3.2797,-3.2709,-3.2659,-3.229,-3.224,-3.2491,-3.1964,-3.1574,-3.1964,-3.1662,-3.1461,-3.1386,-3.1386,-3.154,-3.1524,-3.1424,-3.1386,-3.1286,-3.1223,-3.116,-3.0934,-3.0319,-2.9942,-2.9867,-2.9842,-2.9792,-2.9804,-2.9804,-2.9792,-2.9792,-2.9792,-2.9779,-2.9716,-2.9628,-2.9541,-2.9415,-2.9302,-2.8963,-2.8812,-2.875,-2.8662,-2.8511,-2.8172,-2.7921,-2.7582,-2.7105,-2.6914,-2.6688,-2.6487,-2.6311,-2.6151,-2.6129,-2.5872,-2.5227,-2.4576,-2.398,-2.3252,-2.2284,-2.1528,-4.2986,-4.2986,-4.2986,-4.2986,-4.2986,-4.2986,-4.2986,-4.2986,-4.2986,-4.2986,-4.2986,-4.2986,-4.2986,-4.2986,-4.2974,-4.2841,-4.259,-4.2301,-4.1706,-4.0978,-4.0651,-4.0199,-3.9798,-3.9697,-3.9697,-3.9697,-3.9685,-3.9496,-3.9283,-3.8994,-3.873,-3.8391,-3.7839,-3.74,-3.7211,-3.6885,-3.6656,-3.643,-3.6417,-3.6417,-3.6342,-3.6107,-3.5931,-3.583,-3.5416,-3.5069,-3.5069,-3.4781,-3.4575,-3.4299,-3.3997,-3.3571,-3.3199,-3.3124,-3.3124,-3.3124,-3.3124,-3.3124,-3.2998,-3.283,-3.2742,-3.3086,-3.2478,-3.2453,-3.2516,-3.2315,-3.2215,-3.2177,-3.2244,-3.2231,-3.2231,-3.2202,-3.2102,-3.1813,-3.1775,-3.1675,-3.1373,-3.0871,-3.0532,-3.0482,-3.0382,-3.0256,-3.0156,-3.0068,-2.9854,-2.9854,-2.9829,-2.9829,-2.9779,-2.9716,-2.9729,-2.9679,-2.9716,-2.9603,-2.9415,-2.9315,-2.9264,-2.9063,-2.8787,-2.8586,-2.836,-2.7795,-2.7231,-2.7077,-2.6901,-2.6637,-2.649,-2.654,-2.6433,-2.5914,-2.5249,-2.447,-2.3616,-2.2691,-2.2052,-4.2986,-4.2986,-4.2986,-4.2986,-4.2986,-4.2986,-4.2986,-4.2986,-4.2986,-4.2986,-4.2986,-4.2986,-4.2986,-4.2986,-4.2986,-4.2986,-4.2848,-4.2602,-4.2007,-4.1467,-4.094,-4.0438,-3.9998,-3.9785,-3.9697,-3.9697,-3.9697,-3.9659,-3.9534,-3.9321,-3.9082,-3.8894,-3.8429,-3.8002,-3.7575,-3.736,-3.7121,-3.6707,-3.6631,-3.6505,-3.643,-3.6367,-3.6355,-3.6194,-3.5943,-3.568,-3.5592,-3.5328,-3.4989,-3.4864,-3.4851,-3.4299,-3.3621,-3.3219,-3.3131,-3.3162,-3.3124,-3.3124,-3.3124,-3.3086,-3.3086,-3.3124,-3.3086,-3.3074,-3.3061,-3.3011,-3.296,-3.2986,-3.296,-3.296,-3.3111,-3.2973,-3.2772,-3.2478,-3.234,-3.2114,-3.1788,-3.1637,-3.1587,-3.1223,-3.0934,-3.0746,-3.062,-3.0507,-3.0193,-2.9942,-2.993,-2.9892,-2.9867,-2.9804,-2.9817,-2.9792,-2.9779,-2.9779,-2.9628,-2.9566,-2.9553,-2.9465,-2.9239,-2.9151,-2.9026,-2.8737,-2.8197,-2.7595,-2.7366,-2.7165,-2.6964,-2.6879,-2.6721,-2.6429,-2.5594,-2.4564,-2.3745,-2.3036,-2.2446,-4.2986,-4.2986,-4.2986,-4.2986,-4.2986,-4.2986,-4.2986,-4.2986,-4.2986,-4.2986,-4.2986,-4.2986,-4.2986,-4.2986,-4.2986,-4.2986,-4.2936,-4.2816,-4.2539,-4.1944,-4.1417,-4.0902,-4.0325,-3.9961,-3.976,-3.9697,-3.9697,-3.9697,-3.9685,-3.9597,-3.9459,-3.9408,-3.9007,-3.8668,-3.8391,-3.8128,-3.76,-3.7136,-3.7036,-3.686,-3.6581,-3.643,-3.6417,-3.6405,-3.6194,-3.6169,-3.6182,-3.6107,-3.5893,-3.5433,-3.5382,-3.5039,-3.4487,-3.4022,-3.3646,-3.3332,-3.3287,-3.3282,-3.3237,-3.3174,-3.3136,-3.3124,-3.3124,-3.3124,-3.3124,-3.3124,-3.3124,-3.3124,-3.3124,-3.3124,-3.3124,-3.3124,-3.3099,-3.2918,-3.2855,-3.2817,-3.2729,-3.2646,-3.2357,-3.175,-3.1461,-3.126,-3.116,-3.1009,-3.0733,-3.0532,-3.047,-3.0319,-3.0156,-3.0018,-2.9892,-2.9842,-2.9779,-2.9779,-2.9754,-2.9729,-2.9716,-2.9691,-2.9578,-2.9566,-2.9515,-2.9603,-2.9227,-2.8511,-2.8047,-2.7846,-2.7632,-2.7379,-2.6993,-2.6692,-2.5661,-2.4586,-2.4093,-2.3581,-2.2393,-4.2986,-4.2986,-4.2986,-4.2986,-4.2986,-4.2986,-4.2986,-4.2986,-4.2986,-4.2986,-4.2986,-4.2986,-4.2986,-4.2986,-4.2986,-4.2986,-4.2986,-4.2974,-4.2715,-4.2213,-4.1856,-4.1279,-4.0639,-4.0237,-3.9948,-3.9785,-3.9697,-3.9697,-3.9697,-3.9685,-3.9697,-3.9634,-3.9396,-3.917,-3.8944,-3.858,-3.814,-3.7739,-3.7575,-3.7337,-3.6832,-3.6606,-3.643,-3.6417,-3.6417,-3.6417,-3.6417,-3.6417,-3.6292,-3.6031,-3.5968,-3.5655,-3.524,-3.4843,-3.45,-3.4048,-3.3897,-3.3759,-3.3571,-3.3483,-3.3407,-3.3162,-3.3149,-3.3124,-3.3124,-3.3124,-3.3149,-3.3136,-3.3124,-3.3124,-3.3124,-3.3124,-3.3124,-3.3124,-3.3124,-3.3124,-3.3124,-3.3124,-3.2692,-3.219,-3.2001,-3.1851,-3.1763,-3.1562,-3.1286,-3.1135,-3.1035,-3.0809,-3.0532,-3.0369,-3.0206,-3.0168,-3.0143,-3.0018,-3.0043,-3.0043,-3.0055,-3.0018,-2.9892,-2.988,-2.9817,-2.9817,-2.9666,-2.9239,-2.8888,-2.8511,-2.8122,-2.7783,-2.7382,-2.7029,-2.6347,-2.5629,-2.4875,-2.4022,-2.3099,-4.2986,-4.2986,-4.2986,-4.2986,-4.2986,-4.2986,-4.2986,-4.2986,-4.2986,-4.2986,-4.2986,-4.2986,-4.2986,-4.2986,-4.2986,-4.2986,-4.2986,-4.2986,-4.2723,-4.2476,-4.2225,-4.1605,-4.1065,-4.0551,-4.0287,-3.9986,-3.9722,-3.9697,-3.9697,-3.9697,-3.9697,-3.9685,-3.9697,-3.9509,-3.912,-3.9069,-3.868,-3.8366,-3.8165,-3.7902,-3.7362,-3.6883,-3.6568,-3.6531,-3.6468,-3.6417,-3.6417,-3.6417,-3.6417,-3.6367,-3.6329,-3.6132,-3.578,-3.5658,-3.5458,-3.5115,-3.4864,-3.4474,-3.4211,-3.406,-3.3909,-3.3633,-3.347,-3.3445,-3.3407,-3.3458,-3.3294,-3.3244,-3.3149,-3.3124,-3.3124,-3.3124,-3.3124,-3.3124,-3.3124,-3.3124,-3.3124,-3.3124,-3.3124,-3.2754,-3.2566,-3.2428,-3.2315,-3.2252,-3.2001,-3.1675,-3.1562,-3.1323,-3.1072,-3.0871,-3.0733,-3.067,-3.057,-3.0382,-3.0357,-3.0432,-3.047,-3.052,-3.0294,-3.0156,-3.003,-2.9917,-2.9754,-2.9628,-2.9428,-2.9026,-2.8612,-2.831,-2.8088,-2.7767,-2.7297,-2.6643,-2.5791,-2.5291,-2.4723,-4.2986,-4.2986,-4.2986,-4.2986,-4.2986,-4.2986,-4.2986,-4.2986,-4.2986,-4.2986,-4.2986,-4.2986,-4.2986,-4.2986,-4.2986,-4.2986,-4.2986,-4.2974,-4.2911,-4.2791,-4.2476,-4.2175,-4.1823,-4.0902,-4.0676,-4.0388,-3.9998,-3.9722,-3.9747,-3.9747,-3.9697,-3.9697,-3.9685,-3.9622,-3.9509,-3.9471,-3.9308,-3.8868,-3.8755,-3.8467,-3.7927,-3.7374,-3.7136,-3.6973,-3.6732,-3.6493,-3.6493,-3.6468,-3.6417,-3.6417,-3.6417,-3.6367,-3.6304,-3.6317,-3.6304,-3.5906,-3.5366,-3.4655,-3.465,-3.4625,-3.4537,-3.4361,-3.4374,-3.45,-3.4286,-3.3997,-3.3796,-3.3784,-3.3445,-3.33,-3.3338,-3.3224,-3.3162,-3.3199,-3.3244,-3.3237,-3.3187,-3.3124,-3.3124,-3.3111,-3.2817,-3.2867,-3.2898,-3.2817,-3.2729,-3.2378,-3.2064,-3.1838,-3.1637,-3.1461,-3.1148,-3.1035,-3.0984,-3.0821,-3.0733,-3.0809,-3.0859,-3.0959,-3.0758,-3.0507,-3.0444,-3.0331,-2.9993,-2.9854,-2.9716,-2.9603,-2.9277,-2.9038,-2.89,-2.8625,-2.8262,-2.7504,-2.6627,-2.6323,-2.6078,-4.2986,-4.2986,-4.2986,-4.2986,-4.2986,-4.2986,-4.2986,-4.2986,-4.2986,-4.2986,-4.2986,-4.2986,-4.2986,-4.2986,-4.2986,-4.2986,-4.2986,-4.2986,-4.2986,-4.2986,-4.271,-4.2446,-4.215,-4.1722,-4.1367,-4.0953,-4.0727,-4.0475,-4.0224,-3.986,-3.9697,-3.9697,-3.9697,-3.9685,-3.9697,-3.9697,-3.9559,-3.9295,-3.9095,-3.8755,-3.8417,-3.7977,-3.7638,-3.7626,-3.7159,-3.6933,-3.682,-3.6518,-3.643,-3.6417,-3.6417,-3.6417,-3.6405,-3.6405,-3.6405,-3.6355,-3.6015,-3.5542,-3.5253,-3.5203,-3.5052,-3.4801,-3.4751,-3.4643,-3.463,-3.455,-3.4361,-3.4361,-3.4161,-3.3997,-3.396,-3.401,-3.401,-3.3935,-3.3658,-3.3571,-3.3458,-3.3187,-3.3124,-3.3124,-3.3149,-3.3212,-3.3212,-3.3074,-3.2986,-3.278,-3.2604,-3.2516,-3.2303,-3.2102,-3.1725,-3.1323,-3.1298,-3.126,-3.121,-3.121,-3.1235,-3.1286,-3.1235,-3.1035,-3.1022,-3.0846,-3.0507,-3.0319,-3.0269,-3.0118,-2.9905,-2.9628,-2.9352,-2.9277,-2.9227,-2.842,-2.7654,-2.7397,-2.6899,-4.2986,-4.2986,-4.2986,-4.2986,-4.2986,-4.2986,-4.2986,-4.2986,-4.2986,-4.2986,-4.2986,-4.2986,-4.2986,-4.2986,-4.2986,-4.2986,-4.2986,-4.2986,-4.2986,-4.2986,-4.2936,-4.2735,-4.2489,-4.2263,-4.1936,-4.1543,-4.1213,-4.0987,-4.0701,-4.0362,-4.0086,-3.9722,-3.9697,-3.9697,-3.9697,-3.9697,-3.9647,-3.9597,-3.9295,-3.9132,-3.8981,-3.8517,-3.8291,-3.8065,-3.7739,-3.7387,-3.7312,-3.692,-3.6656,-3.6644,-3.6468,-3.6417,-3.6417,-3.6417,-3.6417,-3.6405,-3.6254,-3.6141,-3.5843,-3.5705,-3.5504,-3.529,-3.5127,-3.529,-3.5215,-3.5064,-3.4881,-3.4881,-3.463,-3.4618,-3.4668,-3.4618,-3.453,-3.4437,-3.4311,-3.4198,-3.406,-3.3784,-3.3646,-3.3734,-3.3684,-3.3407,-3.3357,-3.3212,-3.3124,-3.3124,-3.3124,-3.3124,-3.288,-3.2591,-3.239,-3.1976,-3.2001,-3.2043,-3.2005,-3.1876,-3.1813,-3.1687,-3.1637,-3.1587,-3.1574,-3.1373,-3.106,-3.0922,-3.0821,-3.0721,-3.057,-3.0168,-2.9767,-2.9616,-2.9439,-2.9256,-2.8814,-2.8386,-2.7325,-4.2986,-4.2986,-4.2986,-4.2986,-4.2986,-4.2986,-4.2986,-4.2986,-4.2986,-4.2986,-4.2986,-4.2986,-4.2986,-4.2986,-4.2986,-4.2986,-4.2986,-4.2986,-4.2986,-4.2986,-4.2974,-4.2924,-4.2766,-4.2502,-4.2225,-4.2032,-4.1806,-4.1517,-4.1225,-4.1191,-4.0563,-3.986,-3.9998,-3.981,-3.9785,-3.991,-3.976,-3.971,-3.9546,-3.9546,-3.9421,-3.9107,-3.8831,-3.8693,-3.8291,-3.7939,-3.7914,-3.7412,-3.7123,-3.7159,-3.6757,-3.6531,-3.6556,-3.6455,-3.643,-3.6417,-3.6417,-3.6329,-3.6194,-3.6169,-3.6292,-3.6279,-3.6191,-3.6065,-3.599,-3.5667,-3.5483,-3.542,-3.5228,-3.4977,-3.4876,-3.4718,-3.5002,-3.4964,-3.4901,-3.4738,-3.4625,-3.45,-3.4387,-3.4449,-3.4274,-3.396,-3.3809,-3.3684,-3.3262,-3.3199,-3.3124,-3.3124,-3.3124,-3.2893,-3.2973,-3.2835,-3.2885,-3.2898,-3.2923,-3.2797,-3.2503,-3.2353,-3.229,-3.2215,-3.2152,-3.1901,-3.1712,-3.1449,-3.1336,-3.1298,-3.1148,-3.067,-3.0231,-2.9917,-2.965,-2.9365,-2.8688,-2.7896,-2.6767,-4.2986,-4.2986,-4.2986,-4.2986,-4.2986,-4.2986,-4.2986,-4.2986,-4.2986,-4.2986,-4.2986,-4.2986,-4.2986,-4.2986,-4.2986,-4.2986,-4.2986,-4.2986,-4.2986,-4.2986,-4.2986,-4.2986,-4.2861,-4.2798,-4.266,-4.2597,-4.2384,-4.2108,-4.1856,-4.1844,-4.1417,-4.0902,-4.0714,-4.0727,-4.0664,-4.0312,-4.0036,-3.976,-3.971,-3.9697,-3.9659,-3.9546,-3.9383,-3.9333,-3.8843,-3.8567,-3.8454,-3.7977,-3.7764,-3.755,-3.7149,-3.6948,-3.6832,-3.6631,-3.648,-3.6455,-3.6455,-3.6417,-3.6417,-3.6417,-3.6417,-3.6417,-3.6405,-3.6417,-3.6417,-3.6132,-3.6056,-3.5968,-3.583,-3.5604,-3.5717,-3.5742,-3.5793,-3.5667,-3.5491,-3.529,-3.5165,-3.5064,-3.4951,-3.4939,-3.4726,-3.4437,-3.4336,-3.4274,-3.3709,-3.3232,-3.3187,-3.3136,-3.3187,-3.3136,-3.3124,-3.3124,-3.3124,-3.3124,-3.3124,-3.3124,-3.3124,-3.2968,-3.2855,-3.2729,-3.2604,-3.2717,-3.2546,-3.2177,-3.1851,-3.1775,-3.1537,-3.1085,-3.0721,-3.0419,-2.9938,-2.9404,-2.8569,-2.7505,-2.6232,-4.2986,-4.2986,-4.2986,-4.2986,-4.2986,-4.2986,-4.2986,-4.2986,-4.2986,-4.2986,-4.2986,-4.2986,-4.2986,-4.2986,-4.2986,-4.2986,-4.2986,-4.2986,-4.2986,-4.2986,-4.2986,-4.2986,-4.2986,-4.2961,-4.2898,-4.2986,-4.2949,-4.2685,-4.2476,-4.2451,-4.217,-4.1932,-4.1794,-4.1693,-4.1137,-4.0912,-4.0488,-4.0061,-3.9936,-3.9798,-3.976,-3.9685,-3.9672,-3.9634,-3.927,-3.9157,-3.8969,-3.8592,-3.8304,-3.809,-3.7789,-3.7487,-3.7236,-3.7021,-3.6707,-3.6606,-3.6518,-3.6443,-3.6417,-3.6417,-3.6417,-3.6417,-3.6417,-3.6417,-3.6417,-3.6417,-3.6329,-3.6355,-3.6367,-3.6417,-3.6417,-3.6279,-3.6241,-3.6078,-3.5943,-3.578,-3.573,-3.5629,-3.5504,-3.5403,-3.5152,-3.4906,-3.4781,-3.4726,-3.4387,-3.3847,-3.3583,-3.3508,-3.3432,-3.3319,-3.3124,-3.3124,-3.3124,-3.3124,-3.3124,-3.3124,-3.3124,-3.3111,-3.298,-3.3048,-3.3023,-3.3124,-3.3099,-3.2692,-3.2403,-3.2265,-3.2051,-3.1775,-3.1361,-3.0934,-3.0316,-2.9579,-2.8257,-2.72,-2.5926,-4.2986,-4.2986,-4.2986,-4.2986,-4.2986,-4.2986,-4.2986,-4.2986,-4.2986,-4.2986,-4.2986,-4.2986,-4.2986,-4.2986,-4.2986,-4.2986,-4.2986,-4.2986,-4.2986,-4.2986,-4.2986,-4.2986,-4.2986,-4.2986,-4.2986,-4.2986,-4.2974,-4.2936,-4.2942,-4.2823,-4.2785,-4.2785,-4.2585,-4.2283,-4.1388,-4.1288,-4.0974,-4.0576,-4.0501,-4.0149,-3.9885,-3.976,-3.9697,-3.9659,-3.9597,-3.9521,-3.9396,-3.9107,-3.8906,-3.8806,-3.8291,-3.8027,-3.7939,-3.7462,-3.7199,-3.7161,-3.6782,-3.6543,-3.6443,-3.643,-3.6468,-3.643,-3.6417,-3.6417,-3.6417,-3.6417,-3.6417,-3.6417,-3.6417,-3.6417,-3.6417,-3.6417,-3.6417,-3.638,-3.6279,-3.6169,-3.6094,-3.6069,-3.5906,-3.5818,-3.5667,-3.5445,-3.5282,-3.5119,-3.4906,-3.4575,-3.4161,-3.3947,-3.3859,-3.3721,-3.352,-3.335,-3.335,-3.3199,-3.3199,-3.3136,-3.3124,-3.3124,-3.3124,-3.3124,-3.3124,-3.3124,-3.3086,-3.2993,-3.288,-3.2667,-3.2629,-3.2566,-3.2127,-3.1617,-3.0518,-2.9594,-2.8225,-2.7108,-2.6123,-4.2986,-4.2986,-4.2986,-4.2986,-4.2986,-4.2986,-4.2986,-4.2986,-4.2986,-4.2986,-4.2986,-4.2986,-4.2986,-4.2986,-4.2986,-4.2986,-4.2986,-4.2986,-4.2986,-4.2986,-4.2986,-4.2986,-4.2986,-4.2986,-4.2986,-4.2986,-4.2986,-4.2986,-4.2961,-4.2986,-4.2986,-4.2986,-4.2936,-4.2559,-4.207,-4.1844,-4.1618,-4.1091,-4.0739,-4.04,-4.0224,-3.9936,-3.9722,-3.9735,-3.9722,-3.9697,-3.9697,-3.9408,-3.9358,-3.9295,-3.8818,-3.8605,-3.8492,-3.8052,-3.7751,-3.7726,-3.745,-3.7262,-3.7036,-3.6933,-3.6757,-3.6606,-3.6417,-3.6417,-3.6417,-3.6417,-3.6417,-3.6417,-3.6417,-3.6417,-3.6417,-3.6417,-3.6417,-3.6417,-3.6355,-3.6367,-3.6329,-3.6342,-3.6279,-3.6254,-3.6107,-3.6044,-3.5918,-3.5742,-3.5529,-3.5328,-3.4951,-3.46,-3.4449,-3.4361,-3.4211,-3.3834,-3.3646,-3.3395,-3.3257,-3.3294,-3.3287,-3.3262,-3.3199,-3.3124,-3.3124,-3.3124,-3.3111,-3.3074,-3.3099,-3.3111,-3.2943,-3.283,-3.2792,-3.2292,-3.1343,-3.0362,-2.9289,-2.8137,-2.7019,-4.2986,-4.2986,-4.2986,-4.2986,-4.2986,-4.2986,-4.2986,-4.2986,-4.2986,-4.2986,-4.2986,-4.2986,-4.2986,-4.2986,-4.2986,-4.2986,-4.2986,-4.2986,-4.2986,-4.2986,-4.2986,-4.2986,-4.2986,-4.2986,-4.2986,-4.2986,-4.2986,-4.2986,-4.2986,-4.2986,-4.2986,-4.2986,-4.2974,-4.2773,-4.2564,-4.2439,-4.2183,-4.1706,-4.1329,-4.1065,-4.0752,-4.0375,-4.0023,-3.9948,-3.9848,-3.9697,-3.9697,-3.9697,-3.9697,-3.9584,-3.9396,-3.9145,-3.8981,-3.868,-3.8341,-3.8304,-3.804,-3.7826,-3.755,-3.7462,-3.7299,-3.7086,-3.6694,-3.643,-3.6417,-3.6417,-3.6417,-3.6417,-3.643,-3.6417,-3.6417,-3.6417,-3.6417,-3.6417,-3.6417,-3.6417,-3.6417,-3.6417,-3.6417,-3.6417,-3.6417,-3.6417,-3.6417,-3.6367,-3.6191,-3.5956,-3.5742,-3.5391,-3.5014,-3.4889,-3.4751,-3.4412,-3.4173,-3.4022,-3.3796,-3.3608,-3.352,-3.3426,-3.335,-3.33,-3.3124,-3.3124,-3.3124,-3.3136,-3.3149,-3.3162,-3.3136,-3.3074,-3.2998,-3.2872,-3.2456,-3.143,-3.0353,-2.9036,-2.7688,-4.2986,-4.2986,-4.2986,-4.2986,-4.2986,-4.2986,-4.2986,-4.2986,-4.2986,-4.2986,-4.2986,-4.2986,-4.2986,-4.2986,-4.2986,-4.2986,-4.2986,-4.2986,-4.2986,-4.2986,-4.2986,-4.2986,-4.2986,-4.2986,-4.2986,-4.2986,-4.2986,-4.2986,-4.2986,-4.2986,-4.2986,-4.2986,-4.2986,-4.2898,-4.2861,-4.2785,-4.2585,-4.2233,-4.1986,-4.1656,-4.1329,-4.084,-4.0513,-4.0325,-4.0074,-3.9823,-3.9747,-3.9697,-3.9697,-3.9672,-3.9647,-3.9647,-3.9509,-3.9182,-3.8994,-3.8755,-3.8391,-3.8241,-3.8052,-3.804,-3.7914,-3.7638,-3.7084,-3.6669,-3.6606,-3.6757,-3.6757,-3.6656,-3.6619,-3.6505,-3.643,-3.6417,-3.6417,-3.6417,-3.6417,-3.6417,-3.6417,-3.6417,-3.6417,-3.6417,-3.6417,-3.6417,-3.6417,-3.6417,-3.6417,-3.6317,-3.6116,-3.5931,-3.5579,-3.529,-3.514,-3.4868,-3.468,-3.4655,-3.4417,-3.4098,-3.3997,-3.3922,-3.3658,-3.3545,-3.3332,-3.3363,-3.3533,-3.3571,-3.3269,-3.3144,-3.3106,-3.3124,-3.3111,-3.2973,-3.2847,-3.2105,-3.0929,-2.9297,-2.7963,-4.2986,-4.2986,-4.2986,-4.2986,-4.2986,-4.2986,-4.2986,-4.2986,-4.2986,-4.2986,-4.2986,-4.2986,-4.2986,-4.2986,-4.2986,-4.2986,-4.2986,-4.2986,-4.2986,-4.2986,-4.2986,-4.2986,-4.2986,-4.2986,-4.2986,-4.2986,-4.2986,-4.2986,-4.2986,-4.2986,-4.2986,-4.2986,-4.2986,-4.2986,-4.2986,-4.2986,-4.2848,-4.2672,-4.2439,-4.2213,-4.1844,-4.1379,-4.1028,-4.0651,-4.0375,-4.0086,-3.9835,-3.971,-3.9697,-3.9697,-3.9697,-3.9697,-3.9659,-3.9534,-3.9459,-3.9446,-3.9245,-3.9082,-3.8718,-3.8668,-3.8504,-3.8216,-3.7726,-3.7638,-3.7538,-3.7437,-3.7299,-3.7073,-3.6935,-3.6885,-3.6782,-3.6707,-3.6694,-3.6707,-3.6694,-3.6669,-3.6644,-3.6556,-3.6543,-3.6417,-3.6417,-3.6417,-3.6417,-3.6417,-3.6417,-3.6417,-3.6367,-3.6279,-3.6107,-3.5793,-3.5579,-3.5366,-3.5278,-3.5253,-3.4868,-3.4562,-3.4525,-3.4437,-3.4173,-3.4035,-3.4098,-3.4123,-3.4198,-3.4085,-3.3822,-3.3445,-3.3106,-3.3181,-3.3476,-3.3212,-3.2988,-3.2271,-3.138,-2.9932,-2.8552,-4.2986,-4.2986,-4.2986,-4.2986,-4.2986,-4.2986,-4.2986,-4.2986,-4.2986,-4.2986,-4.2986,-4.2986,-4.2986,-4.2986,-4.2986,-4.2986,-4.2986,-4.2986,-4.2986,-4.2986,-4.2986,-4.2986,-4.2986,-4.2986,-4.2986,-4.2986,-4.2986,-4.2986,-4.2986,-4.2986,-4.2986,-4.2986,-4.2986,-4.2986,-4.2986,-4.2986,-4.2986,-4.2861,-4.2753,-4.2577,-4.2313,-4.1944,-4.1505,-4.1128,-4.0852,-4.035,-4.0023,-3.9873,-3.971,-3.9697,-3.9697,-3.9697,-3.9697,-3.9685,-3.9685,-3.9647,-3.9609,-3.9446,-3.9233,-3.9195,-3.8981,-3.8768,-3.863,-3.8668,-3.8429,-3.8216,-3.7864,-3.7563,-3.75,-3.7412,-3.7199,-3.7071,-3.7084,-3.7096,-3.7046,-3.6948,-3.6895,-3.6769,-3.6631,-3.6455,-3.6417,-3.6417,-3.6417,-3.6417,-3.6417,-3.6417,-3.6417,-3.638,-3.6342,-3.6229,-3.6091,-3.5893,-3.5843,-3.5793,-3.5416,-3.5115,-3.5064,-3.4939,-3.4638,-3.4575,-3.4718,-3.4668,-3.4575,-3.45,-3.4399,-3.4048,-3.3709,-3.3771,-3.3897,-3.3646,-3.347,-3.3096,-3.2369,-3.1196,-2.984,-4.2936,-4.2986,-4.2986,-4.2986,-4.2986,-4.2986,-4.2986,-4.2986,-4.2986,-4.2986,-4.2986,-4.2986,-4.2986,-4.2986,-4.2986,-4.2986,-4.2986,-4.2986,-4.2986,-4.2986,-4.2986,-4.2986,-4.2986,-4.2986,-4.2986,-4.2986,-4.2986,-4.2986,-4.2986,-4.2986,-4.2986,-4.2986,-4.2986,-4.2986,-4.2986,-4.2986,-4.2986,-4.2949,-4.2911,-4.2836,-4.276,-4.2552,-4.2225,-4.1974,-4.1304,-4.0639,-4.0413,-4.0099,-3.9722,-3.9722,-3.9697,-3.9697,-3.9697,-3.9697,-3.9697,-3.9697,-3.9697,-3.9659,-3.9584,-3.9559,-3.9597,-3.9559,-3.9685,-3.9496,-3.9132,-3.8843,-3.8479,-3.8153,-3.8078,-3.7889,-3.7676,-3.7563,-3.755,-3.755,-3.7525,-3.7437,-3.7324,-3.7199,-3.7084,-3.6895,-3.6694,-3.6656,-3.6417,-3.6417,-3.6417,-3.6417,-3.6417,-3.6417,-3.6417,-3.6417,-3.6367,-3.6304,-3.6229,-3.6153,-3.6019,-3.5768,-3.5642,-3.5454,-3.5177,-3.514,-3.5328,-3.5152,-3.4831,-3.4818,-3.4831,-3.4693,-3.4537,-3.4462,-3.4361,-3.4336,-3.4173,-3.401,-3.3286,-3.2183,-3.0716,-4.2652,-4.303,-4.2986,-4.2986,-4.2986,-4.2986,-4.2986,-4.2986,-4.2986,-4.2986,-4.2986,-4.2986,-4.2986,-4.2986,-4.2986,-4.2986,-4.2986,-4.2986,-4.2986,-4.2986,-4.2986,-4.2986,-4.2986,-4.2986,-4.2986,-4.2986,-4.2986,-4.2986,-4.2986,-4.2986,-4.2986,-4.2986,-4.2986,-4.2986,-4.2986,-4.2986,-4.2986,-4.2986,-4.2986,-4.2986,-4.2924,-4.2836,-4.2665,-4.2338,-4.176,-4.1204,-4.089,-4.0425,-4.0049,-3.981,-3.9722,-3.9697,-3.9697,-3.9697,-3.9697,-3.9697,-3.9697,-3.9697,-3.9697,-3.9697,-3.9697,-3.9697,-3.9697,-3.9697,-3.9584,-3.9396,-3.9145,-3.8831,-3.8592,-3.8379,-3.8228,-3.8153,-3.8103,-3.8103,-3.809,-3.7977,-3.7852,-3.7663,-3.7513,-3.7287,-3.7036,-3.6857,-3.6606,-3.6455,-3.6417,-3.6417,-3.6417,-3.6417,-3.6417,-3.6417,-3.6417,-3.6367,-3.638,-3.6342,-3.6342,-3.6292,-3.6044,-3.6031,-3.5855,-3.5855,-3.5881,-3.573,-3.5529,-3.537,-3.5295,-3.524,-3.5064,-3.4763,-3.47,-3.4889,-3.4763,-3.4562,-3.3991,-3.3022,-3.1399,-4.2389,-4.2635,-4.2873,-4.2986,-4.2986,-4.2986,-4.2986,-4.2986,-4.2986,-4.2986,-4.2986,-4.2986,-4.2986,-4.2986,-4.2986,-4.2986,-4.2986,-4.2986,-4.2986,-4.2986,-4.2986,-4.2986,-4.2986,-4.2986,-4.2986,-4.2986,-4.2986,-4.2986,-4.2986,-4.2986,-4.2986,-4.2986,-4.2986,-4.2986,-4.2986,-4.2986,-4.2986,-4.2986,-4.2986,-4.2986,-4.2986,-4.2924,-4.2929,-4.2602,-4.2238,-4.1743,-4.1367,-4.0877,-4.0362,-4.0023,-3.9873,-3.971,-3.9697,-3.9697,-3.9697,-3.9697,-3.9697,-3.9697,-3.9697,-3.9697,-3.9697,-3.9697,-3.9697,-3.9697,-3.9697,-3.9521,-3.9509,-3.9245,-3.9233,-3.9057,-3.9032,-3.8969,-3.8956,-3.8956,-3.8906,-3.8831,-3.8442,-3.8052,-3.7889,-3.7688,-3.755,-3.75,-3.7224,-3.6971,-3.6908,-3.6769,-3.6719,-3.648,-3.6468,-3.6493,-3.6468,-3.6417,-3.6417,-3.6417,-3.6392,-3.638,-3.6342,-3.638,-3.6417,-3.6317,-3.6179,-3.6279,-3.6254,-3.5956,-3.5818,-3.5818,-3.5592,-3.5316,-3.5403,-3.5667,-3.5416,-3.5044,-3.4456,-3.3699,-3.1925,-4.2062,-4.2275,-4.2803,-4.2986,-4.2986,-4.2986,-4.2986,-4.2986,-4.2986,-4.2986,-4.2986,-4.2986,-4.2986,-4.2986,-4.2986,-4.2986,-4.2986,-4.2986,-4.2986,-4.2986,-4.2986,-4.2986,-4.2986,-4.2986,-4.2986,-4.2986,-4.2986,-4.2986,-4.2986,-4.2986,-4.2986,-4.2986,-4.2986,-4.2986,-4.2986,-4.2986,-4.2986,-4.2986,-4.2986,-4.2986,-4.2986,-4.2986,-4.2949,-4.2828,-4.2602,-4.2313,-4.1911,-4.1471,-4.0802,-4.0425,-4.0162,-3.9873,-3.9722,-3.9697,-3.9697,-3.9697,-3.9697,-3.9697,-3.9697,-3.9697,-3.9697,-3.9697,-3.9697,-3.9697,-3.9697,-3.9685,-3.9672,-3.9672,-3.9659,-3.9634,-3.9609,-3.9597,-3.9597,-3.9584,-3.9521,-3.9484,-3.8981,-3.853,-3.8366,-3.8178,-3.8115,-3.8103,-3.7801,-3.75,-3.7337,-3.7186,-3.7033,-3.6744,-3.6581,-3.6644,-3.6669,-3.6531,-3.6417,-3.6417,-3.6417,-3.6417,-3.6417,-3.6417,-3.6417,-3.6417,-3.6417,-3.6405,-3.6405,-3.638,-3.6279,-3.6191,-3.6229,-3.6065,-3.6241,-3.6267,-3.5981,-3.5549,-3.5011,-3.4065,-3.2331,-4.1367,-4.2263,-4.2803,-4.2986,-4.2986,-4.2986,-4.2986,-4.2986,-4.2986,-4.2986,-4.2986,-4.2986,-4.2986,-4.2986,-4.2986,-4.2986,-4.2986,-4.2986,-4.2986,-4.2986,-4.2986,-4.2986,-4.2986,-4.2986,-4.2986,-4.2986,-4.2986,-4.2986,-4.2986,-4.2986,-4.2986,-4.2986,-4.2986,-4.2986,-4.2986,-4.2986,-4.2986,-4.2986,-4.2986,-4.2986,-4.2986,-4.2986,-4.2986,-4.2911,-4.2886,-4.259,-4.2263,-4.2037,-4.1593,-4.1166,-4.0626,-4.0162,-3.9885,-3.9735,-3.9697,-3.9697,-3.9697,-3.9697,-3.9697,-3.9697,-3.9697,-3.9697,-3.9697,-3.9697,-3.9697,-3.9697,-3.9685,-3.9685,-3.9685,-3.9685,-3.9659,-3.9659,-3.9659,-3.9659,-3.9622,-3.9622,-3.9383,-3.9233,-3.912,-3.8894,-3.8756,-3.8504,-3.8178,-3.7977,-3.7889,-3.7776,-3.7701,-3.7412,-3.7061,-3.7021,-3.6933,-3.6782,-3.6619,-3.6417,-3.6417,-3.6417,-3.6417,-3.6417,-3.6417,-3.6417,-3.6417,-3.6417,-3.6417,-3.6417,-3.6417,-3.6342,-3.6405,-3.6417,-3.6405,-3.6355,-3.6367,-3.6053,-3.5435,-3.4088,-3.2104]},{"header":{"parameterUnit":"m.s-1","parameterCategory":1,"la1":31.0,"la2":29.5877,"lo1":-88.7671,"lo2":-86.6584,"dy":0.0162,"dx":0.0185,"nx":115,"ny":88,"refTime":"2026-03-31T00:00:00:Z","depth":0,"parameterNumber":3,"parameterNumberName":"V-component_of_WINDS"},"data":[0.0,0.0,0.0,0.0,0.0,0.0,0.0,0.0,0.0,0.0,0.0,0.0,0.0,0.0,0.0,0.0,0.0,0.0,0.0,0.0,0.0,0.0,0.0,0.0,0.0,0.0,0.0,0.0,0.0,0.0,0.0,0.0,0.0,0.0,0.0,0.0,0.0,0.0,0.0,0.0,0.0,0.0,0.0,0.0,0.0,0.0,0.0,0.0,0.0,0.0,0.0,0.0,0.0,0.0,0.0,0.0,0.0,0.0,0.0,0.0,0.0,0.0,0.0,0.0,0.0,0.0,0.0,0.0,0.0,0.0,0.0,0.0,0.0,0.0,0.0,0.0,0.0,0.0,0.0,0.0,0.0,0.0,0.0,0.0,0.0,0.0,0.0,0.0,0.0,0.0,0.0,0.0,0.0,0.0,0.0,0.0,0.0,0.0,0.0,0.0,0.0,0.0,0.0,0.0,0.0,0.0,0.0,0.0,0.0,0.0,0.0,0.0,0.0,0.0,0.0,0.0,0.0,0.0,0.0,0.0,0.0,0.0,0.0,0.0,0.0,0.0,0.0,0.0,0.0,0.0,0.0,0.0,0.0,0.0,0.0,0.0,0.0,0.0,0.0,0.0,0.0,0.0,0.0,0.0,0.0,0.0,0.0,0.0,0.0,0.0,0.0,0.0,0.0,0.0,0.0,0.0,0.0,0.0,0.0,0.0,0.0,0.0,0.0,0.0,0.0,0.0,0.0,0.0,0.0,0.0,0.0,0.0,0.0,0.0,0.0,0.0,0.0,0.0,0.0,0.0,0.0,0.0,0.0,0.0,0.0,0.0,0.0,0.0,0.0,0.0,0.0,0.0,0.0,0.0,0.0,0.0,0.0,0.0,0.0,0.0,0.0,0.0,0.0,0.0,0.0,0.0,0.0,0.0,0.0,0.0,0.0,0.0,0.0,0.0,0.0,0.0,0.0,0.0,0.0,0.0,0.0,0.0,0.0,0.0,0.0,0.0,0.0,0.0,0.0,0.0,0.0,0.0,0.0,0.0,0.0,0.0,0.0,0.0,0.0,0.0,0.0,0.0,0.0,0.0,0.0,0.0,0.0,0.0,0.0,0.0,0.0,0.0,0.0,0.0,0.0,0.0,0.0,0.0,0.0,0.0,0.0,0.0,0.0,0.0,0.0,0.0,0.0,0.0,0.0,0.0,0.0,0.0,0.0,0.0,0.0,0.0,0.0,0.0,0.0,0.0,0.0,0.0,0.0,0.0,0.0,0.0,0.0,0.0,0.0,0.0,0.0,0.0,0.0,0.0,0.0,0.0,0.0,0.0,0.0,0.0,0.0,0.0,0.0,0.0,0.0,0.0,0.0,0.0,0.0,0.0,0.0,0.0,0.0,0.0,0.0,0.0,0.0,0.0,0.0,0.0,0.0,0.0,0.0,0.0,0.0,0.0,0.0,0.0,0.0,0.0,0.0,0.0,0.0,0.0,0.0,0.0,0.0,0.0,0.0,0.0,0.0,0.0,0.0,0.0,0.0,0.0,0.0,0.0,0.0,0.0,0.0,0.0,0.0,0.0,0.0,0.0,0.0,0.0,0.0,0.0,0.0,0.0,0.0,0.0,0.0,0.0,0.0,0.0,0.0,0.0,0.0,0.0,0.0,0.0,0.0,0.0,0.0,0.0,0.0,0.0,0.0,0.0,0.0,0.0,0.0,0.0,0.0,0.0,0.0,0.0,0.0,0.0,0.0,0.0,0.0,0.0,0.0,0.0,0.0,0.0,0.0,0.0,0.0,0.0,0.0,0.0,0.0,0.0,0.0,0.0,0.0,0.0,0.0,0.0,0.0,0.0,0.0,0.0,0.0,0.0,0.0,0.0,0.0,0.0,0.0,0.0,0.0,0.0,0.0,0.0,0.0,0.0,0.0,0.0,0.0,0.0,0.0,0.0,0.0,0.0,0.0,0.0,0.0,0.0,0.0,0.0,0.0,0.0,0.0,0.0,0.0,0.0,0.0,0.0,0.0,0.0,0.0,0.0,0.0,0.0,0.0,0.0,0.0,0.0,0.0,0.0,0.0,0.0,0.0,0.0,0.0,0.0,0.0,0.0,0.0,0.0,0.0,0.0,0.0,0.0,0.0,0.0,0.0,0.0,0.0,0.0,0.0,0.0,0.0,0.0,0.0,0.0,0.0,0.0,0.0,0.0,0.0,0.0,0.0,0.0,0.0,0.0,0.0,0.0,0.0,0.0,0.0,0.0,0.0,0.0,0.0,0.0,0.0,0.0,0.0,0.0,0.0,0.0,0.0,0.0,0.0,0.0,0.0,0.0,0.0,0.0,0.0,0.0,0.0,0.0,0.0,0.0,0.0,0.0,0.0,0.0,0.0,0.0,0.0,0.0,0.0,0.0,0.0,0.0,0.0,0.0,0.0,0.0,0.0,0.0,0.0,0.0,0.0,0.0,0.0,0.0,0.0,0.0,0.0,0.0,0.0,0.0,0.0,0.0,0.0,0.0,0.0,0.0,0.0,0.0,0.0,0.0,0.0,0.0,0.0,0.0,0.0,0.0,0.0,0.0,0.0,0.0,0.0,0.0,0.0,0.0,0.0,0.0,0.0,0.0,0.0,0.0,0.0,0.0,0.0,0.0,0.0,0.0,0.0,0.0,0.0,0.0,0.0,0.0,0.0,0.0,0.0,0.0,0.0,0.0,0.0,0.0,0.0,0.0,0.0,0.0,0.0,0.0,0.0,0.0,0.0,0.0,0.0,0.0,0.0,0.0,0.0,0.0,0.0,0.0,0.0,0.0,0.0,0.0,0.0,0.0,0.0,0.0,0.0,0.0,0.0,0.0,0.0,0.0,0.0,0.0,0.0,0.0,0.0,0.0,0.0,0.0,0.0,0.0,0.0,0.0,0.0,0.0,0.0,0.0,0.0,0.0,0.0,0.0,0.0,0.0,0.0,0.0,0.0,0.0,0.0,0.0,0.0,0.0,0.0,0.0,0.0,0.0,0.0,0.0,0.0,0.0,0.0,0.0,0.0,0.0,0.0,0.0,0.0,0.0,0.0,0.0,0.0,0.0,0.0,0.0,0.0,0.0,0.0,0.0,0.0,0.0,0.0,0.0,0.0,0.0,0.0,0.0,0.0,0.0,0.0,0.0,0.0,0.0,0.0,0.0,0.0,0.0,0.0,0.0,0.0,0.0,0.0,0.0,0.0,0.0,0.0,0.0,0.0,0.0,0.0,0.0,0.0,0.0,0.0,0.0,0.0,0.0,0.0,0.0,0.0,0.0,0.0,0.0,0.0,0.0,0.0,0.0,0.0,0.0,0.0,0.0,0.0,0.0,0.0,0.0,0.0,0.0,0.0,0.0,0.0,0.0,0.0,0.0,0.0,0.0,0.0,0.0,0.0,0.0,0.0,0.0,0.0,0.0,0.0,0.0,0.0,0.0,0.0,0.0,0.0,0.0,0.0,0.0,0.0,0.0,0.0,0.0,0.0,0.0,0.0,0.0,0.0,0.0,0.0,0.0,0.0,0.0,0.0,0.0,0.0,0.0,0.0,0.0,0.0,0.0,0.0,0.0,0.0,0.0,0.0,0.0,0.0,0.0,0.0,0.0,0.0,0.0,0.0,0.0,0.0,0.0,0.0,0.0,0.0,0.0,0.0,0.0,0.0,0.0,0.0,0.0,0.0,0.0,0.0,0.0,0.0,0.0,0.0,0.0,0.0,0.0,0.0,0.0,0.0,0.0,0.0,0.0,0.0,0.0,0.0,0.0,0.0,0.0,0.0,0.0,0.0,0.0,0.0,0.0,0.0,0.0,0.0,0.0,0.0,0.0,0.0,0.0,0.0,0.0,0.0,0.0,0.0,0.0,0.0,0.0,0.0,0.0,0.0,0.0,0.0,0.0,0.0,0.0,0.0,0.0,0.0,0.0,0.0,0.0,0.0,0.0,0.0,0.0,0.0,0.0,0.0,0.0,0.0,0.0,0.0,0.0,0.0,0.0,0.0,0.0,0.0,0.0,0.0,0.0,0.0,0.0,0.0,0.0,0.0,0.0,0.0,0.0,0.0,0.0,0.0,0.0,0.0,0.0,0.0,0.0,0.0,0.0,0.0,0.0,0.0,0.0,0.0,0.0,0.0,0.0,0.0,0.0,0.0,0.0,0.0,0.0,0.0,0.0,0.0,0.0,0.0,0.0,0.0,0.0,0.0,0.0,0.0,0.0,0.0,0.0,0.0,0.0,0.0,0.0,0.0,0.0,0.0,0.0,0.0,0.0,0.9956,0.0,0.0,0.0,0.0,0.0,0.0,0.0,0.0,0.0,0.0,0.0,0.0,0.0,0.0,0.0,0.0,0.0,0.0,0.0,0.0,0.0,0.0,0.0,0.0,0.0,0.0,0.0,0.0,0.0,0.0,0.0,0.0,0.0,0.0,0.0,0.0,0.0,0.0,0.0,0.0,0.0,0.0,0.0,0.0,0.0,0.0,0.0,0.0,0.0,0.0,0.0,0.0,0.0,0.0,0.0,0.0,0.0,0.0,0.0,0.0,0.0,0.0,0.0,0.0,0.0,0.0,0.0,0.0,0.0,0.0,0.0,0.0,0.0,0.0,0.0,0.0,0.0,0.0,0.0,0.0,0.0,0.0,0.0,0.0,0.0,0.0,0.0,0.0,0.0,0.0,0.0,0.0,0.0,0.0,0.0,0.0,0.0,0.0,0.0,0.0,0.0,0.0,0.0,0.0,0.0,0.0,0.0,0.0,0.0,0.0,1.2388,1.1625,1.1603,1.1075,0.9955,0.0,0.0,0.0,0.0,0.0,0.0,0.0,0.0,0.0,0.0,0.0,0.0,0.0,0.0,0.0,0.0,0.0,0.0,0.0,0.0,0.0,0.0,0.0,0.0,0.0,0.0,0.0,0.0,0.0,0.0,0.0,0.0,0.0,0.0,0.0,0.0,0.0,0.0,0.0,0.0,0.0,0.0,0.0,0.0,0.0,0.0,0.0,0.0,0.0,0.0,0.0,0.0,0.0,0.0,0.0,0.0,0.0,0.0,0.0,0.0,0.0,0.0,0.0,0.0,0.0,0.0,0.0,0.0,0.0,0.0,0.0,0.0,0.0,0.0,0.0,0.0,0.0,0.0,0.0,0.0,0.0,0.0,0.0,0.0,0.0,0.0,0.0,0.0,0.0,0.0,0.0,0.0,0.0,0.0,0.0,0.0,0.0,0.0,0.0,0.0,0.0,0.0,0.0,0.0,0.0,0.0,0.0,0.0,0.0,0.0,0.0,0.0,1.1902,1.1425,1.0357,0.0,0.0,0.0,0.0,0.0,0.0,0.0,0.0,0.0,0.0,0.0,0.0,0.0,0.0,0.0,0.0,0.0,0.0,0.0,0.0,0.0,0.0,0.0,0.0,0.0,0.0,0.0,0.0,0.0,0.0,0.0,0.0,0.0,0.0,0.0,0.0,0.0,0.0,0.0,0.0,0.0,0.0,0.0,0.0,0.0,0.0,0.0,0.0,0.0,0.0,0.0,0.0,0.0,0.0,0.0,0.0,0.0,0.0,0.0,0.0,0.0,0.0,0.0,0.0,0.0,0.0,0.0,0.0,0.0,0.0,0.0,0.0,0.0,0.0,0.0,0.0,0.0,0.0,0.0,0.0,0.0,0.0,0.0,0.0,0.0,0.0,0.0,0.0,0.0,0.0,0.0,0.0,0.0,0.0,0.0,0.0,0.0,0.0,0.0,0.0,0.0,0.0,0.0,0.0,0.0,0.0,0.0,0.0,0.0,0.0,1.2379,1.2325,1.2789,0.0,1.1563,0.0,0.0,0.0,0.0,0.0,0.0,0.0,0.0,0.0,0.0,0.0,0.0,0.0,0.0,0.0,0.0,0.0,0.0,0.0,0.0,0.0,0.0,0.0,0.0,0.0,0.0,0.0,0.0,0.0,0.0,0.0,0.0,0.0,0.0,0.0,0.0,0.0,0.0,0.0,0.0,0.0,0.0,0.0,0.0,0.0,0.0,0.0,0.0,0.0,0.0,0.0,0.0,0.0,0.0,0.0,0.0,0.0,0.0,0.0,0.0,0.0,0.0,0.0,0.0,0.0,0.0,0.0,0.0,0.0,0.0,0.0,0.0,0.0,0.0,0.0,0.0,0.0,0.0,0.0,0.0,0.0,0.0,0.0,0.0,0.0,0.0,0.0,0.0,0.0,0.0,0.0,0.0,0.0,0.0,0.0,0.0,0.0,0.0,0.0,0.0,0.0,0.0,0.0,0.0,0.0,0.0,0.0,0.0,0.0,0.0,1.2388,1.2388,1.2287,1.2052,0.0,0.0,0.0,0.0,0.0,0.0,0.0,0.0,0.0,0.0,0.0,0.0,0.0,0.0,0.0,0.0,0.0,0.0,0.0,0.0,0.0,0.0,0.0,0.0,0.0,0.0,0.0,0.0,0.0,0.0,0.0,0.0,0.0,0.0,0.0,0.0,0.0,0.0,0.0,0.0,0.0,0.0,0.0,0.0,0.0,0.0,0.0,0.0,0.0,0.0,0.0,0.0,0.0,0.0,0.0,0.0,0.0,0.0,0.0,0.0,0.0,0.0,0.0,0.0,0.0,0.0,0.0,0.0,0.0,0.0,0.0,0.0,0.0,0.0,0.0,0.0,0.0,0.0,0.0,0.0,0.0,0.0,0.0,0.0,0.0,0.0,0.0,0.0,0.0,0.0,0.0,0.0,0.0,0.0,0.0,0.0,0.0,0.0,0.0,0.0,0.0,0.0,0.0,0.0,0.0,0.0,0.0,0.0,0.0,0.0,1.2366,0.0,1.2835,1.2328,1.1935,1.171,0.0,0.0,0.0,0.0,0.0,0.0,0.0,0.0,0.0,0.0,0.0,0.0,0.0,0.0,0.0,0.0,0.0,0.0,0.0,0.0,0.0,0.0,0.0,0.0,0.0,0.0,0.0,0.0,0.0,0.0,0.0,0.0,0.0,0.0,0.0,0.0,0.0,0.0,0.0,0.0,0.0,0.0,0.0,0.0,0.0,0.0,0.0,0.0,0.0,0.0,0.0,0.0,0.0,0.0,0.0,0.0,0.0,0.0,0.0,0.0,0.0,0.0,0.0,0.0,0.0,0.0,0.0,0.0,0.0,0.0,0.0,0.0,0.0,0.0,0.0,0.0,0.0,0.0,0.0,0.0,0.0,0.0,0.0,0.0,0.0,0.0,0.0,0.0,0.0,0.0,0.0,0.0,0.0,0.0,0.0,0.0,0.0,0.0,0.0,0.0,0.0,0.0,0.0,0.0,0.0,0.0,0.0,0.0,0.0,1.291,1.2923,1.3964,1.3433,1.2773,0.0,0.0,0.0,0.0,0.0,0.0,0.0,0.0,0.0,0.0,0.0,0.0,0.0,0.0,0.0,0.0,0.0,0.0,0.0,0.0,0.0,0.0,0.0,0.0,0.0,0.0,0.0,0.0,0.0,0.0,0.0,0.0,0.0,0.0,0.0,0.0,0.0,0.0,0.0,0.0,0.0,0.0,0.0,0.0,0.0,0.0,0.0,0.0,0.0,0.0,0.0,0.0,0.0,0.0,0.0,0.0,0.0,0.0,0.0,0.0,0.0,0.0,0.0,0.0,0.0,0.0,0.0,0.0,0.0,0.0,0.0,0.0,0.0,0.0,0.0,0.0,0.0,0.0,0.0,0.0,0.0,0.0,0.0,0.0,0.0,0.0,0.0,0.0,0.0,0.0,0.0,0.0,0.0,0.0,0.0,0.0,0.0,0.0,0.0,0.0,0.0,0.0,0.0,0.0,0.0,0.0,0.0,0.0,0.0,1.1402,1.1701,1.2911,1.4954,1.3382,1.2799,0.0,0.0,0.0,0.0,0.0,0.0,0.0,0.0,0.0,0.0,0.0,0.0,0.0,0.0,0.0,0.0,0.0,0.0,0.0,0.0,0.0,0.0,0.0,0.0,0.0,0.0,0.0,0.0,0.0,0.0,0.0,0.0,0.0,0.0,0.0,0.0,0.0,0.0,0.0,0.0,0.0,0.0,0.0,0.0,0.0,0.0,0.0,0.0,0.0,0.0,0.0,0.0,0.0,0.0,0.0,0.0,0.0,0.0,0.0,0.0,0.0,0.0,0.0,0.0,0.0,0.0,0.0,0.0,0.0,0.0,0.0,0.0,0.0,0.0,0.0,0.0,0.0,0.0,0.0,0.0,0.0,0.0,0.0,0.0,0.0,0.0,0.0,0.0,0.0,0.0,0.0,0.0,0.0,0.0,0.0,0.0,0.0,0.0,0.0,0.0,0.0,0.0,0.0,0.0,0.0,0.0,0.0,0.0,0.0,1.101,0.0,1.3622,0.0,1.3496,1.2904,0.0,0.0,0.0,0.0,0.0,0.0,0.0,0.0,0.0,0.0,0.0,0.0,0.0,0.0,0.0,0.0,0.0,0.0,0.0,0.0,0.0,0.0,0.0,0.0,0.0,0.0,0.0,0.0,0.0,0.0,0.0,0.0,0.0,0.0,0.0,0.0,0.0,0.0,0.0,0.0,0.0,0.0,0.0,0.0,0.0,0.0,0.0,0.0,0.0,0.0,0.0,0.0,0.0,0.0,0.0,0.0,0.0,0.0,0.0,0.0,0.0,0.0,0.0,0.0,0.0,0.0,0.0,0.0,0.0,0.0,0.0,0.0,0.0,0.0,0.0,0.0,0.0,0.0,0.0,0.0,0.0,0.0,0.0,0.0,0.0,0.0,0.0,0.0,0.0,0.0,0.0,0.0,0.0,0.0,0.0,0.0,0.0,0.0,0.0,0.0,0.0,0.0,0.0,0.0,0.0,0.0,0.0,0.0,1.2143,1.3174,1.4742,1.5008,1.384,1.3937,1.3193,0.0,0.0,0.0,0.0,0.0,0.0,0.0,0.0,0.0,0.0,0.0,0.0,0.0,0.0,0.0,0.0,0.0,0.0,0.0,0.0,0.0,0.0,0.0,0.0,0.0,0.0,0.0,0.0,0.0,0.0,0.0,0.0,0.0,0.0,0.0,0.0,0.0,0.0,0.0,0.0,0.0,0.0,0.0,0.0,0.0,0.0,0.0,0.0,0.0,0.0,0.0,0.0,0.0,0.0,0.0,0.0,0.0,0.0,0.0,0.0,0.0,0.0,0.0,0.0,0.0,0.0,0.0,0.0,0.0,0.0,0.0,0.0,0.0,0.0,0.0,0.0,0.0,0.0,0.0,0.0,0.0,0.0,0.0,0.0,0.0,0.0,0.0,0.0,0.0,0.0,0.0,0.0,0.0,0.0,0.0,0.0,0.0,0.0,0.0,0.0,0.0,0.0,0.0,0.0,0.0,0.0,0.0,0.0,0.0,1.3237,1.4428,1.565,1.6675,1.5099,1.4457,0.0,0.0,0.0,0.0,0.0,0.0,0.0,0.0,0.0,0.0,0.0,0.0,0.0,0.0,0.0,0.0,0.0,0.0,0.0,0.0,0.0,0.0,0.0,0.0,0.0,0.0,0.0,0.0,0.0,0.0,0.0,0.0,0.0,0.0,0.0,0.0,0.0,0.0,0.0,0.0,0.0,0.0,0.0,0.0,0.0,0.0,0.0,0.0,0.0,0.0,0.0,0.0,0.0,0.0,0.0,0.0,0.0,0.0,0.0,0.0,0.0,0.0,0.0,0.0,0.0,0.0,0.0,0.0,0.0,0.0,0.0,0.0,0.0,0.0,0.0,0.0,0.0,0.0,0.0,0.0,0.0,0.0,0.0,0.0,0.0,0.0,0.0,0.0,0.0,0.0,0.0,0.0,0.0,0.0,0.0,0.0,0.0,0.0,0.0,0.0,0.0,0.0,0.0,0.0,0.0,0.0,0.0,0.0,0.0,1.5783,1.6386,1.7136,1.8085,1.6343,1.558,1.5905,0.0,0.0,0.0,0.0,0.0,0.0,0.0,0.0,0.0,0.0,0.0,0.0,0.0,0.0,0.0,0.0,0.0,0.0,0.0,0.0,0.0,0.0,0.0,0.0,0.0,0.0,0.0,0.0,0.0,0.0,0.0,0.0,0.0,0.0,0.0,0.0,0.0,0.0,0.0,0.0,0.0,0.0,0.0,0.0,0.0,0.0,0.0,0.0,0.0,0.0,0.0,0.0,0.0,0.0,0.0,0.0,0.0,0.0,0.0,0.0,0.0,0.0,0.0,0.0,0.0,0.0,0.0,0.0,0.0,0.0,0.0,0.0,0.0,0.0,0.0,0.0,0.0,0.0,0.0,0.0,0.0,0.0,0.0,0.0,0.0,0.0,0.0,0.0,0.0,0.0,0.0,0.0,0.0,0.0,0.0,0.0,0.0,0.0,0.0,0.0,0.0,0.0,0.0,0.0,0.0,0.0,0.0,0.0,2.0171,2.0179,1.9541,1.8263,1.7757,1.6699,0.0,0.0,0.0,0.0,0.0,0.0,0.0,0.0,0.0,0.0,0.0,0.0,0.0,0.0,0.0,0.0,0.0,0.0,0.0,0.0,0.0,0.0,0.0,0.0,0.0,0.0,0.0,0.0,0.0,0.0,0.0,0.0,0.0,0.0,0.0,0.0,0.0,0.0,0.0,0.0,0.0,0.0,0.0,0.0,0.0,0.0,0.0,0.0,0.0,0.0,0.0,0.0,0.0,0.0,0.0,0.0,0.0,0.0,0.0,0.0,0.0,0.0,0.0,0.0,0.0,0.0,0.0,0.0,0.0,0.0,0.0,0.0,0.0,0.0,0.0,0.0,0.0,0.0,0.0,0.0,0.0,0.0,0.0,0.0,0.0,0.0,0.0,0.0,0.0,0.0,0.0,0.0,0.0,0.0,0.0,0.0,0.0,0.0,0.0,0.0,0.0,0.0,0.0,0.0,0.0,0.0,0.0,0.0,0.0,2.1359,2.2708,2.2776,2.1485,2.0395,1.8897,0.0,0.0,0.0,0.0,0.0,0.0,0.0,0.0,0.0,0.0,0.0,0.0,0.0,0.0,0.0,0.0,0.0,0.0,0.0,0.0,0.0,0.0,0.0,0.0,0.0,0.0,0.0,0.0,0.0,0.0,0.0,0.0,0.0,0.0,0.0,0.0,0.0,0.0,0.0,0.0,0.0,0.0,0.0,0.0,0.0,0.0,0.0,0.0,0.0,0.0,0.0,0.0,0.0,0.0,0.0,0.0,0.0,0.0,0.0,0.0,0.0,0.0,0.0,0.0,0.0,0.0,0.0,0.0,0.0,0.0,0.0,0.0,0.0,0.0,0.0,0.0,0.0,0.0,0.0,0.0,0.0,0.0,0.0,0.0,0.0,0.0,0.0,0.0,0.0,0.0,0.0,0.0,0.0,0.0,0.0,0.0,0.0,0.0,0.0,0.0,0.0,0.0,0.0,0.0,0.0,0.0,0.0,0.0,2.0662,2.2996,2.4602,2.4956,2.3939,2.2622,2.0718,0.0,0.0,0.0,0.0,0.0,0.0,0.0,0.0,0.0,0.0,0.0,0.0,0.0,0.0,0.0,0.0,0.0,0.0,0.0,0.0,0.0,0.0,0.0,0.0,0.0,0.0,0.0,0.0,0.0,0.0,0.0,0.0,0.0,0.0,0.0,0.0,0.0,0.0,0.0,0.0,0.0,0.0,0.0,0.0,0.0,0.0,0.0,0.0,0.0,0.0,0.0,0.0,0.0,0.0,0.0,0.0,0.0,0.0,0.0,0.0,0.0,0.0,0.0,0.0,0.0,0.0,0.0,0.0,0.0,0.0,0.0,0.0,0.0,0.0,0.0,0.0,0.0,0.0,0.0,0.0,0.0,0.0,0.0,0.0,0.0,0.0,0.0,0.0,0.0,0.0,0.0,0.0,0.0,0.0,0.0,0.0,0.0,0.0,0.0,0.0,0.0,0.0,0.0,0.0,0.0,0.0,0.0,0.0,2.2268,2.4664,2.6004,2.6378,2.5704,2.4343,2.2143,0.0,0.0,0.0,0.0,0.0,0.0,0.0,0.0,0.0,0.0,0.0,0.0,0.0,0.0,0.0,0.0,0.0,0.0,0.0,0.0,0.0,0.0,0.0,0.0,0.0,0.0,0.0,0.0,0.0,0.0,0.0,0.0,0.0,0.0,0.0,0.0,0.0,0.0,0.0,0.0,0.0,0.0,0.0,0.0,0.0,0.0,0.0,0.0,0.0,0.0,0.0,0.0,0.0,0.0,0.0,0.0,0.0,0.0,0.0,0.0,0.0,0.0,0.0,0.0,0.0,0.0,0.0,0.0,0.0,0.0,0.0,0.0,0.0,0.0,0.0,0.0,0.0,0.0,0.0,0.0,0.0,0.0,0.0,0.0,0.0,0.0,0.0,0.0,0.0,0.0,0.0,0.0,0.0,0.0,0.0,0.0,0.0,0.0,0.0,0.0,0.0,0.0,0.0,0.0,0.0,0.0,0.0,0.0,2.2951,2.5337,2.6677,2.7076,2.6393,2.4582,2.2547,0.0,0.0,0.0,0.0,0.0,0.0,0.0,0.0,0.0,0.0,0.0,0.0,0.0,0.0,0.0,0.0,0.0,0.0,0.0,0.0,0.0,0.0,0.0,0.0,0.0,0.0,0.0,0.0,0.0,0.0,0.0,0.0,0.0,0.0,0.0,0.0,0.0,0.0,0.0,0.0,0.0,0.0,0.0,0.0,0.0,0.0,0.0,0.0,1.0622,0.0,0.0,0.0,0.0,0.0,0.0,0.0,0.0,0.0,0.0,0.0,0.0,0.0,0.0,0.0,0.0,0.0,0.0,0.0,0.0,0.0,0.0,0.0,0.0,0.0,0.0,0.0,0.0,0.0,0.0,0.0,0.0,0.0,0.0,0.0,0.0,0.0,0.0,0.0,0.0,0.0,0.0,0.0,0.0,0.0,0.0,0.0,0.0,0.0,0.0,0.0,0.0,0.0,0.0,0.0,0.0,0.0,0.0,0.0,2.4304,2.6467,2.7225,2.7585,2.747,2.5285,2.3176,0.0,0.0,0.0,0.0,0.0,0.0,0.0,0.0,0.0,0.0,0.0,0.0,0.0,0.0,0.0,0.0,0.0,0.0,0.0,0.0,0.0,0.0,0.0,0.0,0.0,0.0,0.0,0.0,0.0,0.0,0.0,0.0,0.0,0.0,0.0,0.0,0.0,0.0,0.0,0.0,0.0,0.0,0.0,0.0,0.0,0.0,0.0,0.0,0.0,0.0,0.0,0.0,0.0,0.0,0.0,0.0,0.0,0.0,0.0,0.0,0.0,0.0,0.0,0.0,0.0,0.0,0.0,0.0,0.0,0.0,0.0,0.0,0.0,0.0,0.0,0.0,0.0,0.0,0.0,0.0,0.0,0.0,0.0,0.0,0.0,0.0,0.0,0.0,0.0,0.0,0.0,0.0,0.0,0.0,0.0,0.0,0.0,0.0,0.0,0.0,0.0,0.0,0.0,0.0,0.0,0.0,0.0,2.2975,2.563,2.7645,2.775,2.8008,2.8547,2.6099,2.3887,2.2054,0.0,0.0,0.0,0.0,0.0,0.0,0.0,0.0,0.0,0.0,0.0,0.0,0.0,0.0,0.0,0.0,0.0,0.0,0.0,0.0,0.0,0.0,0.0,0.0,0.0,0.0,0.0,0.0,0.0,0.0,0.0,0.0,0.0,0.0,0.0,0.0,0.0,0.0,1.0227,1.2506,0.0,0.0,0.0,0.0,0.0,0.0,0.0,0.0,1.2449,0.0,0.0,0.0,0.0,0.0,0.0,0.0,0.0,0.0,0.0,0.0,0.0,0.0,0.0,0.0,0.0,0.0,0.0,0.0,0.0,0.0,0.0,0.0,0.0,0.0,0.0,0.0,0.0,0.0,0.0,0.0,0.0,0.0,0.0,0.0,0.0,0.0,0.0,0.0,0.0,0.0,0.0,0.0,0.0,0.0,0.0,0.0,0.0,0.0,0.0,0.0,0.0,0.0,0.0,0.0,0.0,2.2316,2.3859,2.5845,2.8378,2.8427,2.8487,2.8532,2.6557,2.4754,2.3251,0.0,0.0,0.0,0.0,0.0,0.0,0.0,0.0,0.0,0.0,0.0,0.0,0.0,0.0,0.0,0.0,0.0,0.0,0.0,0.0,0.0,0.0,0.0,0.0,0.0,0.0,0.0,0.0,0.0,0.0,0.0,0.0,0.0,0.0,0.0,0.0,0.0,0.0,0.0,1.5872,1.7246,0.0,0.0,0.0,0.0,0.0,0.0,0.0,0.0,1.272,0.0,0.0,0.0,0.0,0.0,0.0,0.0,0.0,0.0,0.0,0.0,0.0,0.0,0.0,0.0,0.0,0.0,0.0,0.0,0.0,0.0,0.0,0.0,0.0,0.0,0.0,0.0,0.0,0.0,0.0,0.0,0.0,0.0,0.0,0.0,0.0,0.0,0.0,0.0,0.0,0.0,0.0,0.0,0.0,0.0,0.0,0.0,0.0,0.0,0.0,0.0,0.0,0.0,0.0,0.0,2.272,2.4701,2.6767,2.8996,2.8771,2.8757,2.9041,2.6497,2.4605,0.0,0.0,0.0,0.0,0.0,0.0,0.0,0.0,0.0,0.0,0.0,0.0,0.0,0.0,0.0,0.0,0.0,0.0,0.0,0.0,0.0,0.0,0.0,0.0,0.0,0.0,0.0,0.0,0.0,0.0,0.0,0.0,0.0,0.0,0.0,0.0,0.0,0.0,0.0,0.0,1.6948,1.7875,1.716,0.0,0.0,0.0,0.0,0.0,0.0,1.4082,1.3235,0.0,0.0,0.0,0.0,0.0,0.0,0.0,0.0,0.0,0.0,0.0,0.0,0.0,0.0,0.0,0.0,0.0,0.0,0.0,0.0,0.0,0.0,0.0,0.0,0.0,0.0,0.0,0.0,0.0,0.0,0.0,0.0,0.0,0.0,0.0,0.0,0.0,0.0,0.0,0.0,0.0,0.0,0.0,0.0,0.0,0.0,0.0,0.0,0.0,0.0,0.0,0.0,0.0,0.0,0.0,2.2533,2.5232,2.7585,2.9487,2.9071,2.9041,2.9517,2.6482,2.4425,0.0,0.0,0.0,0.0,0.0,0.0,0.0,0.0,0.0,0.0,0.0,0.0,0.0,0.0,0.0,0.0,0.0,0.0,0.0,0.0,0.0,0.0,0.0,0.0,0.0,0.0,0.0,0.0,0.0,0.0,0.0,0.0,0.0,0.0,0.0,0.0,0.0,0.0,0.0,0.0,0.0,1.8544,1.8087,1.8149,0.0,0.0,0.0,0.0,1.7061,1.5666,0.0,0.0,0.0,0.0,0.0,0.0,0.0,0.0,0.0,0.0,0.0,0.0,0.0,0.0,0.0,0.0,0.0,0.0,0.0,0.0,0.0,0.0,0.0,0.0,0.0,0.0,0.0,0.0,0.0,0.0,0.0,0.0,0.0,0.0,0.0,0.0,0.0,0.0,0.0,0.0,0.0,0.0,0.0,0.0,0.0,0.0,0.0,0.0,0.0,0.0,0.0,0.0,0.0,0.0,0.0,0.0,2.208,2.5078,2.756,2.9487,2.9532,2.9532,2.9577,2.6916,2.4896,0.0,0.0,0.0,0.0,0.0,0.0,0.0,0.0,0.0,0.0,0.0,0.0,0.0,0.0,0.0,0.0,0.0,0.0,0.0,0.0,0.0,0.0,0.0,0.0,0.0,0.0,0.0,0.0,0.0,0.0,0.0,0.0,0.0,0.0,0.0,0.0,0.0,0.0,0.0,0.0,0.0,2.1045,1.9058,1.9321,1.9456,0.0,0.0,1.855,1.8652,1.8432,0.0,0.0,0.0,0.0,0.0,0.0,0.0,0.0,0.0,0.0,0.0,0.0,0.0,0.0,0.0,0.0,0.0,0.0,0.0,0.0,0.0,0.0,0.0,0.0,0.0,0.0,0.0,0.0,0.0,0.0,0.0,0.0,0.0,0.0,0.0,0.0,0.0,0.0,0.0,0.0,0.0,0.0,0.0,0.0,0.0,0.0,0.0,0.0,0.0,0.0,0.0,0.0,0.0,0.0,0.0,2.0661,2.3459,2.6281,2.8487,3.0028,3.0103,2.9966,2.9606,2.7006,2.4807,0.0,0.0,0.0,0.0,0.0,0.0,0.0,0.0,0.0,0.0,0.0,0.0,0.0,0.0,0.0,0.0,0.0,0.0,0.0,0.0,0.0,0.0,0.0,0.0,0.0,0.0,0.0,0.0,0.0,0.0,0.0,0.0,0.0,0.0,0.0,0.0,0.0,0.0,0.0,0.0,0.0,0.0,2.0276,2.0467,0.0,0.0,0.0,2.0044,1.9604,0.0,0.0,0.0,0.0,0.0,0.0,0.0,0.0,0.0,0.0,0.0,0.0,0.0,0.0,0.0,0.0,0.0,0.0,0.0,0.0,0.0,0.0,0.0,0.0,0.0,0.0,0.0,0.0,0.0,0.0,0.0,0.0,0.0,0.0,0.0,0.0,0.0,0.0,0.0,0.0,0.0,0.0,0.0,0.0,0.0,0.0,0.0,0.0,0.0,0.0,0.0,0.0,0.0,0.0,0.0,0.0,0.0,2.456,2.726,2.922,3.0447,3.0492,3.0208,2.9592,2.7156,0.0,0.0,0.0,0.0,0.0,0.0,0.0,0.0,0.0,0.0,0.0,0.0,0.0,0.0,0.0,0.0,0.0,0.0,0.0,0.0,0.0,0.0,0.0,0.0,0.0,0.0,0.0,0.8492,0.0,0.0,0.0,0.0,0.0,0.0,0.0,0.0,0.0,0.0,0.0,0.0,0.0,0.0,2.0792,2.138,2.1647,2.16,0.0,0.0,2.1563,2.0927,2.0386,1.9384,0.0,0.0,0.0,0.0,0.0,0.0,0.0,0.0,0.0,0.0,0.0,0.0,0.0,0.0,0.0,0.0,0.0,0.0,0.0,0.0,0.0,0.0,0.0,0.0,0.0,0.0,0.0,0.0,0.0,0.0,0.0,0.0,0.0,0.0,0.0,0.0,0.0,0.0,0.0,0.0,0.0,0.0,0.0,0.0,0.0,0.0,0.0,0.0,0.0,0.0,0.0,0.0,0.0,0.0,0.0,2.456,2.722,2.922,3.0447,3.0492,3.0208,2.9592,2.7604,2.5338,0.0,0.0,0.0,0.0,0.0,0.0,0.0,0.0,0.0,0.0,0.0,0.0,0.0,0.0,0.0,0.0,0.0,0.0,0.0,0.0,0.0,0.0,0.0,0.0,0.0,0.0,0.0,0.0,0.0,0.0,0.0,0.0,0.0,0.0,0.0,0.0,0.0,0.0,0.0,0.0,0.0,2.2161,2.2212,2.2818,2.3475,0.0,0.0,2.3207,2.3173,2.312,2.2107,1.921,0.0,0.0,0.0,0.0,0.0,0.0,0.0,0.0,0.0,0.0,0.0,0.0,0.0,0.0,0.0,0.0,0.0,0.0,0.0,0.0,0.0,0.0,0.0,0.0,0.0,0.0,0.0,0.0,0.0,0.0,0.0,0.0,0.0,0.0,0.0,0.0,0.0,0.0,0.0,0.0,0.0,0.0,0.0,0.0,0.0,0.0,0.0,0.0,0.0,0.0,0.0,0.0,0.0,2.1949,2.5173,2.7859,2.9834,3.1032,3.1107,3.0642,2.9636,2.8049,2.5803,0.0,0.0,0.0,0.0,0.0,0.0,0.0,0.0,0.0,0.0,0.0,0.0,0.0,0.0,0.0,0.0,0.0,0.0,0.0,0.0,0.0,0.0,0.0,0.0,0.0,0.0,0.0,0.0,1.1656,1.1763,1.118,0.0,0.0,0.0,0.0,0.0,0.0,0.0,0.0,0.0,0.0,2.2479,2.2919,2.3628,0.0,0.0,2.4644,2.4441,2.3528,2.3408,2.2361,1.9367,1.8273,0.0,0.0,0.0,0.0,0.0,0.0,0.0,0.0,0.0,0.0,0.0,0.0,0.0,0.0,0.0,0.0,0.0,0.0,0.0,0.0,0.0,0.0,0.0,0.0,0.0,0.0,0.0,0.0,0.0,0.0,0.0,0.0,0.0,0.0,0.0,0.0,0.0,0.0,0.0,0.0,0.0,0.0,0.0,0.0,0.0,0.0,0.0,0.0,0.0,0.0,0.0,0.0,2.2317,2.557,2.8233,3.0208,3.1481,3.1496,3.0972,2.9879,2.8603,2.6447,0.0,0.0,0.0,0.0,0.0,0.0,0.0,0.0,0.0,0.0,0.0,0.0,0.0,0.0,0.0,0.0,0.0,0.0,0.0,0.0,0.0,0.0,0.0,0.0,0.0,0.0,0.0,0.0,1.279,1.2573,1.1082,0.0,0.0,0.0,0.0,0.0,0.0,0.0,0.0,0.0,0.0,2.2987,2.3934,2.4509,2.4897,2.5117,2.522,2.4915,2.3898,2.3714,2.2798,2.0039,0.0,0.0,0.0,0.0,0.0,0.0,0.0,0.0,0.0,0.0,0.0,0.0,0.0,0.0,0.0,0.0,0.0,0.0,0.0,0.0,0.0,0.0,0.0,0.0,0.0,0.0,0.0,1.9693,0.0,0.0,1.8717,0.0,0.0,0.0,0.0,0.0,0.0,0.0,0.0,0.0,0.0,0.0,0.0,0.0,0.0,0.0,0.0,0.0,0.0,0.0,0.0,0.0,0.0,2.2332,2.5561,2.8259,3.0223,3.1451,3.1496,3.1167,3.0462,2.925,2.7305,2.4575,0.0,0.0,0.0,0.0,0.0,0.0,0.0,0.0,0.0,0.0,0.0,0.0,0.0,0.0,0.0,0.0,0.0,0.0,0.0,0.0,0.0,0.0,0.0,0.0,0.0,0.0,1.3005,1.2841,1.2109,0.0,0.0,0.0,0.0,0.0,0.0,0.0,0.0,0.0,0.0,2.2429,2.39,2.5321,2.5559,2.5828,2.6505,2.5455,2.4525,2.4491,2.4474,2.3712,0.0,0.0,0.0,0.0,0.0,0.0,0.0,0.0,0.0,0.0,0.0,0.0,0.0,0.0,0.0,0.0,0.0,0.0,0.0,0.0,0.0,0.0,0.0,0.0,0.0,0.0,0.0,2.3131,2.2328,0.0,0.0,0.0,0.0,0.0,0.0,0.0,0.0,0.0,0.0,0.0,2.5353,2.6432,0.0,0.0,0.0,0.0,0.0,0.0,0.0,0.0,0.0,0.0,0.0,0.0,2.3206,2.56,2.8233,3.0208,3.1451,3.1496,3.1167,3.0507,2.9265,2.6946,2.343,0.0,0.0,0.0,0.0,0.0,0.0,0.0,0.0,0.0,0.0,0.0,0.0,0.0,0.0,0.0,0.0,0.0,0.0,0.0,0.0,0.0,0.0,0.0,0.0,0.0,1.277,0.0,0.0,0.0,0.0,0.0,0.0,0.0,0.0,0.0,0.0,0.0,1.9679,2.1674,2.363,2.505,2.5558,2.6015,2.642,0.0,0.0,0.0,0.0,0.0,0.0,0.0,0.0,0.0,0.0,0.0,0.0,0.0,0.0,2.0564,1.6373,1.5392,1.5375,1.5866,0.0,0.0,0.0,0.0,0.0,0.0,0.0,0.0,0.0,0.0,0.0,0.0,0.0,0.0,2.6168,0.0,2.5114,0.0,0.0,0.0,0.0,0.0,0.0,0.0,0.0,2.6991,2.8128,2.8338,2.9205,2.9041,0.0,2.7545,2.5435,0.0,0.0,0.0,0.0,0.0,0.0,0.0,0.0,2.3969,2.5959,2.8562,3.0432,3.1436,3.1496,3.1286,3.0823,2.9385,2.7066,2.3804,2.1999,2.0352,0.0,0.0,0.0,0.0,0.0,0.0,0.0,0.0,0.0,0.0,0.0,0.0,0.0,0.0,0.0,0.0,0.0,0.0,0.0,0.0,0.0,0.0,0.0,1.3826,0.0,0.0,0.0,0.0,0.0,0.0,0.0,0.0,0.0,1.879,1.9848,2.1312,2.3532,2.4864,2.5778,2.6285,0.0,0.0,0.0,0.0,0.0,0.0,0.0,2.5389,2.4677,2.4374,2.3953,2.319,2.3663,2.4002,2.3477,0.0,0.0,1.9396,1.8488,1.8465,1.8939,1.9024,1.9176,1.9638,1.993,2.0128,0.0,0.0,0.0,0.0,0.0,0.0,0.0,0.0,2.8876,2.8846,0.0,2.8064,0.0,0.0,0.0,0.0,0.0,2.7006,0.0,0.0,3.121,3.2183,3.1585,3.1615,3.1271,3.0703,3.1824,3.0761,2.754,2.3221,0.0,0.0,0.0,0.0,0.0,0.0,2.4672,2.6662,2.919,3.0808,3.1466,3.1496,3.1481,3.1406,2.9624,2.7709,2.5749,2.4343,2.2173,1.9046,1.8747,0.0,0.0,0.0,0.0,0.0,0.0,0.0,0.0,0.0,0.0,0.0,0.0,0.0,0.0,0.0,0.0,0.0,0.0,0.0,0.0,1.4032,0.0,0.0,0.0,0.0,0.0,0.0,0.0,0.0,0.0,0.0,2.1102,2.1933,2.3446,2.6268,0.0,0.0,0.0,0.0,2.7029,2.7739,2.7249,2.7046,2.7722,2.779,2.7554,2.686,0.0,0.0,2.5015,2.5236,2.5287,2.3866,2.4288,2.4609,2.4525,2.3695,2.3238,2.3257,2.3173,2.3374,2.3427,2.3596,2.4152,3.4891,0.0,0.0,0.0,0.0,3.1225,3.2302,3.4203,3.3724,3.2991,3.2048,3.1405,0.0,0.0,0.0,0.0,0.0,0.0,2.9355,3.0703,3.1929,3.2901,3.3649,3.4143,3.4008,3.338,3.326,3.2243,3.0345,2.8577,2.5285,2.0677,0.0,0.0,0.0,0.0,2.6497,2.8023,2.9669,3.0808,3.1481,3.1496,3.1271,3.0806,2.9834,2.8577,2.7076,2.5734,2.4163,2.2278,2.0408,0.0,0.0,0.0,0.0,0.0,0.0,0.0,0.0,0.0,0.0,0.0,0.0,0.0,0.0,0.0,0.0,0.0,0.0,0.0,1.4077,1.4571,1.4721,0.0,0.0,0.0,0.0,0.0,0.0,0.0,0.0,0.0,2.3701,2.4165,2.4877,0.0,0.0,2.7977,2.7824,2.8112,2.8417,2.8619,2.8485,0.0,2.8619,2.8162,2.7908,2.8264,2.8536,2.8416,2.7825,2.7893,2.7893,2.7436,2.7114,2.6843,2.6776,2.5372,2.4288,2.4203,2.4186,2.4186,2.4203,2.4372,2.4508,3.9783,3.6282,3.4545,3.4472,3.54,3.531,3.6312,3.7988,3.7345,3.6611,3.5789,3.4861,3.3155,3.0866,2.9684,0.0,0.0,0.0,3.1854,3.3484,3.4158,3.4741,3.528,3.5699,3.5534,3.4908,3.4472,3.3739,3.2691,3.2287,2.9759,2.533,0.0,0.0,2.4155,2.6551,2.8308,2.9355,3.0642,3.1375,3.1496,3.1496,3.1316,3.0883,3.0283,2.9472,2.8423,2.7121,2.5764,2.4433,2.2388,2.0288,0.0,0.0,0.0,0.0,0.0,0.0,0.0,0.0,0.0,0.0,0.0,1.0093,0.8821,0.0,0.0,0.0,1.2475,1.4079,1.58,1.5964,0.0,0.0,0.0,0.0,0.0,0.0,0.0,2.0895,2.2297,2.3868,2.5684,2.6404,2.697,2.7604,2.846,2.8907,2.8737,0.0,2.9111,2.9381,2.945,2.9551,2.9822,2.9465,2.933,2.977,2.9873,2.9754,2.9465,2.9448,2.9313,2.9027,2.8602,2.8281,2.8263,2.7148,2.6048,2.5506,2.5371,2.5371,2.5371,2.5388,2.5371,4.3733,4.2366,3.9305,3.8272,3.8691,3.9305,3.9918,4.0412,3.9828,3.9574,3.9433,3.8153,3.6507,3.4638,3.2811,0.0,3.2961,3.4158,3.534,3.6582,3.715,3.7105,3.66,3.6507,3.6178,3.5579,3.5534,3.5175,3.4593,3.4563,3.332,3.0836,2.9037,2.8049,2.7914,2.9157,3.0088,3.0672,3.1884,3.2228,3.16,3.154,3.1525,3.157,3.0851,3.0148,2.9579,2.8304,2.6961,2.5659,2.4373,2.2233,1.9151,0.0,0.0,0.0,0.0,0.0,0.0,0.0,0.0,0.0,0.0,0.0,0.0,0.0,0.0,0.0,1.4944,0.0,1.7758,1.7863,0.0,0.0,0.0,1.8041,1.8162,1.9851,2.14,2.2386,0.0,0.0,2.7073,2.8396,2.9259,2.9292,2.9237,2.9397,3.0006,2.9567,2.9414,2.9996,3.0154,3.041,3.0822,3.0965,3.1004,3.1038,3.119,3.0886,3.0328,3.0173,2.9905,2.9399,2.9145,2.9094,2.9094,2.8925,2.8553,2.7114,2.6877,2.6843,2.6742,2.6742,2.6691,4.5349,4.4526,4.3748,4.2357,4.0696,4.0846,4.101,4.1145,4.098,4.0905,4.0816,3.9529,3.8123,3.6686,3.6222,3.6103,3.6267,3.6567,3.6881,3.7195,3.733,3.733,3.7165,3.6716,3.6402,3.6222,3.5744,3.5429,3.5265,3.5265,3.4666,3.3605,3.3096,3.1853,2.9924,3.115,3.1898,3.2004,3.2347,3.2407,3.2243,3.1765,3.175,3.2228,3.0672,2.9729,2.9592,2.8304,2.6986,2.5674,2.4799,2.3334,2.1081,1.8894,0.0,0.0,0.0,0.0,0.0,0.0,0.0,0.0,0.0,1.3837,1.1546,0.0,1.5965,0.0,1.7641,1.8899,1.9181,1.9243,0.0,0.0,2.0961,2.1141,2.2099,2.3065,2.3781,2.4025,2.5379,2.6626,2.7422,2.8628,2.9635,3.0115,3.0466,3.0548,3.0192,3.0463,3.058,3.0375,3.0644,3.083,3.0662,3.0898,3.119,3.119,3.119,3.114,3.0954,3.0937,3.0869,3.0666,3.0192,2.9888,2.9854,2.9416,2.8942,2.8536,2.8451,2.8247,2.7672,2.7536,2.7367,4.6381,4.5753,4.5753,4.4721,4.3105,4.2806,4.2686,4.2641,4.2111,4.1856,4.1796,4.0741,3.9709,3.8736,3.8437,3.8302,3.8287,3.7988,3.8003,3.8302,3.8302,3.8138,3.7838,3.7494,3.718,3.6881,3.6252,3.5938,3.5923,3.5654,3.531,3.4936,3.4936,3.4203,3.2811,3.317,3.3395,3.338,3.2811,3.2497,3.2482,3.1839,3.1675,3.1989,3.0731,2.9714,2.916,2.8154,2.7121,2.6093,2.5128,2.3857,2.2218,2.0468,1.8927,0.0,0.0,0.0,0.0,0.0,0.0,0.0,0.0,0.0,0.0,0.0,1.7518,1.8446,1.9779,2.0812,2.138,2.1695,2.2218,2.3032,2.3295,2.3595,2.4029,2.5181,2.5944,2.5944,2.7111,2.8094,2.8479,2.9353,3.0057,3.0443,3.0971,3.1138,3.0825,3.1039,3.1265,3.1243,3.1518,3.1633,3.1229,3.1177,3.119,3.119,3.119,3.119,3.119,3.119,3.119,3.1157,3.0869,3.0598,3.0581,3.0277,2.9973,2.9956,2.9956,2.955,2.8569,2.8349,2.818,4.7055,4.6414,4.6456,4.6112,4.5484,4.4855,4.4526,4.4362,4.3135,4.2545,4.2366,4.1796,4.1183,4.0487,3.9933,3.9664,3.9619,3.8945,3.8975,3.9529,3.9418,3.9095,3.8527,3.8437,3.8093,3.7524,3.6896,3.6567,3.6462,3.5908,3.5579,3.5504,3.5489,3.5489,3.5474,3.4906,3.4548,3.4369,3.3125,3.2557,3.2632,3.2049,3.175,3.172,3.0956,2.9909,2.8652,2.7959,2.7255,2.6482,2.545,2.4261,2.3017,2.2239,2.0961,0.0,1.8882,0.0,0.0,0.0,0.0,0.0,0.0,0.0,0.0,1.8041,1.9283,2.0912,2.1844,2.2742,2.3759,2.453,2.4784,2.4343,2.5285,2.5756,2.5382,2.6782,2.7854,2.7854,2.8888,2.9594,2.9708,3.019,3.0515,3.0669,3.1082,3.139,3.1399,3.138,3.1533,3.2148,3.2223,3.2078,3.196,3.1651,3.1326,3.1241,3.119,3.119,3.119,3.119,3.119,3.119,3.1173,3.1157,3.119,3.1157,3.1157,3.1089,3.1072,3.0649,2.9517,2.9145,2.9111,4.7713,4.713,4.7115,4.704,4.6875,4.6217,4.5633,4.505,4.4272,4.3344,4.241,4.2276,4.1841,4.1205,4.1055,4.0995,4.098,4.0322,4.0083,4.0187,3.9679,3.9313,3.92,3.8661,3.8332,3.8167,3.7554,3.6971,3.6492,3.6372,3.6028,3.5504,3.5489,3.5489,3.5489,0.0,0.0,0.0,3.2901,3.2766,3.3275,3.3185,3.3125,3.308,3.142,0.0,2.8667,2.7959,2.7046,2.5884,2.6063,0.0,0.0,0.0,0.0,0.0,0.0,0.0,0.0,0.0,0.0,0.0,2.2263,2.15,2.015,2.2004,2.3214,2.3116,2.4642,2.554,2.5247,2.6318,2.721,2.7619,2.7874,2.8188,2.8618,2.9007,2.9217,2.9232,2.9457,2.9816,3.028,3.0451,3.0717,3.1196,3.1419,3.1475,3.147,3.1431,3.1274,3.0989,3.1461,3.1663,3.1501,3.1846,3.1844,3.1413,3.119,3.1207,3.1224,3.1207,3.119,3.119,3.119,3.119,3.119,3.119,3.119,3.119,3.119,3.0937,3.0091,2.9888,2.9719,4.8386,0.0,4.7788,4.7608,0.0,4.695,4.6621,4.6217,4.5229,4.4242,4.3314,4.2985,4.2656,4.2342,4.1998,4.1901,4.1871,4.1175,4.0711,4.0397,4.0053,3.9723,3.9373,3.9065,3.8886,3.8871,3.8212,3.7734,3.7404,3.6791,3.6312,3.5983,3.5669,3.5489,3.5489,3.5175,3.4666,3.4009,3.3649,3.3649,3.3979,3.3664,3.335,3.2991,3.1719,0.0,0.0,0.0,0.0,0.0,0.0,0.0,0.0,0.0,0.0,2.3655,2.3595,2.3452,2.3182,2.4051,2.4732,2.5061,2.5689,2.5226,2.3259,2.4657,2.5734,2.6063,2.7006,2.7575,2.7604,2.8199,2.8723,2.9026,2.9086,2.9247,2.9577,2.9864,3.0043,3.0088,3.0342,3.0672,3.0928,3.0972,3.1122,3.1436,3.1496,3.1496,3.1508,3.1472,3.1416,3.1506,3.1773,3.2096,3.2341,3.2282,3.2383,3.2221,3.1968,3.1765,3.1732,3.1427,3.119,3.119,3.119,3.119,3.119,3.119,3.119,3.119,3.119,3.1106,3.07,3.0649,3.0548,4.9105,4.8461,4.8327,4.7982,4.7474,4.7354,4.7309,4.7219,0.0,0.0,0.0,4.3753,4.3454,4.3409,4.2821,4.2575,4.253,4.1886,4.1302,4.0741,4.0621,4.0217,3.9568,3.9589,3.9493,3.9358,3.8841,3.8512,3.8347,3.733,3.6701,3.6462,3.5953,3.5624,3.5474,3.4951,3.4683,3.4683,3.4578,3.4503,3.4503,3.4053,3.3529,3.2871,3.2183,3.0987,2.919,2.8457,2.7809,2.7156,2.6602,2.6258,2.6144,2.6647,2.6886,2.6821,2.73,2.742,2.6991,2.748,2.76,2.7156,2.8353,2.8278,2.6288,2.6737,2.7575,2.8682,2.8876,2.916,2.9684,2.9891,2.9924,2.9924,2.9924,2.9924,2.9968,3.0357,3.0687,3.0746,3.1122,3.1496,3.1466,3.1466,3.1496,3.1496,3.1496,3.1496,3.1496,3.1493,3.166,3.2103,3.2279,3.2627,3.2878,3.2765,3.2609,3.274,3.2402,3.2169,3.2052,3.1645,3.126,3.1007,3.112,3.1147,3.1069,3.1112,3.119,3.119,3.119,3.119,3.119,3.119,3.114,4.9718,4.912,4.8521,4.8222,4.8102,4.7534,4.7309,4.7249,4.6501,4.5798,4.5125,4.4466,4.4167,4.4137,4.3454,4.3155,4.315,4.256,4.2216,4.2096,4.1542,4.0891,4.0277,4.0262,3.9963,3.9439,3.932,3.896,3.8422,3.8197,3.7584,3.6596,3.6387,3.6073,3.5534,3.5415,3.537,3.534,3.4786,3.4503,3.4503,3.4966,3.4906,3.4218,3.3544,3.2572,3.1137,3.0432,2.9804,2.9205,2.9097,2.8757,2.8233,2.8293,2.8079,2.751,2.7555,2.7794,2.8293,2.8412,2.8667,2.9175,3.0372,3.027,2.8412,2.8786,2.9277,2.9475,3.0011,3.0268,3.0402,3.0898,3.1227,3.1227,3.1227,3.1241,3.1227,3.1316,3.1421,3.1421,3.1421,3.154,3.1615,3.157,3.1555,3.1525,3.1525,3.1496,3.1496,3.1496,3.1524,3.171,3.221,3.2291,3.2097,3.2219,3.2329,3.175,3.1779,3.179,3.186,3.1681,3.1365,3.0697,3.1145,3.1146,3.0734,3.0878,3.1148,3.1224,3.119,3.119,3.119,3.119,3.119,5.0391,4.9793,4.9479,4.8925,4.8237,4.7578,4.7309,4.7279,4.6995,4.6471,4.5813,4.514,4.4646,4.4302,4.3962,4.3673,4.329,4.303,4.2701,4.2381,4.2081,4.1564,4.0935,4.0576,4.0247,3.9933,3.9538,3.926,3.8931,3.8586,3.8093,3.7494,3.6851,3.6327,3.6043,3.5684,3.5489,3.5489,3.519,3.5073,3.504,3.534,3.5175,3.4518,3.4173,3.341,3.2079,3.1735,3.13,3.0657,3.0642,3.0479,3.0195,3.0522,3.0582,3.0298,3.0597,3.0926,3.1225,3.1255,3.1375,3.1704,3.2243,3.2228,3.1345,3.1524,3.1704,3.1748,3.1973,3.2123,3.2123,3.2407,3.2602,3.2557,3.2602,3.2602,3.2602,3.2587,3.2602,3.2527,3.2258,3.2168,3.2527,3.2258,3.2049,3.2019,3.1765,3.1511,3.1496,3.1496,3.1496,3.1524,3.1781,3.2053,3.2044,3.2304,3.2685,3.3024,3.2788,3.2718,3.2909,3.278,3.2352,3.2122,3.2259,3.2126,3.1516,3.1567,3.161,3.1241,3.119,3.119,3.119,3.119,3.119,5.0915,5.042,5.0255,4.9494,4.8252,4.7743,4.7444,4.7309,4.7309,4.7025,4.6486,4.5828,4.5244,4.4766,4.4466,4.3992,4.3544,4.3349,4.306,4.265,4.262,4.2237,4.1647,4.107,4.0696,4.0382,3.9873,3.9574,3.9364,3.8871,3.8527,3.8287,3.7255,3.6626,3.651,3.5983,3.5654,3.5504,3.5489,3.5489,3.5489,3.5489,3.525,3.4771,3.4711,3.4233,3.3245,3.3036,3.2721,3.2243,3.2034,3.1944,3.1974,3.2452,3.2736,3.2751,3.3215,3.3499,3.3499,3.3499,3.3499,3.3499,3.3634,3.3709,3.3724,3.3858,3.3799,3.3559,3.341,3.344,3.3395,3.344,3.3499,3.3499,3.3499,3.344,3.3484,3.3499,3.3499,3.344,3.3036,3.2931,3.323,3.2916,3.2437,3.2153,3.1809,3.1525,3.1496,3.1496,3.1496,3.1496,3.1496,3.171,3.2272,3.2296,3.2698,3.3779,3.3319,3.3153,3.3481,3.3452,3.3228,3.3045,3.3244,3.2986,3.2505,3.2465,3.2219,3.1715,3.1549,3.1427,3.1224,3.119,3.119,5.1184,5.1035,5.045,4.9479,4.8371,4.8222,4.7848,4.7354,4.7309,4.7279,4.7115,4.6531,4.6187,4.5978,4.4844,4.4332,4.4182,4.3559,4.3275,4.3215,4.3215,4.291,4.2336,4.2231,4.1549,4.0561,4.0337,3.9978,3.9448,3.9349,3.899,3.8377,3.7674,3.706,3.6567,3.6432,3.6118,3.5519,3.5489,3.5489,3.5489,3.5489,3.5474,3.5429,3.54,3.537,3.5085,3.4637,3.4294,3.4189,3.3619,3.3305,3.332,3.338,3.3425,3.341,3.3484,3.3499,3.3529,3.3499,3.3559,3.3544,3.4114,3.4414,3.4444,3.4951,3.4771,3.3888,3.3544,3.3604,3.3514,3.3574,3.3634,3.3694,3.3634,3.3499,3.3589,3.3499,3.3499,3.3499,3.3469,3.344,3.3469,3.2961,3.2317,3.1854,3.1645,3.1496,3.1496,3.1496,3.1496,3.1496,3.1496,3.1524,3.1668,3.1611,3.1866,3.1977,3.1849,3.2292,3.2877,3.3069,3.2756,3.3435,3.3353,3.3427,3.3006,3.2854,3.3034,3.2412,3.2124,3.1989,3.141,3.119,3.1207,5.1229,5.1199,5.0883,5.0255,4.9404,4.8626,4.8132,4.7863,4.7474,4.7309,4.7279,4.7025,4.6681,4.6264,4.5696,4.5289,4.4855,4.4172,4.3913,4.3828,4.3469,4.3155,4.2925,4.2575,4.2081,4.1504,4.0786,4.0262,3.9978,3.9619,3.926,3.896,3.8332,3.7853,3.7599,3.7225,3.6716,3.6103,3.6088,3.5908,3.5549,3.5489,3.5489,3.5489,3.5489,3.5489,3.5474,3.522,3.5085,3.507,3.4816,3.4681,3.4681,3.4696,3.4681,3.4681,3.4681,3.4696,3.4696,3.4681,3.4681,3.4681,3.4921,3.5085,3.51,3.5355,3.525,3.4816,3.4681,3.4681,3.4666,3.4681,3.4681,3.4681,3.4681,3.4666,3.4681,3.4666,3.4681,3.4637,3.3978,3.3664,3.386,3.3155,3.2467,3.2064,3.1795,3.1511,3.1496,3.1496,3.1496,3.1496,3.1496,3.1496,3.1496,3.1496,3.1668,3.2007,3.2132,3.2449,3.3401,3.3761,3.3907,3.4211,3.4452,3.4369,3.3867,3.3782,3.3812,3.3152,3.2479,3.2175,3.1887,3.1478,3.1258,5.1229,5.1229,5.1229,5.0794,5.0121,4.9239,4.8611,4.8237,4.7773,4.7489,4.7309,4.7309,4.704,4.6606,4.6369,4.6037,4.5529,4.4885,4.4481,4.4287,4.3768,4.3469,4.3245,4.288,4.256,4.2276,4.1414,4.0756,4.0412,3.9948,3.9604,3.9364,3.8901,3.8571,3.8347,3.7883,3.736,3.6806,3.6746,3.6492,3.6088,3.5848,3.5684,3.5534,3.5489,3.5489,3.5489,3.5489,3.5489,3.5489,3.5489,3.5489,3.5489,3.5489,3.5489,3.5489,3.5489,3.5489,3.5489,3.5489,3.5489,3.5489,3.5489,3.5489,3.5489,3.5489,3.5489,3.5459,3.5489,3.5459,3.5489,3.5489,3.5489,3.5489,3.5489,3.5489,3.5459,3.5489,3.5444,3.54,3.4472,3.3739,3.3769,3.308,3.2437,3.2123,3.178,3.1496,3.1496,3.1496,3.1496,3.1496,3.1496,3.1496,3.1496,3.1496,3.1796,3.2035,3.2203,3.2625,3.3971,3.426,3.4712,3.4712,3.5328,3.5459,3.4852,3.4715,3.4539,3.3829,3.3152,3.2564,3.2242,3.1819,3.1461,5.1229,5.1229,5.1229,5.0855,5.0181,5.0091,4.9434,4.8401,4.8252,4.7893,4.7384,4.7309,4.7294,4.7189,4.6636,4.6322,4.6187,4.5574,4.496,4.4466,4.4287,4.3928,4.3319,4.326,4.297,4.2515,4.2261,4.1587,4.0502,4.0352,4.0038,3.9454,3.9349,3.9035,3.8527,3.8392,3.8018,3.7434,3.7375,3.733,3.721,3.6716,3.6148,3.5684,3.5504,3.5489,3.5489,3.5489,3.5489,3.5489,3.5489,3.5489,3.5489,3.5489,3.5489,3.5489,3.5489,3.5489,3.5489,3.5489,3.5489,3.5489,3.5489,3.5489,3.5489,3.5489,3.5489,3.5489,3.5489,3.5489,3.5489,3.5489,3.5489,3.5489,3.5489,3.5489,3.5489,3.5489,3.5489,3.5355,3.4666,3.3754,3.2766,3.2542,3.2168,3.178,3.1525,3.1496,3.1496,3.1496,3.1496,3.1496,3.1496,3.1496,3.1496,3.1496,3.1496,3.1697,3.1894,3.2048,3.2917,3.3761,3.4447,3.5068,3.5293,3.543,3.5504,3.5397,3.5115,3.4556,3.3846,3.3271,3.2936,3.2462,3.2073,5.1229,5.1229,5.1229,5.1065,5.0779,5.039,4.9957,4.9464,4.8626,4.8162,4.7878,4.7504,4.7309,4.7309,4.707,4.695,4.6875,4.6247,4.5813,4.5499,4.4736,4.4182,4.3917,4.3499,4.32,4.2955,4.2605,4.1946,4.107,4.0621,4.0292,4.0023,3.9619,3.9275,3.908,3.905,3.8721,3.8108,3.8033,3.7838,3.7464,3.718,3.6956,3.6701,3.5923,3.5489,3.5489,3.5489,3.5489,3.5489,3.5489,3.5489,3.5489,3.5489,3.5489,3.5489,3.5489,3.5489,3.5489,3.5489,3.5489,3.5489,3.5489,3.5489,3.5489,3.5489,3.5489,3.5489,3.5489,3.5489,3.5489,3.5489,3.5489,3.5489,3.5489,3.5489,3.5489,3.5489,3.534,3.4816,3.3933,3.2856,3.2213,3.1869,3.1765,3.1555,3.1496,3.1496,3.1496,3.1496,3.1496,3.1496,3.1496,3.1496,3.1496,3.1496,3.1496,3.1496,3.1625,3.2007,3.268,3.2986,3.3547,3.4252,3.4681,3.4941,3.4925,3.5157,3.5025,3.511,3.4418,3.3924,3.3783,3.3275,3.2679,5.1229,5.1229,5.1229,5.1229,5.1169,5.0704,5.039,5.0121,4.9299,4.8686,4.8267,4.7803,4.7519,4.7324,4.7309,4.7309,4.7264,4.683,4.6488,4.6262,4.5364,4.4736,4.4287,4.3813,4.3499,4.326,4.2895,4.2366,4.1728,4.125,4.092,4.0696,4.0053,3.9738,3.9657,3.9529,3.917,3.8781,3.8721,3.8497,3.8078,3.7838,3.7719,3.7569,3.6671,3.6013,3.5833,3.5624,3.5489,3.5489,3.5489,3.5489,3.5489,3.5489,3.5489,3.5489,3.5489,3.5489,3.5489,3.5489,3.5489,3.5489,3.5489,3.5489,3.5489,3.5489,3.5489,3.5489,3.5489,3.5489,3.5489,3.5489,3.5489,3.5489,3.5489,3.54,3.5205,3.516,3.4711,3.3918,3.314,3.2273,3.166,3.154,3.1511,3.1496,3.1496,3.1496,3.1496,3.1496,3.1496,3.1496,3.1496,3.1496,3.1496,3.1496,3.1496,3.1496,3.1496,3.1866,3.2216,3.2422,3.2761,3.3417,3.3836,3.412,3.4431,3.4712,3.4965,3.5174,3.4879,3.4292,3.4169,3.4049,3.3254,5.1229,5.1229,5.1229,5.1229,5.1214,5.1154,5.0779,5.03,5.0136,4.9449,4.8596,4.8327,4.7967,4.7459,4.7429,4.7354,4.7294,4.7219,4.692,4.6384,4.619,4.5544,4.4526,4.4392,4.3988,4.3409,4.3305,4.2985,4.2425,4.2246,4.1931,4.1369,4.0741,4.0352,4.0367,3.9798,3.9418,3.9349,3.9284,3.9284,3.9298,3.8706,3.8392,3.8332,3.7704,3.7105,3.6567,3.5953,3.5654,3.5579,3.5564,3.5519,3.5504,3.5489,3.5489,3.5489,3.5489,3.5489,3.5489,3.5489,3.5489,3.5489,3.5489,3.5489,3.5489,3.5489,3.5489,3.5489,3.5489,3.5489,3.5489,3.5489,3.5489,3.5489,3.5489,3.5265,3.4833,3.4533,3.4008,3.3006,3.2587,3.2213,3.1705,3.16,3.1615,3.1525,3.1496,3.1496,3.1496,3.1496,3.1496,3.1496,3.1496,3.1496,3.1496,3.1496,3.1496,3.1496,3.1496,3.1682,3.2035,3.2299,3.2394,3.2917,3.3287,3.3582,3.3912,3.4161,3.426,3.4422,3.4354,3.4343,3.4163,3.3844,3.3372,5.1229,5.1229,5.1229,5.1229,5.1229,5.1229,5.1079,5.0855,5.0405,5.0002,4.9598,4.9149,4.864,4.8102,4.7982,4.7728,4.7324,4.7294,4.7189,4.695,4.6546,4.6085,4.5622,4.52,4.4631,4.3977,4.3499,4.32,4.297,4.262,4.2276,4.1991,4.1399,4.0831,4.0472,4.0187,3.9903,3.9433,3.9388,3.9388,3.9409,3.9215,3.9095,3.902,3.8437,3.7973,3.7813,3.7165,3.6626,3.6207,3.6178,3.5983,3.5609,3.5489,3.5489,3.5489,3.5489,3.5489,3.5489,3.5489,3.5489,3.5489,3.5489,3.5489,3.5489,3.5489,3.5489,3.5489,3.5489,3.5489,3.5489,3.5489,3.5489,3.5489,3.5489,3.5429,3.504,3.4337,3.3709,3.326,3.2796,3.2213,3.1795,3.1824,3.2019,3.1675,3.1585,3.1585,3.1555,3.16,3.1496,3.1496,3.1496,3.1511,3.1496,3.1496,3.1496,3.1496,3.1496,3.1524,3.1853,3.2035,3.2145,3.2312,3.268,3.2924,3.3292,3.3502,3.354,3.3546,3.3445,3.3539,3.37,3.349,3.311,5.1229,5.1229,5.1229,5.1229,5.1229,5.1229,5.1229,5.1154,5.0734,5.042,5.0121,4.9808,4.9269,4.8716,4.8401,4.8057,4.7668,4.7429,4.7309,4.7264,4.692,4.6591,4.6234,4.5618,4.4945,4.4362,4.3898,4.3529,4.3275,4.294,4.2731,4.2626,4.2111,4.1602,4.113,4.0846,4.0442,3.9888,3.9798,3.9627,3.9433,3.9388,3.9388,3.9328,3.9005,3.8796,3.8736,3.8377,3.7749,3.7015,3.6836,3.6611,3.6237,3.6028,3.5863,3.5818,3.5639,3.5489,3.5489,3.5489,3.5489,3.5489,3.5489,3.5489,3.5489,3.5489,3.5489,3.5489,3.5489,3.5489,3.5489,3.5489,3.5489,3.5489,3.5489,3.5385,3.507,3.4173,3.3589,3.338,3.314,3.2706,3.2512,3.2527,3.2736,3.2318,3.2228,3.2228,3.2183,3.2034,3.1944,3.1765,3.1615,3.1585,3.1511,3.1496,3.1496,3.1496,3.1496,3.1496,3.1625,3.1682,3.1752,3.1809,3.2076,3.1882,3.2133,3.2431,3.2546,3.252,3.2579,3.2858,3.3104,3.3273,3.3009,5.1229,5.1229,5.1229,5.1229,5.1229,5.1229,5.1229,5.1214,5.1184,5.0808,5.036,5.027,4.9927,4.9284,4.882,4.8476,4.8177,4.7713,4.7384,4.7339,4.7204,4.695,4.6441,4.5813,4.52,4.4676,4.4451,4.4032,4.3469,4.3379,4.3334,4.3155,4.2701,4.241,4.2156,4.1722,4.1115,4.0546,4.0457,4.0172,3.9642,3.9493,3.9493,3.9493,3.9373,3.9284,3.9269,3.9194,3.8706,3.7659,3.7404,3.7285,3.724,3.6836,3.6537,3.6522,3.5938,3.5789,3.5669,3.5699,3.5714,3.5804,3.5624,3.5534,3.5624,3.5579,3.5489,3.5489,3.5489,3.5489,3.5489,3.5489,3.5489,3.5489,3.5489,3.525,3.4653,3.4008,3.3724,3.3634,3.3559,3.3499,3.3365,3.3425,3.3484,3.335,3.3275,3.323,3.317,3.2841,3.2632,3.2407,3.2198,3.1974,3.1974,3.1869,3.1809,3.1496,3.1511,3.1511,3.1496,3.1496,3.1496,3.1524,3.1508,3.1207,3.1212,3.1692,3.1762,3.163,3.1852,3.2227,3.2533,3.2767,3.2926,5.1229,5.1229,5.1229,5.1229,5.1229,5.1229,5.1229,5.1229,5.1229,5.1109,5.096,5.096,5.0571,5.0002,4.9778,4.9224,4.8491,4.8132,4.7713,4.7354,4.7309,4.7234,4.6935,4.6381,4.5948,4.5651,4.5229,4.4691,4.4092,4.4032,4.3768,4.3305,4.3125,4.2806,4.2425,4.2231,4.1796,4.122,4.1115,4.1055,4.0801,4.0337,4.0142,4.0098,3.9709,3.9448,3.9403,3.9388,3.905,3.8197,3.7644,3.7404,3.7464,3.7285,3.718,3.712,3.7,3.6881,3.6791,3.6462,3.6447,3.6761,3.6073,3.5714,3.6178,3.5774,3.5549,3.5489,3.5489,3.5549,3.5534,3.5549,3.5549,3.5489,3.5564,3.5459,3.5145,3.4651,3.4249,3.4249,3.4249,3.4023,3.3829,3.3933,3.4068,3.3739,3.3634,3.3634,3.3694,3.3499,3.323,3.323,3.3051,3.2721,3.2497,3.2333,3.2079,3.1615,3.1511,3.154,3.1525,3.1496,3.1496,3.1496,3.1524,3.1329,3.1359,3.1587,3.1311,3.0985,3.1173,3.1555,3.2039,3.236,3.265,5.1229,5.1229,5.1229,5.1229,5.1229,5.1229,5.1229,5.1229,5.1229,5.1229,5.1229,5.1229,5.0973,5.0599,5.03,4.9807,4.9149,4.8805,4.8341,4.7758,4.7444,4.7309,4.7189,4.686,4.6606,4.6249,4.5933,4.5379,4.4766,4.4466,4.4107,4.3778,4.3424,4.3095,4.2836,4.2761,4.2485,4.1961,4.1826,4.1722,4.1392,4.1025,4.0861,4.0756,4.0397,4.0157,3.9888,3.9538,3.9179,3.8826,3.8467,3.8257,3.8212,3.7943,3.7823,3.7808,3.7584,3.7389,3.7345,3.7045,3.7045,3.7225,3.6611,3.6567,3.6731,3.6492,3.6297,3.6342,3.6297,3.6297,3.6312,3.6312,3.6178,3.6013,3.5908,3.5804,3.5564,3.5145,3.4936,3.4906,3.4876,3.4801,3.4367,3.4681,3.4651,3.4502,3.4487,3.4457,3.4427,3.4113,3.3903,3.3903,3.3694,3.3305,3.3095,3.2976,3.2841,3.2318,3.1944,3.1899,3.1705,3.163,3.1496,3.1496,3.1496,3.1451,3.1376,3.1252,3.1006,3.0791,3.0757,3.1012,3.1587,3.2506,3.2725,5.1229,5.1229,5.1229,5.1229,5.1229,5.1229,5.1229,5.1229,5.1229,5.1229,5.1229,5.1229,5.1184,5.1122,5.0599,5.0255,5.0091,4.9568,4.891,4.8282,4.7758,4.7444,4.7294,4.7249,4.695,4.6576,4.6399,4.6022,4.5469,4.484,4.4541,4.4317,4.3753,4.3454,4.3389,4.3305,4.3,4.262,4.25,4.2237,4.1848,4.1609,4.1527,4.1482,4.1272,4.0935,4.0487,4.0038,3.9664,3.9493,3.9469,3.929,3.9224,3.8766,3.8542,3.8437,3.8093,3.7793,3.7644,3.7659,3.7599,3.7674,3.7554,3.7479,3.7434,3.7315,3.718,3.7165,3.7375,3.7225,3.7225,3.7315,3.706,3.6671,3.6582,3.6282,3.5848,3.5594,3.5489,3.5489,3.5474,3.5489,3.5489,3.5489,3.5444,3.5026,3.5055,3.5026,3.4966,3.4786,3.4637,3.4592,3.4262,3.3814,3.3679,3.3589,3.3469,3.3215,3.2781,3.2497,3.2108,3.1914,3.163,3.1496,3.1496,3.1316,3.1076,3.0872,3.0822,3.1075,3.139,3.1348,3.1489,3.2708,3.3337,5.1229,5.1229,5.1229,5.1229,5.1229,5.1229,5.1229,5.1229,5.1229,5.1229,5.1229,5.1229,5.1229,5.1167,5.1005,5.0704,5.0285,4.9971,4.9419,4.8341,4.8192,4.7743,4.7429,4.7309,4.7219,4.7055,4.707,4.6726,4.6157,4.5858,4.5562,4.5035,4.4466,4.4092,4.4018,4.3559,4.326,4.3135,4.3105,4.3,4.2761,4.2357,4.2186,4.2141,4.1722,4.1392,4.122,4.104,4.0711,4.0217,3.9768,3.9538,3.9409,3.926,3.914,3.9095,3.9,3.8895,3.8835,3.8482,3.8422,3.8721,3.8093,3.7629,3.8093,3.7734,3.7494,3.7404,3.7404,3.7505,3.7569,3.7449,3.7404,3.7285,3.721,3.7135,3.6866,3.6133,3.5684,3.5594,3.5564,3.5504,3.5519,3.5519,3.5504,3.5504,3.5504,3.5489,3.5415,3.531,3.5205,3.5055,3.4921,3.4517,3.4337,3.4262,3.4158,3.3978,3.3574,3.3275,3.2871,3.2302,3.2004,3.1735,3.1496,3.1286,3.1165,3.1209,3.1246,3.1644,3.2028,3.2186,3.2523,3.3429,3.3874,5.1229,5.1229,5.1229,5.1229,5.1229,5.1229,5.1229,5.1229,5.1229,5.1229,5.1229,5.1229,5.1229,5.1229,5.1214,5.0943,5.0644,5.03,4.9703,4.8835,4.8446,4.7908,4.7429,4.7309,4.7309,4.7309,4.7294,4.707,4.6815,4.6471,4.6055,4.5753,4.5095,4.4571,4.4347,4.3958,4.3589,4.3319,4.3305,4.3305,4.3215,4.303,4.2821,4.2701,4.2207,4.1886,4.1886,4.1542,4.1205,4.0876,4.0516,4.0008,3.9478,3.9388,3.9388,3.9388,3.9388,3.9388,3.9239,3.9125,3.902,3.9343,3.8706,3.8676,3.8751,3.8512,3.8392,3.8347,3.8342,3.8327,3.8327,3.8377,3.8257,3.7913,3.7868,3.7749,3.7389,3.6791,3.6387,3.6327,3.6207,3.6058,3.5938,3.5833,3.5579,3.5579,3.5549,3.5549,3.5489,3.5415,3.5429,3.537,3.5415,3.528,3.5055,3.4936,3.4876,3.4637,3.4307,3.4068,3.3799,3.3125,3.2452,3.2198,3.1989,3.1675,3.1569,3.1629,3.1642,3.1717,3.21,3.2844,3.3415,3.3721,3.4119,5.1229,5.1229,5.1229,5.1229,5.1229,5.1229,5.1229,5.1229,5.1229,5.1229,5.1229,5.1229,5.1229,5.1229,5.1229,5.1229,5.1065,5.0659,5.0062,4.9419,4.879,4.8192,4.7668,4.7414,4.7309,4.7309,4.7309,4.7264,4.7115,4.6758,4.6576,4.6352,4.5798,4.5289,4.4781,4.4426,4.4142,4.3648,4.3559,4.3409,4.3319,4.3245,4.323,4.3135,4.2836,4.2521,4.2417,4.2102,4.1698,4.1549,4.1534,4.0876,4.0068,3.9589,3.9484,3.9433,3.9388,3.9388,3.9388,3.9343,3.9343,3.9388,3.9343,3.9328,3.9313,3.9254,3.9194,3.9224,3.9194,3.9194,3.9373,3.9209,3.897,3.8706,3.8542,3.8272,3.7883,3.7704,3.7644,3.721,3.6866,3.6641,3.6492,3.6357,3.5983,3.5684,3.5669,3.5624,3.5594,3.5519,3.5534,3.5504,3.5489,3.5489,3.531,3.5235,3.522,3.5115,3.4846,3.4741,3.4592,3.4247,3.3604,3.2886,3.2542,3.2303,3.2064,3.2033,3.1987,3.1849,3.2176,3.2895,3.3443,3.3912,3.4399,5.1229,5.1229,5.1229,5.1229,5.1229,5.1229,5.1229,5.1229,5.1229,5.1229,5.1229,5.1229,5.1229,5.1229,5.1229,5.1229,5.1169,5.0913,5.0584,4.9987,4.9359,4.8745,4.8057,4.7623,4.7384,4.7309,4.7309,4.7309,4.7294,4.7189,4.7025,4.6965,4.6486,4.598,4.5753,4.5439,4.4811,4.4257,4.4137,4.3928,4.3499,4.3319,4.3305,4.329,4.3135,4.3105,4.312,4.303,4.2776,4.2321,4.2261,4.1758,4.11,4.0546,4.0098,3.9723,3.9582,3.9664,3.9523,3.9448,3.9403,3.9388,3.9388,3.9388,3.9388,3.9388,3.9388,3.9388,3.9388,3.9388,3.9388,3.9388,3.9358,3.923,3.9155,3.911,3.9005,3.882,3.8476,3.7838,3.7494,3.7255,3.7135,3.6956,3.6626,3.6387,3.6312,3.6133,3.5938,3.5774,3.5624,3.5564,3.5489,3.5489,3.5459,3.5429,3.5415,3.5385,3.525,3.5235,3.5175,3.528,3.4831,3.3978,3.3425,3.3185,3.2931,3.2557,3.26,3.267,3.2844,3.3,3.3699,3.4391,3.4898,5.1229,5.1229,5.1229,5.1229,5.1229,5.1229,5.1229,5.1229,5.1229,5.1229,5.1229,5.1229,5.1229,5.1229,5.1229,5.1229,5.1229,5.1214,5.0794,5.0196,4.9883,4.9194,4.8431,4.7952,4.7608,4.7414,4.7309,4.7309,4.7309,4.7294,4.7309,4.7234,4.695,4.6681,4.6309,4.5978,4.5454,4.4975,4.4781,4.4496,4.3798,4.3529,4.3319,4.3305,4.3305,4.3305,4.3305,4.3305,4.3155,4.294,4.2865,4.2491,4.1998,4.1617,4.1115,4.0576,4.0397,4.0232,4.0008,3.9903,3.9813,3.9433,3.9418,3.9388,3.9388,3.9388,3.9418,3.9403,3.9388,3.9388,3.9388,3.9388,3.9388,3.9388,3.9388,3.9388,3.9388,3.9388,3.896,3.8362,3.8138,3.7958,3.7853,3.7614,3.7285,3.7105,3.6985,3.6716,3.6387,3.6193,3.5998,3.5953,3.5923,3.5774,3.5804,3.5804,3.5818,3.5774,3.5624,3.5609,3.5534,3.5534,3.5355,3.4846,3.4427,3.3978,3.3514,3.311,3.3291,3.3453,3.3571,3.378,3.4315,3.487,3.5232,5.1229,5.1229,5.1229,5.1229,5.1229,5.1229,5.1229,5.1229,5.1229,5.1229,5.1229,5.1229,5.1229,5.1229,5.1229,5.1229,5.1229,5.1229,5.0915,5.051,5.0211,4.9583,4.894,4.8327,4.8012,4.7653,4.7339,4.7309,4.7309,4.7309,4.7309,4.7294,4.7309,4.7085,4.6621,4.6561,4.6097,4.5723,4.5484,4.517,4.4526,4.3858,4.3484,4.3439,4.3364,4.3305,4.3305,4.3305,4.3305,4.3245,4.32,4.306,4.2641,4.259,4.2351,4.1848,4.1549,4.1085,4.0771,4.0591,4.0412,4.0083,3.9888,3.9858,3.9813,3.9873,3.9679,3.9619,3.9418,3.9388,3.9388,3.9388,3.9388,3.9388,3.9388,3.9388,3.9388,3.9388,3.9388,3.9035,3.8811,3.8646,3.8512,3.8437,3.8138,3.7749,3.7614,3.733,3.703,3.6791,3.6626,3.6552,3.6432,3.6207,3.6178,3.6267,3.6312,3.6372,3.6103,3.5938,3.5789,3.5654,3.5459,3.531,3.507,3.4592,3.4098,3.3739,3.3848,3.3985,3.4164,3.4332,3.4538,3.481,3.5144,5.1229,5.1229,5.1229,5.1229,5.1229,5.1229,5.1229,5.1229,5.1229,5.1229,5.1229,5.1229,5.1229,5.1229,5.1229,5.1229,5.1229,5.1214,5.1139,5.0883,5.051,5.0151,4.9732,4.8745,4.8476,4.8132,4.7668,4.7339,4.7369,4.7369,4.7309,4.7309,4.7294,4.7219,4.7085,4.704,4.6845,4.6322,4.6187,4.5843,4.52,4.4541,4.4257,4.4062,4.3678,4.3394,4.3394,4.3364,4.3305,4.3305,4.3305,4.3245,4.317,4.3185,4.317,4.2791,4.2147,4.1392,4.1294,4.1265,4.116,4.095,4.0965,4.1115,4.0861,4.0516,4.0277,4.0262,3.9858,3.9597,3.9642,3.9508,3.9433,3.9478,3.9619,3.9523,3.9463,3.9388,3.9388,3.9373,3.911,3.917,3.9119,3.911,3.9005,3.8586,3.8212,3.7943,3.7704,3.7494,3.712,3.6985,3.6926,3.6731,3.6626,3.6716,3.6776,3.6896,3.6656,3.6357,3.6282,3.6148,3.5744,3.5579,3.5415,3.528,3.4891,3.4607,3.4442,3.4418,3.4514,3.4499,3.4467,3.4774,3.5323,5.1229,5.1229,5.1229,5.1229,5.1229,5.1229,5.1229,5.1229,5.1229,5.1229,5.1229,5.1229,5.1229,5.1229,5.1229,5.1229,5.1229,5.1229,5.1229,5.1229,5.09,5.0586,5.0121,4.9613,4.9299,4.8805,4.8536,4.8237,4.7938,4.7504,4.7309,4.7309,4.7309,4.7294,4.7309,4.7309,4.7145,4.683,4.6488,4.6187,4.5783,4.5259,4.4855,4.484,4.4186,4.3917,4.3783,4.3424,4.3319,4.3305,4.3305,4.3305,4.329,4.329,4.329,4.323,4.2826,4.2357,4.2013,4.1953,4.1773,4.1474,4.1414,4.1377,4.1362,4.1175,4.095,4.095,4.0711,4.0516,4.0472,4.0531,4.0531,4.0442,4.0113,4.0008,3.9873,3.9463,3.9388,3.9388,3.9418,3.9493,3.9493,3.9328,3.9224,3.9065,3.8856,3.8751,3.8497,3.8257,3.7808,3.733,3.73,3.7255,3.7195,3.7195,3.7225,3.7285,3.7225,3.6985,3.6971,3.6761,3.6357,3.6133,3.6073,3.5893,3.5639,3.531,3.4981,3.4891,3.4831,3.494,3.5078,3.5624,3.627,5.1229,5.1229,5.1229,5.1229,5.1229,5.1229,5.1229,5.1229,5.1229,5.1229,5.1229,5.1229,5.1229,5.1229,5.1229,5.1229,5.1229,5.1229,5.1229,5.1229,5.1169,5.093,5.0524,5.0255,4.9867,4.9508,4.9224,4.8955,4.8506,4.8102,4.7773,4.7339,4.7309,4.7309,4.7309,4.7309,4.7249,4.7189,4.683,4.6636,4.6456,4.5903,4.5633,4.5364,4.4975,4.4556,4.4466,4.3902,4.3589,4.3574,4.3364,4.3305,4.3305,4.3305,4.3305,4.329,4.311,4.2976,4.2716,4.2551,4.2312,4.2058,4.1863,4.2058,4.1968,4.1788,4.1662,4.1662,4.1362,4.1347,4.1407,4.1347,4.1242,4.104,4.0891,4.0756,4.0591,4.0262,4.0098,4.0202,4.0142,3.9813,3.9753,3.9493,3.9388,3.9388,3.9388,3.9388,3.9185,3.8841,3.8601,3.8108,3.8138,3.8103,3.8058,3.7988,3.7913,3.7764,3.7704,3.7644,3.7629,3.7389,3.7015,3.6851,3.6731,3.6611,3.6432,3.5953,3.5474,3.5295,3.5239,3.5569,3.5902,3.6415,3.7097,5.1229,5.1229,5.1229,5.1229,5.1229,5.1229,5.1229,5.1229,5.1229,5.1229,5.1229,5.1229,5.1229,5.1229,5.1229,5.1229,5.1229,5.1229,5.1229,5.1229,5.1214,5.1154,5.0853,5.0539,5.0211,5.0092,4.9823,4.9479,4.9239,4.909,4.8341,4.7504,4.7668,4.7444,4.7414,4.7563,4.7384,4.7324,4.713,4.713,4.698,4.6606,4.6277,4.6112,4.5633,4.5214,4.5185,4.4586,4.4242,4.4186,4.3708,4.3439,4.3469,4.3349,4.3319,4.3305,4.3305,4.32,4.3135,4.3105,4.3155,4.314,4.3035,4.2886,4.2796,4.2506,4.2381,4.2306,4.1983,4.1683,4.1564,4.1467,4.1713,4.1669,4.1594,4.1399,4.1265,4.1115,4.098,4.1055,4.0846,4.0472,4.0292,4.0142,3.9553,3.9478,3.9388,3.9388,3.9388,3.92,3.9209,3.9044,3.9104,3.9119,3.9149,3.9,3.8736,3.8556,3.8482,3.8392,3.8317,3.8018,3.7793,3.7479,3.7345,3.73,3.712,3.6552,3.6028,3.5654,3.5572,3.5782,3.6228,3.6768,3.7526,5.1229,5.1229,5.1229,5.1229,5.1229,5.1229,5.1229,5.1229,5.1229,5.1229,5.1229,5.1229,5.1229,5.1229,5.1229,5.1229,5.1229,5.1229,5.1229,5.1229,5.1229,5.1229,5.1079,5.1005,5.084,5.0765,5.0511,5.0182,4.9883,4.9868,4.9359,4.8745,4.8521,4.8536,4.8461,4.8042,4.7713,4.7384,4.7324,4.7309,4.7264,4.713,4.6935,4.6875,4.6292,4.5963,4.5828,4.5259,4.5005,4.4751,4.4272,4.4032,4.3798,4.3559,4.3379,4.3349,4.3349,4.3305,4.3305,4.3305,4.3305,4.3305,4.329,4.3305,4.3305,4.306,4.297,4.2865,4.2701,4.2432,4.2566,4.2596,4.2656,4.2506,4.2297,4.2058,4.1908,4.1788,4.1654,4.1639,4.1384,4.104,4.092,4.0846,4.0172,3.9604,3.9463,3.9403,3.9463,3.9403,3.9388,3.9388,3.9388,3.9388,3.9388,3.9388,3.9388,3.929,3.9155,3.9005,3.8856,3.899,3.8701,3.8347,3.7958,3.7868,3.7584,3.7045,3.6611,3.6252,3.5917,3.575,3.6321,3.7255,3.8257,5.1229,5.1229,5.1229,5.1229,5.1229,5.1229,5.1229,5.1229,5.1229,5.1229,5.1229,5.1229,5.1229,5.1229,5.1229,5.1229,5.1229,5.1229,5.1229,5.1229,5.1229,5.1229,5.1229,5.1199,5.1124,5.1229,5.1184,5.087,5.051,5.048,5.0257,4.9972,4.9808,4.9688,4.9134,4.8865,4.8252,4.7743,4.7593,4.7429,4.7384,4.7294,4.7279,4.7234,4.68,4.6666,4.6441,4.5992,4.5648,4.5394,4.5035,4.4676,4.4377,4.4022,4.3648,4.3529,4.3424,4.3334,4.3305,4.3305,4.3305,4.3305,4.3305,4.3305,4.3305,4.3305,4.32,4.323,4.3245,4.3305,4.3305,4.314,4.3095,4.2901,4.2836,4.2641,4.2581,4.2462,4.2312,4.2192,4.1893,4.1692,4.1542,4.1384,4.098,4.0337,4.0023,3.9933,3.9843,3.9709,3.9388,3.9388,3.9388,3.9388,3.9388,3.9388,3.9388,3.9373,3.9305,3.9298,3.9269,3.9388,3.9358,3.896,3.8616,3.8452,3.8197,3.7868,3.7375,3.6866,3.6694,3.6691,3.784,3.8846,3.9544,5.1229,5.1229,5.1229,5.1229,5.1229,5.1229,5.1229,5.1229,5.1229,5.1229,5.1229,5.1229,5.1229,5.1229,5.1229,5.1229,5.1229,5.1229,5.1229,5.1229,5.1229,5.1229,5.1229,5.1229,5.1229,5.1229,5.1214,5.1169,5.1063,5.1035,5.099,5.099,5.075,5.0391,4.9434,4.9314,4.894,4.8356,4.8267,4.7848,4.7534,4.7384,4.7309,4.7264,4.7189,4.71,4.695,4.6606,4.6264,4.6145,4.5633,4.5319,4.5214,4.4646,4.4332,4.4287,4.3738,4.3454,4.3334,4.3319,4.3364,4.3319,4.3305,4.3305,4.3305,4.3305,4.3305,4.3305,4.3305,4.3305,4.3305,4.3305,4.3305,4.326,4.314,4.3105,4.3015,4.2985,4.2791,4.2686,4.2506,4.2336,4.2141,4.1946,4.1692,4.1205,4.0711,4.0457,4.0352,4.0187,3.9948,3.9657,3.9657,3.9478,3.9478,3.9403,3.9388,3.9388,3.9388,3.9388,3.9388,3.9388,3.9343,3.932,3.9185,3.8931,3.8886,3.8811,3.8287,3.7848,3.794,3.8222,3.9388,4.0094,4.0418,5.1229,5.1229,5.1229,5.1229,5.1229,5.1229,5.1229,5.1229,5.1229,5.1229,5.1229,5.1229,5.1229,5.1229,5.1229,5.1229,5.1229,5.1229,5.1229,5.1229,5.1229,5.1229,5.1229,5.1229,5.1229,5.1229,5.1229,5.1229,5.1199,5.1229,5.1229,5.1229,5.1169,5.072,5.0137,4.9868,4.9598,4.897,4.8551,4.8147,4.7938,4.7593,4.7339,4.7354,4.7339,4.7309,4.7309,4.6965,4.6905,4.683,4.6262,4.6007,4.5873,4.5349,4.499,4.496,4.4631,4.4407,4.4137,4.3917,4.3708,4.3529,4.3305,4.3305,4.3305,4.3305,4.3305,4.3305,4.3305,4.3305,4.3305,4.3305,4.3305,4.3305,4.323,4.3245,4.32,4.3215,4.314,4.311,4.303,4.2955,4.2806,4.2596,4.2342,4.2102,4.1654,4.1235,4.1055,4.095,4.0771,4.0322,4.0098,3.9798,3.9634,3.9679,3.9582,3.9553,3.9478,3.9388,3.9388,3.9388,3.9373,3.9328,3.9358,3.9373,3.926,3.9125,3.908,3.8913,3.8705,3.8688,3.9312,3.9906,4.0342,5.1229,5.1229,5.1229,5.1229,5.1229,5.1229,5.1229,5.1229,5.1229,5.1229,5.1229,5.1229,5.1229,5.1229,5.1229,5.1229,5.1229,5.1229,5.1229,5.1229,5.1229,5.1229,5.1229,5.1229,5.1229,5.1229,5.1229,5.1229,5.1229,5.1229,5.1229,5.1229,5.1214,5.0975,5.0614,5.0465,5.0272,4.9703,4.9254,4.894,4.8566,4.8117,4.7698,4.7608,4.7489,4.7309,4.7309,4.7309,4.7309,4.7174,4.695,4.6651,4.6456,4.6097,4.5693,4.5648,4.5334,4.508,4.4751,4.4646,4.4451,4.4197,4.3633,4.3319,4.3305,4.3305,4.3305,4.3305,4.3319,4.3305,4.3305,4.3305,4.3305,4.3305,4.3305,4.3305,4.3305,4.3305,4.3305,4.3305,4.3305,4.3305,4.3305,4.3245,4.3035,4.2851,4.2596,4.2177,4.1728,4.1579,4.1414,4.101,4.0726,4.0546,4.0277,4.0053,3.9948,3.9747,3.9657,3.9597,3.9388,3.9388,3.9388,3.9403,3.9418,3.9433,3.9403,3.9328,3.9239,3.9089,3.8852,3.8987,3.929,4.0056,4.0857,5.1229,5.1229,5.1229,5.1229,5.1229,5.1229,5.1229,5.1229,5.1229,5.1229,5.1229,5.1229,5.1229,5.1229,5.1229,5.1229,5.1229,5.1229,5.1229,5.1229,5.1229,5.1229,5.1229,5.1229,5.1229,5.1229,5.1229,5.1229,5.1229,5.1229,5.1229,5.1229,5.1229,5.1124,5.1079,5.099,5.075,5.0331,4.9927,4.9643,4.9254,4.8671,4.8282,4.8057,4.7758,4.7459,4.7369,4.7309,4.7309,4.7279,4.7249,4.7249,4.7085,4.6696,4.6471,4.6187,4.5753,4.5574,4.5349,4.5334,4.5185,4.4855,4.4097,4.3604,4.3529,4.3708,4.3708,4.3589,4.3544,4.3409,4.3319,4.3305,4.3305,4.3305,4.3305,4.3305,4.3305,4.3305,4.3305,4.3305,4.3305,4.3305,4.3305,4.3305,4.3305,4.3185,4.2946,4.2821,4.2402,4.2058,4.1878,4.1647,4.1422,4.1392,4.1108,4.0636,4.0516,4.0427,4.0113,3.9978,3.9723,3.9672,3.9963,4.0008,3.9649,3.9499,3.9454,3.9388,3.9373,3.9209,3.9059,3.947,3.9856,4.1263,4.2248,5.1229,5.1229,5.1229,5.1229,5.1229,5.1229,5.1229,5.1229,5.1229,5.1229,5.1229,5.1229,5.1229,5.1229,5.1229,5.1229,5.1229,5.1229,5.1229,5.1229,5.1229,5.1229,5.1229,5.1229,5.1229,5.1229,5.1229,5.1229,5.1229,5.1229,5.1229,5.1229,5.1229,5.1229,5.1229,5.1229,5.1065,5.0855,5.0465,5.0196,4.9868,4.9314,4.8895,4.8446,4.8117,4.7773,4.7474,4.7324,4.7309,4.7309,4.7309,4.7309,4.7264,4.7115,4.7025,4.701,4.677,4.6576,4.6142,4.598,4.5888,4.5544,4.496,4.4855,4.4736,4.4616,4.4451,4.4182,4.4018,4.3958,4.3738,4.3648,4.3633,4.3648,4.3633,4.3604,4.3574,4.3469,4.3454,4.3305,4.3305,4.3305,4.3305,4.3305,4.3305,4.3305,4.3245,4.314,4.303,4.2656,4.2402,4.2147,4.2043,4.2013,4.1647,4.119,4.1145,4.104,4.0726,4.0561,4.0636,4.0666,4.0756,4.0621,4.0307,3.9858,3.9454,3.9544,3.9807,3.9493,3.94,3.994,4.0619,4.1673,4.263,5.1229,5.1229,5.1229,5.1229,5.1229,5.1229,5.1229,5.1229,5.1229,5.1229,5.1229,5.1229,5.1229,5.1229,5.1229,5.1229,5.1229,5.1229,5.1229,5.1229,5.1229,5.1229,5.1229,5.1229,5.1229,5.1229,5.1229,5.1229,5.1229,5.1229,5.1229,5.1229,5.1229,5.1229,5.1229,5.1229,5.1229,5.1079,5.0838,5.0629,5.0315,4.9987,4.9464,4.9015,4.8686,4.8087,4.7698,4.7519,4.7324,4.7309,4.7309,4.7309,4.7309,4.7294,4.7294,4.7249,4.7204,4.701,4.6756,4.6711,4.6456,4.6202,4.6037,4.6082,4.5798,4.5544,4.5125,4.4766,4.4691,4.4586,4.4332,4.4082,4.4097,4.4112,4.4052,4.4032,4.3873,4.3723,4.3559,4.3349,4.3305,4.3305,4.3305,4.3305,4.3305,4.3305,4.3305,4.326,4.3215,4.308,4.2916,4.2776,4.2716,4.2656,4.2207,4.1848,4.1788,4.1639,4.128,4.1205,4.1467,4.1407,4.1205,4.1115,4.0995,4.0576,4.0172,4.0247,4.0397,4.0098,3.9888,4.0148,4.0512,4.0932,4.1835,5.1169,5.1229,5.1229,5.1229,5.1229,5.1229,5.1229,5.1229,5.1229,5.1229,5.1229,5.1229,5.1229,5.1229,5.1229,5.1229,5.1229,5.1229,5.1229,5.1229,5.1229,5.1229,5.1229,5.1229,5.1229,5.1229,5.1229,5.1229,5.1229,5.1229,5.1229,5.1229,5.1229,5.1229,5.1229,5.1229,5.1229,5.1184,5.1139,5.105,5.096,5.0599,5.0211,4.9912,4.9224,4.8431,4.8162,4.7788,4.7339,4.7339,4.7309,4.7309,4.7309,4.7309,4.7309,4.7309,4.7309,4.7264,4.7174,4.7145,4.7189,4.7145,4.7294,4.707,4.6636,4.6292,4.5858,4.5469,4.5379,4.5155,4.49,4.4766,4.4751,4.4751,4.4721,4.4616,4.4481,4.4332,4.4097,4.3873,4.3633,4.3589,4.3305,4.3305,4.3305,4.3305,4.3305,4.3305,4.3305,4.3305,4.3245,4.317,4.308,4.2991,4.2925,4.2626,4.2476,4.2252,4.1923,4.1878,4.2102,4.1893,4.1602,4.1587,4.1602,4.1437,4.116,4.107,4.095,4.092,4.0726,4.0531,4.0649,4.1008,4.1415,5.0719,5.1167,5.1229,5.1229,5.1229,5.1229,5.1229,5.1229,5.1229,5.1229,5.1229,5.1229,5.1229,5.1229,5.1229,5.1229,5.1229,5.1229,5.1229,5.1229,5.1229,5.1229,5.1229,5.1229,5.1229,5.1229,5.1229,5.1229,5.1229,5.1229,5.1229,5.1229,5.1229,5.1229,5.1229,5.1229,5.1229,5.1229,5.1229,5.1229,5.1154,5.105,5.0734,5.0345,4.9657,4.9105,4.873,4.8177,4.7728,4.7444,4.7339,4.7309,4.7309,4.7309,4.7309,4.7309,4.7309,4.7309,4.7309,4.7309,4.7309,4.7309,4.7309,4.7309,4.7174,4.695,4.6651,4.6277,4.5992,4.5738,4.5559,4.5469,4.5409,4.5409,4.5394,4.5259,4.511,4.4885,4.4706,4.4436,4.4137,4.3828,4.3529,4.3349,4.3305,4.3305,4.3305,4.3305,4.3305,4.3305,4.3305,4.3245,4.326,4.3215,4.3215,4.3155,4.2955,4.294,4.2731,4.2731,4.2761,4.2581,4.2342,4.2246,4.2156,4.1998,4.1788,4.1429,4.1354,4.1579,4.1429,4.119,4.1511,4.1889,4.1953,5.0405,5.081,5.1094,5.1229,5.1229,5.1229,5.1229,5.1229,5.1229,5.1229,5.1229,5.1229,5.1229,5.1229,5.1229,5.1229,5.1229,5.1229,5.1229,5.1229,5.1229,5.1229,5.1229,5.1229,5.1229,5.1229,5.1229,5.1229,5.1229,5.1229,5.1229,5.1229,5.1229,5.1229,5.1229,5.1229,5.1229,5.1229,5.1229,5.1229,5.1229,5.1154,5.1048,5.0659,5.0226,4.9748,4.9299,4.8716,4.8102,4.7698,4.7519,4.7324,4.7309,4.7309,4.7309,4.7309,4.7309,4.7309,4.7309,4.7309,4.7309,4.7309,4.7309,4.7309,4.7309,4.71,4.7085,4.677,4.6756,4.6546,4.6516,4.6441,4.6426,4.6426,4.6367,4.6277,4.5813,4.5349,4.5155,4.4915,4.4751,4.4691,4.4362,4.3962,4.3888,4.3723,4.3663,4.3379,4.3364,4.3394,4.3364,4.3305,4.3305,4.3305,4.3275,4.326,4.3215,4.326,4.3305,4.3185,4.3021,4.314,4.311,4.2851,4.2686,4.2686,4.2417,4.2087,4.2192,4.2506,4.2207,4.1856,4.2266,4.2748,4.3144,5.0016,5.027,5.0898,5.1229,5.1229,5.1229,5.1229,5.1229,5.1229,5.1229,5.1229,5.1229,5.1229,5.1229,5.1229,5.1229,5.1229,5.1229,5.1229,5.1229,5.1229,5.1229,5.1229,5.1229,5.1229,5.1229,5.1229,5.1229,5.1229,5.1229,5.1229,5.1229,5.1229,5.1229,5.1229,5.1229,5.1229,5.1229,5.1229,5.1229,5.1229,5.1229,5.1184,5.0928,5.0659,5.0315,4.9837,4.9314,4.8626,4.8177,4.7863,4.7519,4.7339,4.7309,4.7309,4.7309,4.7309,4.7309,4.7309,4.7309,4.7309,4.7309,4.7309,4.7309,4.7309,4.7294,4.7279,4.7279,4.7264,4.7234,4.7204,4.7189,4.7189,4.7174,4.71,4.7055,4.6456,4.5918,4.5723,4.5499,4.5424,4.5409,4.505,4.4691,4.4496,4.4317,4.4037,4.3693,4.3499,4.3574,4.3604,4.3439,4.3305,4.3305,4.3305,4.3305,4.3305,4.3305,4.3305,4.3305,4.3305,4.329,4.329,4.326,4.314,4.3035,4.308,4.2886,4.3095,4.3125,4.288,4.2554,4.2947,4.3503,4.4397,4.9299,5.0255,5.0898,5.1229,5.1229,5.1229,5.1229,5.1229,5.1229,5.1229,5.1229,5.1229,5.1229,5.1229,5.1229,5.1229,5.1229,5.1229,5.1229,5.1229,5.1229,5.1229,5.1229,5.1229,5.1229,5.1229,5.1229,5.1229,5.1229,5.1229,5.1229,5.1229,5.1229,5.1229,5.1229,5.1229,5.1229,5.1229,5.1229,5.1229,5.1229,5.1229,5.1229,5.1139,5.1109,5.0644,5.0255,4.9986,4.9568,4.906,4.8416,4.7863,4.7534,4.7354,4.7309,4.7309,4.7309,4.7309,4.7309,4.7309,4.7309,4.7309,4.7309,4.7309,4.7309,4.7309,4.7294,4.7294,4.7294,4.7294,4.7264,4.7264,4.7264,4.7264,4.7219,4.7219,4.6935,4.6756,4.6621,4.6352,4.6085,4.5888,4.5499,4.5259,4.5155,4.502,4.493,4.4586,4.4167,4.4022,4.3917,4.3738,4.3544,4.3305,4.3305,4.3305,4.3305,4.3305,4.3305,4.3305,4.3305,4.3305,4.3305,4.3305,4.3305,4.3215,4.329,4.3305,4.329,4.323,4.3245,4.3253,4.3661,4.4425,4.5426]}]]